[[{"header":{"parameterUnit":"m.s-1","parameterCategory":1,"la1":30.6,"la2":28.766,"lo1":-90.7593,"lo2":-88.6598,"dy":0.0162,"dx":0.0183,"nx":116,"ny":114,"refTime":"2023-11-15T06:00:00:Z","depth":0,"parameterNumber":2,"parameterNumberName":"U-component_of_WINDS"},"data":[0.0,0.0,0.0,0.0,0.0,0.0,0.0,0.0,0.0,0.0,0.0,0.0,0.0,0.0,0.0,0.0,0.0,0.0,0.0,0.0,0.0,0.0,0.0,0.0,0.0,0.0,0.0,0.0,0.0,0.0,0.0,0.0,0.0,0.0,0.0,0.0,0.0,0.0,0.0,0.0,0.0,0.0,0.0,0.0,0.0,0.0,0.0,0.0,0.0,0.0,0.0,0.0,0.0,0.0,0.0,0.0,0.0,0.0,0.0,0.0,0.0,0.0,0.0,0.0,0.0,0.0,0.0,0.0,0.0,0.0,0.0,0.0,0.0,0.0,0.0,0.0,0.0,0.0,0.0,0.0,0.0,0.0,0.0,0.0,0.0,0.0,0.0,0.0,0.0,0.0,0.0,0.0,0.0,0.0,0.0,0.0,0.0,0.0,0.0,0.0,0.0,0.0,0.0,0.0,0.0,0.0,0.0,0.0,0.0,0.0,0.0,0.0,0.0,0.0,0.0,0.0,0.0,0.0,0.0,0.0,0.0,0.0,0.0,0.0,0.0,0.0,0.0,0.0,0.0,0.0,0.0,0.0,0.0,0.0,0.0,0.0,0.0,0.0,0.0,0.0,0.0,0.0,0.0,0.0,0.0,0.0,0.0,0.0,0.0,0.0,0.0,0.0,0.0,0.0,0.0,0.0,0.0,0.0,0.0,0.0,0.0,0.0,0.0,0.0,0.0,0.0,0.0,0.0,0.0,0.0,0.0,0.0,0.0,0.0,0.0,0.0,0.0,0.0,0.0,0.0,0.0,0.0,0.0,0.0,0.0,0.0,0.0,0.0,0.0,0.0,0.0,0.0,0.0,0.0,0.0,0.0,0.0,0.0,0.0,0.0,0.0,0.0,0.0,0.0,0.0,0.0,0.0,0.0,0.0,0.0,0.0,0.0,0.0,0.0,0.0,0.0,0.0,0.0,0.0,0.0,0.0,0.0,0.0,0.0,0.0,0.0,0.0,0.0,0.0,0.0,0.0,0.0,0.0,0.0,0.0,0.0,0.0,0.0,0.0,0.0,0.0,0.0,0.0,0.0,0.0,0.0,0.0,0.0,0.0,0.0,0.0,0.0,0.0,0.0,0.0,0.0,0.0,0.0,0.0,0.0,0.0,0.0,0.0,0.0,0.0,0.0,0.0,0.0,0.0,0.0,0.0,0.0,0.0,0.0,0.0,0.0,0.0,0.0,0.0,0.0,0.0,0.0,0.0,0.0,0.0,0.0,0.0,0.0,0.0,0.0,0.0,0.0,0.0,0.0,0.0,0.0,0.0,0.0,0.0,0.0,0.0,0.0,0.0,0.0,0.0,0.0,0.0,0.0,0.0,0.0,0.0,0.0,0.0,0.0,0.0,0.0,0.0,0.0,0.0,0.0,0.0,0.0,0.0,0.0,0.0,0.0,0.0,0.0,0.0,0.0,0.0,0.0,0.0,0.0,0.0,0.0,0.0,0.0,0.0,0.0,0.0,0.0,0.0,0.0,0.0,0.0,0.0,0.0,0.0,0.0,0.0,0.0,0.0,0.0,0.0,0.0,0.0,0.0,0.0,0.0,0.0,0.0,0.0,0.0,0.0,0.0,0.0,0.0,0.0,0.0,0.0,0.0,0.0,0.0,0.0,0.0,0.0,0.0,0.0,0.0,0.0,0.0,0.0,0.0,0.0,0.0,0.0,0.0,0.0,0.0,0.0,0.0,0.0,0.0,0.0,0.0,0.0,0.0,0.0,0.0,0.0,0.0,0.0,0.0,0.0,0.0,0.0,0.0,0.0,0.0,0.0,0.0,0.0,0.0,0.0,0.0,0.0,0.0,0.0,0.0,0.0,0.0,0.0,0.0,0.0,0.0,0.0,0.0,0.0,0.0,0.0,0.0,0.0,0.0,0.0,0.0,0.0,0.0,0.0,0.0,0.0,0.0,0.0,0.0,0.0,0.0,0.0,0.0,0.0,0.0,0.0,0.0,0.0,0.0,0.0,0.0,0.0,0.0,0.0,0.0,0.0,0.0,0.0,0.0,0.0,0.0,0.0,0.0,0.0,0.0,0.0,0.0,0.0,0.0,0.0,0.0,0.0,0.0,0.0,0.0,0.0,0.0,0.0,0.0,0.0,0.0,0.0,0.0,0.0,0.0,0.0,0.0,0.0,0.0,0.0,0.0,0.0,0.0,0.0,0.0,0.0,0.0,0.0,0.0,0.0,0.0,0.0,0.0,0.0,0.0,0.0,0.0,0.0,0.0,0.0,0.0,0.0,0.0,0.0,0.0,0.0,0.0,0.0,0.0,0.0,0.0,0.0,0.0,0.0,0.0,0.0,0.0,0.0,0.0,0.0,0.0,0.0,0.0,0.0,0.0,0.0,0.0,0.0,0.0,0.0,0.0,0.0,0.0,0.0,0.0,0.0,0.0,0.0,0.0,0.0,0.0,0.0,0.0,0.0,0.0,0.0,0.0,0.0,0.0,0.0,0.0,0.0,0.0,0.0,0.0,0.0,0.0,0.0,0.0,0.0,0.0,0.0,0.0,0.0,0.0,0.0,0.0,0.0,0.0,0.0,0.0,0.0,0.0,0.0,0.0,0.0,0.0,0.0,0.0,0.0,0.0,0.0,0.0,0.0,0.0,0.0,0.0,0.0,0.0,0.0,0.0,0.0,0.0,0.0,0.0,0.0,0.0,0.0,0.0,0.0,0.0,0.0,0.0,0.0,0.0,0.0,0.0,0.0,0.0,0.0,0.0,0.0,0.0,0.0,0.0,0.0,0.0,0.0,0.0,0.0,0.0,0.0,0.0,0.0,0.0,0.0,0.0,0.0,0.0,0.0,0.0,0.0,0.0,0.0,0.0,0.0,0.0,0.0,0.0,0.0,0.0,0.0,0.0,0.0,0.0,0.0,0.0,0.0,0.0,0.0,0.0,0.0,0.0,0.0,0.0,0.0,0.0,0.0,0.0,0.0,0.0,0.0,0.0,0.0,0.0,0.0,0.0,0.0,0.0,0.0,0.0,0.0,0.0,0.0,0.0,0.0,0.0,0.0,0.0,0.0,0.0,0.0,0.0,0.0,0.0,0.0,0.0,0.0,0.0,0.0,0.0,0.0,0.0,0.0,0.0,0.0,0.0,0.0,0.0,0.0,0.0,0.0,0.0,0.0,0.0,0.0,0.0,0.0,0.0,0.0,0.0,0.0,0.0,0.0,0.0,0.0,0.0,0.0,0.0,0.0,0.0,0.0,0.0,0.0,0.0,0.0,0.0,0.0,0.0,0.0,0.0,0.0,0.0,0.0,0.0,0.0,0.0,0.0,0.0,0.0,0.0,0.0,0.0,0.0,0.0,0.0,0.0,0.0,0.0,0.0,0.0,0.0,0.0,0.0,0.0,0.0,0.0,0.0,0.0,0.0,0.0,0.0,0.0,0.0,0.0,0.0,0.0,0.0,0.0,0.0,0.0,0.0,0.0,0.0,0.0,0.0,0.0,0.0,0.0,0.0,0.0,0.0,0.0,0.0,0.0,0.0,0.0,0.0,0.0,0.0,0.0,0.0,0.0,0.0,0.0,0.0,0.0,0.0,0.0,0.0,0.0,0.0,0.0,0.0,0.0,0.0,0.0,0.0,0.0,0.0,0.0,0.0,0.0,0.0,0.0,0.0,0.0,0.0,0.0,0.0,0.0,0.0,0.0,0.0,0.0,0.0,0.0,0.0,0.0,0.0,0.0,0.0,0.0,0.0,0.0,0.0,0.0,0.0,0.0,0.0,0.0,0.0,0.0,0.0,0.0,0.0,0.0,0.0,0.0,0.0,0.0,0.0,0.0,0.0,0.0,0.0,0.0,0.0,0.0,0.0,0.0,0.0,0.0,0.0,0.0,0.0,0.0,0.0,0.0,0.0,0.0,0.0,0.0,0.0,0.0,0.0,0.0,0.0,0.0,0.0,0.0,0.0,0.0,0.0,0.0,0.0,0.0,0.0,0.0,0.0,0.0,0.0,0.0,0.0,0.0,0.0,0.0,0.0,0.0,0.0,0.0,0.0,0.0,0.0,0.0,0.0,0.0,0.0,0.0,0.0,0.0,0.0,0.0,0.0,0.0,0.0,0.0,0.0,0.0,0.0,0.0,0.0,0.0,0.0,0.0,0.0,0.0,0.0,0.0,0.0,0.0,0.0,0.0,0.0,0.0,0.0,0.0,0.0,0.0,0.0,0.0,0.0,0.0,0.0,0.0,0.0,0.0,0.0,0.0,0.0,0.0,0.0,0.0,0.0,0.0,0.0,0.0,0.0,0.0,0.0,0.0,0.0,0.0,0.0,0.0,0.0,0.0,0.0,0.0,0.0,0.0,0.0,0.0,0.0,0.0,0.0,0.0,0.0,0.0,0.0,0.0,0.0,0.0,0.0,0.0,0.0,0.0,0.0,0.0,0.0,0.0,0.0,0.0,0.0,0.0,0.0,0.0,0.0,0.0,0.0,0.0,0.0,0.0,0.0,0.0,0.0,0.0,0.0,0.0,0.0,0.0,0.0,0.0,0.0,0.0,0.0,0.0,0.0,0.0,0.0,0.0,0.0,0.0,0.0,0.0,0.0,0.0,0.0,0.0,0.0,0.0,0.0,0.0,0.0,0.0,0.0,0.0,0.0,0.0,0.0,0.0,0.0,0.0,0.0,0.0,0.0,0.0,0.0,0.0,0.0,0.0,0.0,0.0,0.0,0.0,0.0,0.0,0.0,0.0,0.0,0.0,0.0,0.0,0.0,0.0,0.0,0.0,0.0,0.0,0.0,0.0,0.0,0.0,0.0,0.0,0.0,0.0,0.0,0.0,0.0,0.0,0.0,0.0,0.0,0.0,0.0,0.0,0.0,0.0,0.0,0.0,0.0,0.0,0.0,0.0,0.0,0.0,0.0,0.0,0.0,0.0,0.0,0.0,0.0,0.0,0.0,0.0,0.0,0.0,0.0,0.0,0.0,0.0,0.0,0.0,0.0,0.0,0.0,0.0,0.0,0.0,0.0,0.0,0.0,0.0,0.0,0.0,0.0,0.0,0.0,0.0,0.0,0.0,0.0,0.0,0.0,0.0,0.0,0.0,0.0,0.0,0.0,0.0,0.0,0.0,0.0,0.0,0.0,0.0,0.0,0.0,0.0,0.0,0.0,0.0,0.0,0.0,0.0,0.0,0.0,0.0,0.0,0.0,0.0,0.0,0.0,0.0,0.0,0.0,0.0,0.0,0.0,0.0,0.0,0.0,0.0,0.0,0.0,0.0,0.0,0.0,0.0,0.0,0.0,0.0,0.0,0.0,0.0,0.0,0.0,0.0,0.0,0.0,0.0,0.0,0.0,0.0,0.0,0.0,0.0,0.0,0.0,0.0,0.0,0.0,0.0,0.0,0.0,0.0,0.0,0.0,0.0,0.0,0.0,0.0,0.0,0.0,0.0,0.0,0.0,0.0,0.0,0.0,0.0,0.0,0.0,0.0,0.0,0.0,0.0,0.0,0.0,0.0,0.0,0.0,0.0,0.0,0.0,0.0,0.0,0.0,0.0,0.0,0.0,0.0,0.0,0.0,0.0,0.0,0.0,0.0,0.0,0.0,0.0,0.0,0.0,0.0,0.0,0.0,0.0,0.0,0.0,0.0,0.0,0.0,0.0,0.0,0.0,0.0,0.0,0.0,0.0,0.0,0.0,0.0,0.0,0.0,0.0,0.0,0.0,0.0,0.0,0.0,0.0,0.0,0.0,0.0,0.0,0.0,0.0,0.0,0.0,0.0,0.0,0.0,0.0,0.0,0.0,0.0,0.0,0.0,0.0,0.0,0.0,0.0,0.0,0.0,0.0,0.0,0.0,0.0,0.0,0.0,0.0,0.0,0.0,0.0,0.0,0.0,0.0,0.0,0.0,0.0,0.0,0.0,0.0,0.0,0.0,0.0,0.0,0.0,0.0,0.0,0.0,0.0,0.0,0.0,0.0,0.0,0.0,0.0,0.0,0.0,0.0,0.0,0.0,0.0,0.0,0.0,0.0,0.0,0.0,0.0,0.0,0.0,0.0,0.0,0.0,0.0,0.0,0.0,0.0,0.0,0.0,0.0,3.1779,3.0407,0.0,0.0,0.0,0.0,0.0,0.0,0.0,0.0,0.0,0.0,0.0,0.0,0.0,0.0,0.0,0.0,0.0,0.0,0.0,0.0,0.0,0.0,0.0,0.0,0.0,0.0,0.0,0.0,0.0,0.0,0.0,0.0,0.0,0.0,0.0,0.0,0.0,2.2313,2.2658,2.3199,2.3876,2.3876,2.3504,2.2827,0.0,0.0,0.0,0.0,0.0,0.0,0.0,0.0,0.0,0.0,0.0,0.0,0.0,0.0,0.0,0.0,0.0,0.0,0.0,0.0,0.0,0.0,0.0,0.0,0.0,0.0,0.0,0.0,0.0,0.0,0.0,0.0,0.0,0.0,0.0,0.0,0.0,0.0,0.0,0.0,0.0,0.0,0.0,0.0,0.0,0.0,0.0,0.0,0.0,0.0,0.0,0.0,0.0,0.0,0.0,0.0,0.0,0.0,0.0,0.0,0.0,0.0,0.0,0.0,0.0,0.0,0.0,0.0,0.0,0.0,3.4922,3.2845,0.0,0.0,0.0,0.0,0.0,0.0,0.0,0.0,0.0,0.0,0.0,0.0,0.0,0.0,0.0,0.0,0.0,0.0,0.0,0.0,0.0,0.0,0.0,2.2313,2.2347,2.2489,2.2381,2.2347,0.0,0.0,0.0,0.0,0.0,0.0,2.2313,2.2313,2.2354,2.2489,2.3477,2.4661,2.6006,2.6243,2.5736,2.4568,2.4778,0.0,0.0,0.0,0.0,0.0,0.0,0.0,0.0,0.0,0.0,0.0,0.0,0.0,0.0,0.0,0.0,0.0,0.0,0.0,0.0,0.0,0.0,0.0,0.0,0.0,0.0,0.0,0.0,0.0,0.0,0.0,0.0,0.0,0.0,0.0,0.0,0.0,0.0,0.0,0.0,0.0,0.0,0.0,0.0,0.0,0.0,0.0,0.0,0.0,0.0,0.0,0.0,0.0,0.0,0.0,0.0,0.0,0.0,0.0,0.0,0.0,0.0,0.0,4.3395,4.3296,4.092,4.1511,4.212,4.2493,3.878,3.6318,3.4977,3.5053,0.0,0.0,0.0,0.0,0.0,0.0,0.0,0.0,0.0,0.0,0.0,0.0,0.0,0.0,0.0,0.0,0.0,0.0,0.0,2.2313,2.2313,2.2313,2.2557,2.3207,2.2658,2.2557,2.3207,0.0,0.0,0.0,0.0,2.2313,2.2313,2.2313,2.2624,2.3248,2.5278,2.6683,2.7553,2.8881,2.9388,2.9118,2.7241,2.6057,2.5439,0.0,0.0,0.0,0.0,0.0,0.0,0.0,0.0,0.0,0.0,0.0,0.0,0.0,0.0,0.0,0.0,0.0,0.0,0.0,0.0,0.0,0.0,0.0,0.0,0.0,0.0,0.0,0.0,0.0,0.0,0.0,0.0,0.0,0.0,0.0,0.0,0.0,0.0,0.0,0.0,0.0,2.8685,2.8685,0.0,0.0,0.0,0.0,0.0,0.0,0.0,0.0,0.0,0.0,0.0,0.0,0.0,3.5892,3.8308,3.8332,4.023,4.4007,4.4415,4.4379,4.4007,4.4126,4.4215,4.4256,4.366,0.0,3.7986,3.7604,0.0,0.0,0.0,0.0,0.0,0.0,0.0,0.0,0.0,0.0,0.0,0.0,0.0,0.0,0.0,0.0,0.0,0.0,0.0,0.0,0.0,2.2936,2.3207,2.3966,2.3722,2.3485,2.3417,2.3105,0.0,0.0,2.2313,2.2313,2.2313,2.2692,2.3883,2.5871,2.7697,2.9422,3.0978,3.207,3.2804,3.3142,3.2161,3.0369,2.8103,2.7672,0.0,0.0,0.0,0.0,0.0,0.0,0.0,0.0,0.0,0.0,0.0,0.0,0.0,0.0,0.0,0.0,0.0,0.0,0.0,0.0,0.0,0.0,0.0,0.0,0.0,0.0,0.0,0.0,0.0,0.0,0.0,0.0,0.0,0.0,0.0,0.0,0.0,0.0,0.0,2.964,3.1131,3.185,3.1699,3.1453,0.0,0.0,0.0,0.0,0.0,0.0,0.0,0.0,0.0,4.2597,4.1361,4.1284,4.2618,4.4262,4.5771,4.7105,4.8797,4.8702,4.7091,4.7946,4.8316,4.8295,4.8302,4.685,4.4162,4.0594,3.8486,3.7339,0.0,0.0,0.0,0.0,3.5948,3.8107,0.0,0.0,0.0,0.0,0.0,0.0,0.0,0.0,0.0,0.0,0.0,0.0,2.3586,2.4026,2.4526,2.5278,2.5346,2.5041,2.4297,2.3891,2.3349,2.2624,2.2388,2.2388,2.2591,2.3849,2.5871,2.8669,3.0403,3.2374,3.4562,3.5115,3.5757,3.6456,3.6287,3.4258,3.091,3.0151,2.8739,2.686,0.0,0.0,0.0,0.0,0.0,0.0,0.0,0.0,0.0,0.0,0.0,0.0,0.0,0.0,0.0,0.0,0.0,0.0,0.0,0.0,0.0,0.0,0.0,0.0,0.0,0.0,0.0,0.0,0.0,0.0,0.0,0.0,0.0,0.0,0.0,0.0,0.0,3.1742,3.3569,3.473,3.437,3.4123,0.0,0.0,0.0,0.0,0.0,0.0,4.5553,4.5007,4.4852,4.5429,4.4906,4.4955,4.573,4.8689,5.0168,5.0202,5.3179,5.3464,5.1307,5.2417,5.2906,5.2873,5.2135,5.1193,4.9713,4.4131,4.1578,4.098,3.8354,3.6629,3.5605,3.5607,3.7998,4.1204,0.0,0.0,0.0,0.0,0.0,0.0,0.0,0.0,0.0,0.0,0.0,2.362,2.4372,2.5684,2.6826,2.7587,2.7621,2.7325,2.6598,2.5218,2.4135,2.3376,2.2658,2.2624,2.3349,2.6142,2.8712,3.1031,3.3231,3.5453,3.7674,3.7707,3.8125,3.8802,3.8091,3.6084,3.3186,3.2452,3.0456,2.7689,2.6894,0.0,0.0,0.0,0.0,0.0,0.0,0.0,0.0,0.0,0.0,0.0,0.0,0.0,0.0,0.0,0.0,0.0,0.0,0.0,0.0,0.0,0.0,0.0,0.0,0.0,0.0,0.0,0.0,0.0,0.0,0.0,0.0,0.0,0.0,0.0,0.0,0.0,0.0,3.6558,3.7246,0.0,0.0,0.0,0.0,3.5441,4.0068,4.4654,4.8563,4.6123,4.558,4.7671,4.571,4.5939,4.8762,5.1766,5.3281,5.3315,5.6258,5.7611,5.7473,5.7525,5.7559,5.7424,5.4599,5.3332,5.2909,4.8359,4.5633,4.4201,4.2613,3.9369,3.5585,3.5591,3.9327,4.4336,0.0,0.0,0.0,0.0,0.0,0.0,0.0,0.0,2.2665,2.2965,2.3654,2.4737,2.6446,2.7968,2.9185,2.9929,3.0006,2.9253,2.7519,2.6015,2.4661,2.3451,2.3139,2.4011,2.6167,2.8712,3.1326,3.4021,3.6299,3.8294,4.0041,4.0527,4.0865,4.1102,4.0832,3.9884,3.8261,3.5554,3.2983,3.0591,2.9364,2.7977,0.0,0.0,0.0,0.0,0.0,0.0,0.0,0.0,0.0,0.0,0.0,0.0,0.0,0.0,0.0,0.0,0.0,0.0,0.0,0.0,0.0,0.0,0.0,0.0,0.0,0.0,0.0,0.0,0.0,0.0,0.0,0.0,0.0,0.0,0.0,0.0,0.0,4.1589,4.2063,0.0,4.2625,4.176,4.0441,3.8614,4.283,4.6918,5.0243,4.9404,4.9203,5.0007,4.9247,4.9357,5.0392,5.2472,5.4465,5.6325,5.7392,5.79,5.79,5.79,5.79,5.7832,5.6799,5.5243,5.3365,5.178,4.967,4.7394,4.684,4.5629,4.3916,4.1452,4.1903,4.3729,0.0,0.0,0.0,0.0,0.0,0.0,0.0,2.246,2.2774,2.3311,2.4263,2.5812,2.8297,3.0166,3.1529,3.2239,3.2317,3.1258,2.8737,2.6953,2.5406,2.4188,2.4628,2.6175,2.8881,3.1393,3.4032,3.6761,3.8768,4.0493,4.1935,4.2185,4.2435,4.2658,4.2658,4.2252,4.1407,3.8925,3.6129,3.3298,3.1799,3.0301,2.8813,0.0,0.0,0.0,0.0,0.0,0.0,0.0,0.0,0.0,0.0,0.0,0.0,0.0,0.0,0.0,0.0,0.0,0.0,0.0,0.0,0.0,0.0,0.0,0.0,0.0,0.0,0.0,0.0,0.0,0.0,0.0,0.0,0.0,0.0,4.0717,4.3842,4.5853,4.6293,4.6766,4.7481,4.6404,4.4952,4.322,4.6163,4.9195,5.1843,5.1466,5.1679,5.2686,5.2224,5.1961,5.1976,5.397,5.5953,5.79,5.79,5.79,5.7845,5.6334,5.5618,5.5618,5.5618,5.4535,5.2731,5.2731,5.1038,4.8557,4.9956,5.0541,5.0055,4.6106,4.4655,4.4536,0.0,0.0,0.0,0.0,0.0,0.0,2.2342,2.2313,2.2557,2.3349,2.4729,2.6818,2.9828,3.2127,3.3761,3.4472,3.4483,3.322,3.0267,2.7943,2.6387,2.5702,2.7114,2.8982,3.1302,3.4224,3.6828,3.9153,4.0595,4.207,4.349,4.276,4.2828,4.3524,4.3524,4.3118,4.2435,4.2435,3.9884,3.5735,3.419,3.2679,3.1292,0.0,0.0,0.0,0.0,0.0,0.0,0.0,0.0,0.0,0.0,0.0,0.0,0.0,0.0,0.0,0.0,0.0,0.0,0.0,0.0,0.0,0.0,0.0,0.0,0.0,0.0,0.0,0.0,0.0,0.0,0.0,0.0,0.0,4.1373,4.4587,4.7496,4.8984,4.9796,5.0541,5.1269,5.0685,4.9937,4.9252,5.0106,5.1513,5.3518,5.2182,5.2668,5.5604,5.4364,5.3648,5.3621,5.649,5.79,5.79,5.79,5.79,5.7753,5.3337,5.1325,5.1325,5.1236,5.1206,5.1206,5.1206,4.971,4.78,5.1787,5.3314,5.2818,4.879,4.7309,4.692,0.0,0.0,0.0,0.0,0.0,0.0,2.2384,2.2313,2.276,2.4034,2.5947,2.834,3.1369,3.366,3.507,3.5273,3.4326,3.2442,2.9508,2.7681,2.686,2.7181,2.9185,3.1562,3.4326,3.6794,3.9411,4.2205,4.3166,4.4432,4.5872,4.5669,4.5684,4.5872,4.5872,4.5737,4.5548,4.4993,4.3741,4.186,3.8713,3.6581,3.5159,0.0,0.0,0.0,0.0,0.0,0.0,0.0,0.0,0.0,0.0,0.0,0.0,0.0,0.0,0.0,0.0,0.0,0.0,0.0,0.0,0.0,0.0,0.0,0.0,0.0,0.0,0.0,0.0,0.0,0.0,0.0,4.3707,4.6481,4.5399,4.8003,5.0728,5.2807,5.3247,5.3653,5.438,5.3803,5.3512,5.3822,5.3761,5.458,5.6578,5.5267,5.4858,5.5671,5.6356,5.6676,5.6679,5.7486,5.79,5.79,5.79,5.79,5.7821,5.5266,5.4102,5.3982,5.2043,5.1206,5.1206,5.1206,5.0757,5.0056,4.9291,4.9004,4.8872,4.77,4.7309,4.7086,0.0,0.0,0.0,0.0,0.0,0.0,2.2506,2.2384,2.2885,2.4481,2.6248,2.8619,3.1955,3.3728,3.4934,3.5532,3.3964,3.1945,2.961,2.8324,2.8121,2.9185,3.1698,3.4292,3.6963,3.9534,4.1847,4.391,4.5007,4.5954,4.68,4.68,4.68,4.6834,4.7428,4.7564,4.7259,4.7462,4.7124,4.6259,4.4079,4.1555,3.9017,3.8261,3.7212,3.6107,3.5362,3.4618,3.3964,3.3637,0.0,0.0,0.0,0.0,0.0,0.0,0.0,0.0,0.0,0.0,0.0,0.0,0.0,0.0,0.0,0.0,0.0,0.0,0.0,0.0,0.0,0.0,0.0,0.0,4.7597,5.0507,5.0913,5.2739,5.46,5.6258,5.6731,5.7054,5.7496,5.7167,5.6845,5.6648,5.692,5.789,5.9689,5.898,5.8511,5.8511,5.9344,5.9795,5.9795,5.9795,5.9795,5.9776,5.7732,5.6765,5.6723,5.5691,5.5179,5.5089,5.3563,5.2223,5.1206,5.1206,5.1206,5.0936,0.0,0.0,0.0,0.0,4.7309,4.7206,0.0,0.0,0.0,0.0,0.0,0.0,2.2446,2.2337,2.2847,2.4708,2.596,2.8053,3.165,3.2713,3.3683,3.4991,3.3163,3.1369,3.0065,2.9441,2.988,3.163,3.4529,3.7166,3.9445,4.2239,4.4113,4.4973,4.6293,4.6969,4.7056,4.7056,4.7105,4.724,4.8545,4.88,4.836,4.9661,4.983,4.9255,4.9255,4.6718,4.2861,4.2205,4.1373,4.0519,3.9863,3.9039,3.8159,3.7528,0.0,0.0,0.0,0.0,0.0,0.0,0.0,0.0,0.0,0.0,0.0,0.0,0.0,0.0,0.0,0.0,0.0,0.0,0.0,0.0,0.0,0.0,0.0,0.0,5.0998,5.4025,5.6799,5.7949,5.866,5.9081,5.9708,6.0084,6.0095,6.0062,5.9502,5.8243,5.9213,6.0581,6.2293,6.24,0.0,0.0,0.0,6.24,6.24,6.1857,6.1582,6.1521,5.7252,5.5179,5.5179,5.5179,5.5179,5.5179,5.5179,5.3683,5.1206,5.1206,5.1206,5.0936,4.8327,4.7309,4.7309,4.7309,4.7309,4.7309,0.0,0.0,0.0,0.0,0.0,0.0,2.1416,2.144,2.2166,2.4301,2.5834,2.7681,3.0243,3.119,3.1732,3.2036,3.0557,2.9517,2.9237,2.9644,3.135,3.4596,3.7628,4.0278,4.251,4.4336,4.5892,4.7244,4.7549,4.7988,4.8578,4.8578,4.8883,4.9474,4.9778,5.0135,5.0592,5.0863,5.0897,5.0761,5.0761,4.9172,4.6805,4.6669,4.5399,4.3687,4.3552,4.2232,4.0561,4.0392,3.8971,3.7077,3.6208,3.3952,0.0,0.0,0.0,0.0,0.0,0.0,0.0,0.0,0.0,0.0,0.0,0.0,0.0,0.0,0.0,0.0,0.0,0.0,0.0,5.0918,5.4955,5.81,5.9302,6.1163,6.1806,6.008,6.0013,6.0084,6.0095,5.9765,5.9565,5.9659,5.8849,5.9535,6.226,6.24,6.24,6.24,6.24,6.24,6.24,5.8532,5.659,5.659,5.5651,0.0,5.5179,5.5179,5.5179,5.5179,5.5179,5.3683,5.1206,5.1206,5.1206,5.0936,4.8327,4.7309,4.7309,4.7309,4.7309,4.7309,0.0,0.0,0.0,0.0,0.0,0.0,2.0781,2.1111,2.1885,2.3384,2.4758,2.6293,2.818,2.8721,2.9102,2.9456,2.8813,2.889,3.0016,3.1461,3.3964,3.7686,4.0345,4.2645,4.4505,4.6027,4.7143,4.7921,4.8646,4.9187,4.956,4.9932,5.0288,5.0676,5.1048,5.142,5.1776,5.2182,5.2351,5.2351,5.2351,5.1674,5.0626,4.9848,4.8646,4.7308,4.6936,4.5838,4.437,4.3267,4.1914,4.0379,3.8937,3.6648,3.4324,0.0,0.0,0.0,0.0,0.0,0.0,0.0,0.0,0.0,0.0,0.0,0.0,0.0,0.0,4.261,4.5176,0.0,5.1229,5.4548,5.7941,6.042,6.1148,6.2561,6.2919,6.1419,6.1231,6.125,6.1259,6.1042,6.1013,6.1227,6.056,6.0808,6.2313,6.24,6.24,6.24,6.0064,5.9957,6.2381,5.7598,5.5179,5.5179,5.5179,5.5179,5.5179,5.5179,5.5179,5.5179,5.5179,5.3683,5.1206,5.1206,5.1206,5.1056,4.974,4.8446,4.7309,4.7309,4.7309,4.7309,0.0,0.0,0.0,0.0,0.0,0.0,0.0,2.0683,2.1437,2.2494,2.347,2.4643,2.6124,2.626,2.6556,2.7317,2.7486,2.8678,3.1234,3.3637,3.6615,4.0371,4.2794,4.4776,4.6312,4.765,4.8394,4.8529,4.9729,5.0304,5.0338,5.0897,5.1269,5.1438,5.2013,5.2401,5.257,5.3213,5.3518,5.3518,5.3518,5.3518,5.3348,5.1945,5.098,5.0202,4.9492,4.8578,4.738,4.5466,4.4181,4.3085,4.1279,3.914,3.6953,3.5566,3.4009,0.0,0.0,0.0,0.0,0.0,0.0,0.0,0.0,3.7787,4.0324,4.1948,4.4093,4.6563,4.9526,5.1826,5.4414,5.8001,6.0238,6.179,6.2589,6.321,6.3216,6.2231,6.2279,6.24,6.24,6.24,6.24,6.24,6.24,6.24,6.24,6.24,6.24,6.24,5.7714,5.7063,6.0974,5.7158,5.5179,5.5179,5.5179,5.5179,5.5179,5.5179,5.5179,5.5149,5.464,5.3204,5.1206,5.1206,5.1206,5.1206,5.1206,4.989,4.7997,4.7489,4.7309,4.7309,0.0,0.0,0.0,0.0,0.0,0.0,0.0,0.0,2.0204,2.2112,2.2443,2.3105,2.4575,2.4745,2.5041,2.577,2.6454,2.8358,3.1955,3.4934,3.8171,4.1894,4.4871,4.7124,4.8612,4.9424,5.0168,5.0829,5.0998,5.1066,5.1066,5.1167,5.1539,5.2198,5.2266,5.2706,5.3382,5.345,5.3518,5.3518,5.3518,5.3518,5.3416,5.2503,5.1708,5.0964,5.0236,4.8646,4.6786,4.5872,4.4606,4.3355,4.3118,4.1068,3.8599,3.7753,3.596,3.4066,3.3243,3.3525,3.4167,3.4833,3.6185,3.7761,0.0,4.1258,4.3524,4.5703,4.7951,5.0387,5.3433,5.5243,5.7306,6.0419,6.1675,6.2623,6.3599,6.3789,6.316,6.1279,6.1873,6.24,6.24,6.24,6.24,6.24,6.24,6.24,6.24,6.24,6.24,6.24,5.7714,5.5451,5.6017,5.5451,5.5179,5.5179,5.5179,5.5179,5.5179,5.5179,5.5179,5.5059,5.2695,5.1475,5.1206,5.1206,5.1206,5.1206,5.1206,5.1026,5.0458,4.8177,4.7309,4.7309,0.0,0.0,0.0,0.0,0.0,0.0,0.0,0.0,1.9864,2.0851,2.1373,2.2063,2.3105,2.3207,2.368,2.4872,2.6023,2.8493,3.2689,3.6175,3.9728,4.3484,4.6481,4.8578,4.9627,5.0371,5.0897,5.1201,5.1607,5.1844,5.1844,5.2317,5.2689,5.301,5.301,5.3179,5.3518,5.3518,5.3518,5.3518,5.3518,5.3213,5.2739,5.1961,5.0389,4.8646,4.8781,4.7665,0.0,4.4282,4.3301,4.2625,4.1745,4.0641,3.9423,3.8261,3.6907,3.5667,3.4901,3.525,3.6107,3.728,3.9331,4.1495,4.3017,4.5384,4.78,4.9627,5.1454,5.3501,5.6039,5.7374,5.893,6.1501,6.2564,6.32,6.3606,6.3312,6.2382,6.0637,6.0547,6.1098,6.2299,6.24,6.24,6.24,6.24,6.24,6.24,5.974,5.9522,6.2322,5.7714,5.5179,5.5179,5.5179,5.5957,5.7453,5.5927,5.5179,5.5179,5.5179,5.5179,5.5029,5.2342,5.1206,5.1206,5.1206,5.1206,5.1206,5.1206,5.1206,5.1056,4.9949,4.9561,4.9351,0.0,0.0,0.0,0.0,0.0,0.0,0.0,0.0,0.0,0.0,2.0494,2.1245,2.2219,2.2313,2.2794,2.4101,2.5549,2.8213,3.251,3.6502,4.0358,4.4127,4.7124,4.9221,5.0371,5.093,5.1404,5.1844,5.2367,5.2638,5.2638,5.3247,5.3518,5.3518,5.3721,5.3687,5.3518,5.3721,5.3551,5.3179,5.3179,5.257,5.1589,5.066,4.8443,4.594,4.6466,4.5587,4.3829,4.1779,4.1068,4.0899,3.9829,3.9356,3.8996,3.7922,3.7224,3.6728,3.6321,3.711,3.8408,4.0134,4.2625,4.508,4.6805,4.9187,5.1454,5.2942,5.4126,5.5513,5.7527,5.8355,5.9438,6.1738,6.2539,6.2952,6.318,6.2246,6.0941,5.9266,5.8513,5.893,6.0945,6.1927,6.24,6.24,6.24,6.2773,6.3565,5.8963,5.7894,6.1371,5.8107,5.6286,5.6286,5.6286,5.7214,5.9069,5.7184,5.5897,5.5179,5.5179,5.5179,5.5029,5.2342,5.1206,5.1206,5.1206,5.1206,5.1206,5.1206,5.1206,5.1206,5.1206,5.1206,5.0936,0.0,0.0,0.0,0.0,0.0,0.0,0.0,0.0,0.0,0.0,0.0,2.0616,2.2144,2.2313,2.2624,2.3383,2.4789,2.7232,3.1021,3.5453,3.9568,4.3288,4.6331,4.8935,5.1133,5.1201,5.1911,5.345,5.345,5.345,5.345,5.3484,5.3518,5.3551,5.4262,5.416,5.3551,5.4262,5.3687,5.2334,5.2334,5.1454,5.0015,4.8563,4.6128,4.3524,4.3524,4.2124,4.0041,3.8519,3.8012,3.8024,3.799,3.7494,3.6897,3.6863,3.6829,3.6953,3.7652,3.9398,4.161,4.3856,4.6109,4.8326,5.0525,5.2249,5.3822,5.5293,5.5631,5.6105,5.7611,5.7934,5.866,6.096,6.1346,6.161,6.2327,6.0714,5.8749,5.6767,5.5649,5.5835,5.7832,6.0675,6.24,6.24,6.24,6.3632,6.6487,6.177,5.906,5.9191,5.906,5.8979,5.8979,5.8979,5.9009,5.9099,5.9009,5.7663,5.5179,5.5179,5.5179,5.5029,5.2342,5.1206,5.1206,5.1206,5.1206,5.1206,5.1206,5.1206,5.1206,5.1206,5.1206,5.1176,0.0,0.0,0.0,0.0,0.0,0.0,0.0,0.0,0.0,0.0,0.0,0.0,0.0,0.0,0.0,0.0,2.4297,2.6268,2.9517,3.3467,3.7077,4.0324,4.3842,4.6278,4.7515,4.8496,4.9273,4.9781,5.0777,5.1217,5.1251,5.1758,5.2216,5.2706,5.2976,5.3247,5.3484,5.3213,5.2503,5.1472,5.0507,4.8951,4.6955,4.4959,4.2049,3.8802,0.0,3.6591,3.6163,3.4686,3.4178,3.411,3.3592,3.3964,3.4742,3.5723,3.7077,3.8645,4.0358,4.2828,4.5432,4.768,4.9932,5.1945,5.3179,5.4262,5.509,5.5597,5.531,5.5277,5.6258,5.6055,5.6258,5.8017,5.8705,5.9314,6.0028,5.958,5.8515,5.6867,5.6359,5.6224,5.6427,5.8693,6.0337,6.0779,6.1797,6.2191,6.1745,6.0049,5.9099,5.9099,5.9099,5.9099,5.9099,5.9099,5.9099,5.9069,5.7334,5.6047,5.5179,5.5179,5.5179,5.5029,5.2342,5.1206,5.1206,5.1206,5.1206,5.1206,5.1206,5.1206,5.1206,5.1206,5.1206,5.1206,0.0,0.0,0.0,0.0,0.0,0.0,0.0,0.0,0.0,0.0,0.0,0.0,0.0,0.0,0.0,0.0,0.0,2.5151,2.7613,3.1021,3.4134,3.6874,4.0337,4.2658,4.366,4.4877,4.5756,4.6297,4.7259,4.8003,4.8545,4.9003,4.9627,5.0338,5.0608,5.0879,5.1082,5.0541,4.9593,4.8326,4.709,4.5128,4.2713,4.098,3.8171,0.0,3.2949,3.2161,3.2002,3.1336,3.1312,3.1437,3.0954,3.2171,3.41,3.5588,3.799,4.0675,4.2895,4.5703,4.8526,5.0744,5.2807,5.4431,5.4905,5.5378,5.5564,5.5023,5.389,5.3044,5.3264,5.2909,5.3179,5.4905,5.6258,5.7577,5.881,5.8776,5.8254,5.7306,5.6731,5.6266,5.5886,5.7375,5.8654,5.9357,6.0494,6.0674,5.9566,5.9243,5.9099,5.9099,5.9099,5.9099,5.9099,5.9099,5.862,5.7693,5.5987,5.5179,5.5179,5.5179,5.5179,5.5029,5.2342,5.1206,5.1206,5.1206,5.1206,5.1206,5.1206,5.1206,5.1325,5.2276,5.2013,5.1206,0.0,0.0,0.0,0.0,0.0,0.0,0.0,0.0,0.0,0.0,0.0,0.0,0.0,0.0,0.0,0.0,0.0,0.0,2.5398,2.8238,3.0842,3.3007,3.5915,3.8181,3.9623,4.0379,4.1461,4.2882,4.297,4.3761,4.5263,4.5283,4.5703,4.6496,4.7177,4.7143,4.6563,4.6496,4.5196,4.3118,4.2252,4.0189,3.7505,3.6716,3.4595,3.1887,3.0446,2.9016,2.7925,2.8696,2.9465,3.0166,3.0301,3.2341,3.499,3.6615,3.9694,4.3098,4.5399,4.8173,5.0947,5.3179,5.4786,5.58,5.5733,5.5597,5.509,5.3653,5.1488,4.9661,4.8951,4.8815,4.9526,5.1758,5.4042,5.6308,5.8573,5.8355,5.7967,5.7967,5.6711,5.5923,5.6184,5.6809,5.747,5.8213,5.8654,5.9241,6.0062,5.9471,5.9099,5.9099,5.9099,5.9099,5.9099,5.9099,5.7782,5.5179,5.5179,5.5179,5.5179,5.5179,5.5179,5.5059,5.2516,5.1325,5.1206,5.1265,5.1289,5.1312,5.1229,5.1265,5.1714,5.4251,5.3391,5.0977,0.0,0.0,0.0,0.0,0.0,0.0,0.0,0.0,0.0,0.0,0.0,0.0,0.0,0.0,0.0,0.0,0.0,0.0,2.3917,2.5702,2.7494,2.9142,3.1079,3.2499,3.3457,3.4178,3.5013,3.5949,3.7065,3.8091,3.9085,3.9614,4.0582,4.1833,4.2002,4.2577,4.3382,4.2266,4.1149,3.9918,3.7449,3.5396,3.3546,3.1684,3.0151,2.8813,2.7909,2.7663,2.7815,2.8027,2.9364,3.119,3.2848,3.5047,3.755,4.0134,4.3538,4.7075,4.9864,5.2807,5.5344,5.6494,5.707,5.7036,5.5936,5.438,5.2739,5.1251,4.8748,4.6752,4.6583,4.6075,4.6631,4.939,5.1725,5.416,5.6968,5.8152,5.8727,5.8727,5.8021,5.7595,5.7677,5.7157,5.7119,5.7856,5.8553,5.8764,5.8444,5.8827,5.9099,5.9099,5.9099,5.9099,5.9099,5.9099,5.7782,5.5179,5.5179,5.5179,5.5179,5.5179,5.5179,5.5149,5.4461,5.3054,5.1265,5.2276,5.2695,5.2581,5.158,5.2402,5.4251,5.494,5.195,4.7728,0.0,0.0,0.0,0.0,0.0,0.0,0.0,0.0,0.0,0.0,0.0,0.0,0.0,0.0,0.0,0.0,0.0,0.0,0.0,2.3985,2.4992,2.5837,2.7325,2.8315,2.8721,2.9474,3.0209,3.0934,3.1779,3.277,3.3874,3.4269,3.5103,3.6186,3.6186,3.6671,3.7359,3.6208,3.5295,0.0,0.0,3.0683,2.9204,2.7985,2.7232,2.6784,2.6387,2.7325,2.8973,2.992,3.1316,3.3095,3.5667,3.8024,4.0426,4.3416,4.6921,5.0389,5.3061,5.575,5.7881,5.8287,5.8118,5.734,5.5243,5.2976,5.0642,4.8188,4.5568,4.3639,4.3301,4.3179,4.4195,4.7496,5.0168,5.3112,5.6765,5.7812,5.8773,6.0328,5.8962,5.815,5.882,5.7869,5.7512,5.8303,5.8746,5.8796,5.8404,5.9117,5.9387,5.9099,5.9099,5.9099,5.9099,5.9099,5.8351,5.6885,5.5748,5.5179,5.5179,5.5179,5.5179,5.5179,5.4873,5.3913,5.2546,5.3032,5.3321,5.3435,5.2677,5.3535,5.5082,5.4199,5.1458,4.8316,0.0,0.0,0.0,0.0,0.0,0.0,0.0,0.0,0.0,0.0,0.0,0.0,0.0,0.0,0.0,0.0,0.0,0.0,0.0,0.0,2.3241,2.3241,2.4492,2.5161,2.5161,2.5778,2.6488,2.7215,2.7215,2.7959,2.9364,2.9364,2.9736,3.0446,3.0446,3.0523,3.0548,2.9828,2.9127,2.8459,2.7562,2.6438,2.5296,0.0,2.5262,2.5499,2.5803,2.7765,3.0572,3.2804,3.4235,3.5633,3.878,4.1318,4.3789,4.6786,5.0236,5.3518,5.5699,5.7829,5.9385,5.9077,5.8312,5.6826,5.3754,5.115,4.8391,4.4871,4.2252,4.046,3.9897,4.0324,4.1982,4.5737,4.8809,5.2286,5.6833,5.7334,5.8449,6.1761,5.9651,5.8428,5.9697,5.8781,5.8405,5.9174,5.9395,5.9458,5.9368,5.9825,5.9765,5.9129,5.9099,5.9099,5.9099,5.9099,5.9099,5.9069,5.6795,5.5538,5.5234,5.5375,5.5375,5.5179,5.4568,5.427,5.4142,5.368,5.365,5.3952,5.4046,5.4513,5.496,5.2944,5.1322,5.0047,0.0,0.0,0.0,0.0,0.0,0.0,0.0,0.0,0.0,0.0,0.0,0.0,0.0,0.0,0.0,0.0,0.0,0.0,0.0,0.0,0.0,2.2489,2.2726,2.2854,2.2854,2.2996,2.3436,2.4154,2.4154,2.4594,2.5455,2.5455,2.5854,2.6581,2.6581,2.6928,2.7444,2.6683,2.6311,2.6082,2.4695,2.4019,2.3714,2.3098,2.3613,0.0,2.6742,2.8982,3.136,3.3558,3.6039,3.8848,4.2469,4.5582,4.8443,5.1454,5.4532,5.7273,5.8896,6.0554,6.1375,5.9468,5.7515,5.5129,5.1495,4.8041,4.4838,4.232,3.9559,3.7697,3.8193,3.8396,3.9669,4.3389,4.6321,4.9776,5.4497,5.6496,5.8269,6.0489,6.0397,6.0075,5.9886,5.9762,5.9753,5.9904,6.0939,6.1338,6.0775,6.0328,5.979,5.9129,5.9099,5.9099,5.9099,5.9099,5.9099,5.9099,5.865,5.7304,5.5234,5.6295,5.6209,5.5179,5.5069,5.4704,5.4225,5.468,5.4566,5.4201,5.4765,5.5069,5.496,5.2944,5.0027,4.7239,0.0,0.0,0.0,0.0,0.0,0.0,0.0,0.0,0.0,0.0,0.0,0.0,0.0,0.0,0.0,0.0,0.0,0.0,0.0,0.0,0.0,2.2313,2.2313,2.2313,2.2313,2.2313,2.2455,2.2827,0.0,2.3004,2.3342,2.3342,2.3538,2.3876,2.3876,2.4079,2.4391,2.4045,2.3876,2.3808,2.3098,2.2827,2.2794,2.2422,2.3207,0.0,2.6556,2.8678,3.0954,3.3186,3.6197,3.966,4.343,4.6616,4.9661,5.3078,5.5872,5.842,6.0676,6.1835,6.2158,6.1037,5.7629,5.3392,4.898,4.5911,4.2997,3.9626,3.7449,3.6287,3.6625,3.7369,3.8959,4.2286,4.5574,4.8858,5.2146,5.5024,5.7465,5.9394,5.9697,5.9937,6.0431,6.0248,6.0243,6.0596,6.1415,6.1783,6.1637,6.0753,5.9891,5.9129,5.9099,5.9099,5.9099,5.9099,5.9099,5.9099,5.9099,5.8441,5.724,5.7126,5.6405,5.5179,5.5179,5.5014,5.4763,5.5069,5.4995,5.4665,5.4225,5.4513,5.4807,5.1487,4.859,4.6391,0.0,0.0,0.0,0.0,0.0,0.0,0.0,0.0,0.0,0.0,0.0,0.0,0.0,0.0,0.0,0.0,0.0,0.0,0.0,0.0,0.0,0.0,0.0,0.0,2.2313,0.0,0.0,2.2313,2.2313,0.0,0.0,0.0,0.0,0.0,2.2313,2.2313,2.2313,2.2313,2.2313,0.0,0.0,2.2313,2.2313,0.0,0.0,0.0,0.0,2.8069,3.0171,3.2229,3.5193,3.8657,4.2266,4.5974,4.9729,5.3484,5.6297,5.8697,6.1382,6.2391,6.2566,6.1932,5.7593,5.2177,4.7097,4.4108,4.1349,3.7371,3.5656,3.4934,3.5103,3.6253,3.8091,4.0899,4.4316,4.7445,4.984,5.301,5.5828,5.7899,5.8483,5.9203,6.0486,6.035,6.0448,6.1172,6.1717,6.2023,6.2002,6.109,6.0081,5.9129,5.9099,5.9099,5.9099,5.9099,5.9099,5.9099,5.9099,5.9099,5.9039,5.7992,5.6671,5.5179,5.5179,5.5179,5.5179,5.5179,5.5014,5.4623,5.3794,5.3794,5.3792,5.0282,4.7833,4.6301,0.0,0.0,0.0,0.0,0.0,0.0,0.0,0.0,0.0,0.0,0.0,0.0,0.0,0.0,0.0,0.0,0.0,0.0,0.0,0.0,0.0,0.0,0.0,0.0,0.0,0.0,0.0,2.2313,2.2313,0.0,0.0,0.0,0.0,0.0,0.0,2.2313,2.2313,2.2313,0.0,0.0,0.0,0.0,0.0,0.0,0.0,0.0,0.0,2.7721,2.9334,3.089,3.2957,3.5463,3.8522,4.3876,4.9729,5.3484,5.6648,5.9219,6.0641,6.2367,6.3092,6.037,5.6576,5.2123,4.6921,4.2441,3.8708,3.6209,3.4066,3.2791,3.3491,3.4269,3.5588,3.791,4.0632,4.3785,4.7625,5.0284,5.2765,5.5325,5.7081,5.8422,5.9212,5.9956,6.0738,6.1567,6.2475,6.2605,6.1754,6.1285,6.0421,5.9132,5.9099,5.9099,5.9099,5.9099,5.9099,5.9099,5.9099,5.9099,5.9099,5.8973,5.7566,5.5179,5.5179,5.5179,5.5179,5.5179,5.4403,5.3327,5.4513,5.3436,5.1049,5.0644,4.873,4.6301,0.0,0.0,0.0,0.0,0.0,0.0,0.0,0.0,0.0,0.0,0.0,0.0,0.0,0.0,0.0,0.0,0.0,0.0,0.0,0.0,0.0,0.0,0.0,0.0,0.0,0.0,2.2313,2.2313,2.2313,0.0,0.0,0.0,0.0,0.0,0.0,2.2313,2.2313,2.2313,0.0,0.0,0.0,0.0,0.0,0.0,0.0,0.0,0.0,0.0,2.8434,2.9514,3.1356,3.3533,3.5633,3.9377,4.4079,4.9593,5.3652,5.6896,5.9324,6.1021,6.1743,6.0214,5.5292,4.9443,4.4402,4.1027,3.8111,3.4923,3.322,3.2395,3.2689,3.3704,3.5092,3.6953,3.9613,4.2275,4.4625,4.8614,5.1555,5.2323,5.5548,5.7734,5.7884,5.8944,6.044,6.2416,6.2897,6.296,6.2548,6.1609,6.0482,5.9132,5.9099,5.9099,5.9099,5.9099,5.9099,5.9099,5.9099,5.9099,5.9099,5.9099,5.853,5.7453,5.5867,5.5179,5.5179,5.5179,5.4873,5.4209,5.2969,5.2879,5.2965,4.938,4.7302,4.6301,0.0,0.0,0.0,0.0,0.0,0.0,0.0,0.0,0.0,0.0,0.0,0.0,0.0,0.0,0.0,0.0,0.0,0.0,0.0,0.0,0.0,0.0,0.0,0.0,0.0,0.0,2.2313,2.2313,2.2505,2.2505,0.0,0.0,2.2505,2.2313,0.0,0.0,0.0,0.0,0.0,0.0,0.0,0.0,0.0,0.0,0.0,0.0,0.0,0.0,0.0,0.0,0.0,3.1219,3.2624,3.5035,3.871,4.5664,5.0178,5.3832,5.7871,5.946,5.9591,5.7877,5.2525,4.665,4.2706,3.9999,3.7427,3.4089,3.2655,3.1989,3.1989,3.3163,3.4675,3.6208,3.8937,4.1385,4.2895,4.7307,5.0493,5.083,5.4834,5.7594,5.7598,5.9227,6.1069,6.2959,6.3108,6.3108,6.3108,6.1451,6.0086,5.9132,5.9099,5.9099,5.9099,5.9099,5.9099,5.9099,5.9099,5.9099,5.9099,5.9099,5.9099,5.8949,5.6346,5.5179,5.5179,5.5179,5.4873,5.4057,5.1654,5.1458,5.2038,4.7833,4.6301,4.6301,0.0,0.0,0.0,0.0,0.0,0.0,0.0,0.0,0.0,0.0,0.0,0.0,0.0,0.0,0.0,0.0,0.0,0.0,0.0,0.0,0.0,0.0,0.0,0.0,0.0,0.0,2.2313,2.2313,2.3039,2.3039,2.232,2.3046,2.2998,2.2313,0.0,0.0,0.0,0.0,0.0,0.0,0.0,0.0,2.2388,0.0,0.0,0.0,0.0,0.0,0.0,0.0,0.0,0.0,0.0,3.1452,3.4939,4.244,4.6718,5.0356,5.6292,5.7931,5.6866,5.2382,4.7951,4.4228,4.2638,3.9457,3.6175,3.3863,3.2239,3.119,3.119,3.2408,3.3886,3.5363,3.8125,4.0878,4.3105,4.6289,4.9243,5.1423,5.5246,5.8001,5.8696,6.1371,6.3078,6.3108,6.3108,6.3108,6.3108,6.0565,5.9129,5.9099,5.9099,5.9099,5.9099,5.9099,5.9099,5.9099,5.9099,5.9099,5.9099,5.9099,5.9099,5.8949,5.6346,5.5179,5.5179,5.5179,5.4044,5.2133,5.1099,4.8958,4.6381,4.6326,4.6301,4.6301,0.0,0.0,0.0,0.0,0.0,0.0,0.0,0.0,0.0,0.0,0.0,0.0,0.0,0.0,0.0,0.0,0.0,0.0,0.0,0.0,0.0,0.0,0.0,0.0,0.0,0.0,0.0,0.0,2.2676,2.3054,2.3789,2.302,2.2505,2.2313,2.2313,2.2313,0.0,0.0,0.0,0.0,0.0,2.2313,2.232,0.0,0.0,0.0,0.0,0.0,0.0,0.0,0.0,0.0,0.0,0.0,0.0,3.4346,4.0066,4.6151,5.061,5.1806,5.0989,4.756,4.565,4.3924,4.1373,3.8282,3.5351,3.3095,3.1877,3.12,3.12,3.2408,3.3886,3.5363,3.7719,4.0303,4.3017,4.5489,4.7904,5.026,5.4153,5.7298,5.8858,6.0894,6.2401,6.3049,6.3108,6.3108,6.3108,6.0565,5.9099,5.9099,5.9099,5.9099,5.9099,5.9099,5.9099,5.9099,5.9099,5.9099,5.9099,5.9099,5.8784,5.8151,5.6989,5.5987,5.5039,5.2969,5.2969,5.381,4.9423,4.8074,4.8385,4.6878,4.7255,4.8335,0.0,0.0,0.0,0.0,0.0,0.0,0.0,0.0,0.0,0.0,0.0,0.0,0.0,0.0,0.0,0.0,0.0,0.0,0.0,0.0,0.0,0.0,0.0,0.0,0.0,0.0,0.0,0.0,0.0,0.0,2.492,2.4569,2.4093,2.3528,2.2676,2.2313,0.0,0.0,0.0,0.0,2.2313,2.2313,2.2313,0.0,0.0,0.0,0.0,0.0,0.0,0.0,0.0,0.0,0.0,0.0,0.0,0.0,3.392,3.9927,4.506,4.6073,4.4934,4.1959,4.1657,4.1441,3.8959,3.6524,3.4292,3.2621,3.1708,3.12,3.12,3.2408,3.3884,3.536,3.7745,4.0327,4.2889,4.5726,4.905,5.3157,5.595,5.8458,6.0745,6.1483,6.219,6.3019,6.2747,6.2506,6.2331,6.0266,5.9099,5.9099,5.9099,5.9099,5.9099,5.9099,5.9099,5.9099,5.9099,5.9099,5.9099,5.9099,5.8614,5.7754,5.7153,5.5815,0.0,5.2255,5.2339,5.3122,4.9423,4.8618,4.9314,4.7129,4.7179,4.8159,0.0,0.0,0.0,0.0,0.0,0.0,0.0,0.0,0.0,0.0,0.0,0.0,0.0,0.0,0.0,0.0,0.0,0.0,0.0,0.0,0.0,0.0,0.0,0.0,0.0,0.0,0.0,0.0,2.494,2.552,2.6212,0.0,2.7439,2.5736,2.3701,2.2602,0.0,0.0,0.0,0.0,2.2313,2.2313,0.0,0.0,0.0,0.0,0.0,0.0,0.0,0.0,0.0,0.0,0.0,0.0,0.0,0.0,0.0,0.0,0.0,4.0561,3.9097,3.6151,3.6558,3.729,3.5847,3.4393,0.0,3.2351,3.1674,3.1234,3.1258,3.2442,3.3869,3.5352,3.8122,4.0809,4.2796,4.6849,5.2016,5.8451,5.953,6.084,6.3537,6.2781,6.2385,6.3048,6.2233,6.1511,6.1072,5.9817,5.9099,5.9099,5.9099,5.9099,5.9099,5.9069,5.9039,5.9039,5.8982,5.8952,5.8949,5.8949,5.8465,5.7635,5.6839,5.4864,5.2285,5.2766,5.2006,5.0595,5.0423,4.9966,4.9113,4.7079,4.6301,4.6301,0.0,0.0,0.0,0.0,0.0,0.0,0.0,0.0,0.0,0.0,0.0,0.0,0.0,0.0,0.0,0.0,0.0,0.0,0.0,0.0,0.0,0.0,0.0,0.0,0.0,0.0,0.0,2.4283,2.919,3.171,3.1875,3.225,0.0,0.0,0.0,0.0,0.0,0.0,0.0,0.0,2.2313,2.2313,0.0,0.0,0.0,0.0,2.2313,2.276,0.0,0.0,0.0,0.0,0.0,0.0,0.0,0.0,2.7581,2.9116,3.1496,0.0,3.6199,3.4381,3.4503,3.5026,0.0,3.3615,3.2347,3.163,3.1336,3.1383,3.1931,3.2777,3.3878,3.5361,3.8139,4.095,4.3407,4.8434,5.2728,5.5195,5.7716,5.9948,6.1634,6.1988,6.2359,6.3048,6.221,6.1363,6.059,5.9624,5.9099,5.9099,5.9099,5.9099,5.9099,5.859,5.8324,5.8324,5.7802,5.759,5.7573,5.7573,5.7216,5.6551,5.6359,5.4959,5.2788,5.2501,5.1311,4.9474,4.7935,4.7213,4.7029,4.6502,4.6301,4.6301,0.0,0.0,0.0,0.0,0.0,0.0,0.0,0.0,0.0,0.0,0.0,0.0,0.0,0.0,0.0,0.0,0.0,0.0,0.0,0.0,0.0,0.0,0.0,0.0,0.0,0.0,0.0,0.0,0.0,3.3807,0.0,0.0,0.0,0.0,0.0,0.0,0.0,0.0,2.2313,2.2313,2.2313,0.0,0.0,0.0,0.0,0.0,2.2313,2.2313,0.0,2.5718,2.67,2.67,0.0,0.0,0.0,0.0,2.697,2.7403,2.7842,3.0373,3.2804,3.2481,3.3137,3.3668,3.3129,3.2374,3.1692,3.1292,3.12,3.1316,3.1715,3.2666,3.3651,3.4459,3.7575,4.1661,4.6689,5.179,5.5439,5.6658,5.924,6.1068,6.1519,6.2151,6.2718,6.3078,6.2061,6.1218,6.0751,5.9687,5.9099,5.9099,5.88,5.865,5.865,5.8264,5.7935,5.7663,5.7288,5.7086,5.7083,5.7098,5.6791,5.6156,5.5448,5.3909,5.1887,5.0902,4.9482,4.7814,4.6743,4.6301,4.6301,4.6301,4.6301,4.6301,0.0,0.0,0.0,0.0,0.0,0.0,0.0,0.0,0.0,0.0,0.0,0.0,0.0,0.0,0.0,0.0,0.0,0.0,0.0,0.0,0.0,0.0,0.0,0.0,0.0,0.0,0.0,0.0,0.0,0.0,0.0,0.0,0.0,0.0,0.0,0.0,0.0,0.0,2.2313,2.2313,2.2313,0.0,0.0,0.0,0.0,0.0,0.0,0.0,0.0,2.5718,2.67,2.67,2.67,0.0,0.0,0.0,0.0,0.0,2.67,2.792,2.9569,3.0881,3.2476,3.3355,3.1999,3.1529,3.1461,3.153,3.1477,3.1485,3.1624,3.2598,3.3478,3.3709,3.7906,4.356,5.0469,5.4867,5.7971,5.9442,6.1466,6.2547,6.2115,6.2718,6.3078,6.2958,6.1792,6.1074,6.0954,5.9787,5.9069,5.8949,5.8384,5.7995,5.7786,5.7786,5.7513,5.6944,5.6855,5.6806,5.6799,5.6806,5.6541,5.5957,5.4419,5.2599,5.0573,4.9191,4.7688,4.6301,4.6301,4.6301,4.6301,4.6301,4.6301,4.6301,0.0,0.0,0.0,0.0,0.0,0.0,0.0,0.0,0.0,0.0,0.0,0.0,0.0,0.0,0.0,0.0,0.0,0.0,0.0,0.0,0.0,0.0,0.0,0.0,0.0,0.0,0.0,0.0,0.0,0.0,3.3844,3.667,3.5011,0.0,0.0,0.0,0.0,0.0,2.2313,2.2313,2.2313,0.0,0.0,0.0,0.0,0.0,0.0,0.0,0.0,2.5718,2.67,2.67,2.67,0.0,0.0,0.0,0.0,0.0,2.67,2.6911,2.78,3.0523,3.3243,3.499,3.3967,3.3085,3.258,3.2994,3.2757,3.2742,3.3582,3.3538,3.3796,3.5055,4.2313,4.8679,5.1148,5.388,5.628,5.8159,6.0147,6.1567,6.206,6.2718,6.2868,6.2301,6.1553,6.0864,6.0266,5.9518,5.886,5.8264,5.8145,5.7603,5.6492,5.6492,5.6432,5.6342,5.5773,5.5508,5.5487,5.5508,5.5423,5.5291,5.3772,5.2208,5.0616,4.9576,4.8052,4.6301,4.6301,4.6301,4.6301,4.6301,4.6301,4.6301,0.0,0.0,0.0,0.0,0.0,0.0,0.0,0.0,0.0,0.0,0.0,0.0,0.0,0.0,0.0,0.0,0.0,0.0,0.0,0.0,0.0,0.0,0.0,0.0,0.0,0.0,0.0,0.0,0.0,3.325,3.645,3.6193,3.3543,2.8817,0.0,0.0,0.0,0.0,2.2313,2.2313,0.0,0.0,0.0,0.0,0.0,0.0,0.0,0.0,0.0,0.0,2.5372,2.67,2.67,0.0,0.0,0.0,0.0,0.0,2.67,2.6702,2.7793,3.2441,3.4596,3.5487,3.5045,3.4596,3.4098,3.3509,3.2592,3.2042,3.2486,3.5003,3.9348,4.6476,5.2109,5.5291,5.4502,5.7479,5.976,5.9617,6.1412,6.2539,6.2147,6.2361,6.2421,6.2121,6.1134,6.0416,6.0144,5.9129,5.8414,5.8115,5.7423,5.6765,5.6222,5.5833,5.5683,5.5653,5.5329,5.5179,5.5179,5.5179,5.4781,5.3934,5.2411,5.0878,4.9402,4.8201,4.7116,4.6301,4.6301,4.6301,4.6301,4.6301,4.6301,4.6301,0.0,0.0,0.0,0.0,0.0,0.0,0.0,0.0,0.0,0.0,0.0,0.0,0.0,0.0,0.0,0.0,0.0,0.0,0.0,0.0,0.0,0.0,0.0,0.0,0.0,0.0,3.0656,3.0539,3.3483,3.6229,3.8615,3.5349,3.2075,0.0,0.0,0.0,0.0,0.0,2.2313,2.2313,0.0,0.0,0.0,0.0,0.0,0.0,0.0,0.0,0.0,0.0,0.0,0.0,0.0,0.0,0.0,2.67,2.67,2.6869,2.7579,2.7753,2.9022,3.4285,3.56,3.578,3.649,3.6659,3.622,3.4768,3.3274,3.2238,3.2226,3.8838,4.7068,5.5662,5.9098,5.9956,5.7807,6.0596,6.2434,6.1303,6.2293,6.2774,6.1965,6.1882,6.1792,6.1642,6.0535,5.9787,5.9638,5.853,5.7786,5.7636,5.6705,5.6132,5.5983,5.5474,5.5179,5.5179,5.5179,5.5179,5.5179,5.5179,5.4396,5.2904,5.1347,4.9849,4.8395,4.6909,4.6301,4.6301,4.6301,4.6301,4.6301,4.6301,4.6301,4.6301,0.0,0.0,0.0,0.0,0.0,0.0,0.0,0.0,0.0,0.0,0.0,0.0,0.0,0.0,0.0,0.0,0.0,0.0,0.0,0.0,0.0,0.0,0.0,0.0,0.0,3.4596,3.5522,3.5011,3.7243,3.8469,3.8615,3.5349,3.2075,2.8871,0.0,0.0,0.0,2.2313,2.2313,2.2313,2.2313,0.0,0.0,0.0,0.0,0.0,0.0,0.0,0.0,0.0,0.0,0.0,0.0,0.0,2.67,2.67,2.67,2.7309,3.0117,3.089,3.1628,3.4822,3.56,3.6321,3.9153,3.9774,3.9365,3.7889,3.6343,3.5272,3.5288,4.6961,5.6133,5.4708,5.7609,5.9968,5.9698,6.0059,6.0751,6.18,6.1008,6.0586,6.1134,6.1166,6.0924,6.0294,5.9578,5.8919,5.8264,5.7573,5.6915,5.6342,5.6252,5.5893,5.5269,5.5209,5.5179,5.5179,5.5179,5.5179,5.5179,5.5179,5.441,5.2912,5.1373,4.9852,4.8389,4.6921,4.6301,4.6301,4.6301,4.6301,4.6301,4.6301,4.6301,4.6301,0.0,0.0,0.0,0.0,0.0,0.0,0.0,0.0,0.0,0.0,0.0,0.0,0.0,0.0,0.0,0.0,0.0,0.0,0.0,0.0,0.0,0.0,0.0,3.1102,3.1688,3.5694,3.7375,3.6512,3.9984,4.0671,3.8615,3.5349,0.0,0.0,0.0,0.0,2.2313,2.2313,2.2313,2.2313,2.2313,2.2313,0.0,0.0,0.0,0.0,0.0,0.0,0.0,0.0,2.3504,2.5236,2.6361,2.67,2.67,2.67,2.67,2.7376,3.0378,3.12,3.1901,3.4867,3.56,3.6389,3.9423,4.1568,4.3254,4.453,4.4346,4.3914,4.3934,5.0551,5.6131,5.6445,5.9309,6.153,6.1643,6.2835,6.3282,6.2136,6.195,6.1676,6.1158,6.0715,6.0206,5.9518,5.886,5.8201,5.7513,5.6885,5.6432,5.6222,5.5803,5.5474,5.5179,5.5179,5.497,5.4581,5.4581,5.4581,5.4581,5.4581,5.3246,5.0948,5.0767,4.9341,4.7107,4.652,4.6301,4.6301,4.6301,4.6301,4.6301,4.6301,4.6301,4.6301,0.0,0.0,0.0,0.0,0.0,0.0,0.0,0.0,0.0,0.0,0.0,0.0,0.0,0.0,0.0,0.0,0.0,0.0,0.0,0.0,0.0,0.0,0.0,2.8589,3.0987,3.4812,3.7066,3.7618,4.1543,4.1306,3.711,0.0,0.0,0.0,0.0,2.415,2.3673,2.3673,2.3166,2.2313,2.2313,2.2313,0.0,0.0,0.0,0.0,0.0,0.0,0.0,0.0,2.5033,2.67,2.67,2.67,2.67,2.67,2.7376,2.8561,3.0649,3.12,3.1901,3.4867,3.6321,3.7821,4.0811,4.3822,4.6834,4.9796,5.0439,5.027,4.9781,5.2807,5.5852,5.7306,6.008,6.2326,6.3194,6.441,6.4514,6.2536,6.2347,6.187,6.0614,5.9877,5.9279,5.883,5.7992,5.7304,5.6825,5.6042,5.5564,5.5564,5.4935,5.4576,5.4576,5.4576,5.4341,5.3892,5.3683,5.3683,5.3868,5.3411,5.194,4.9693,4.972,4.8433,4.6301,4.6301,4.6301,4.6301,4.6301,4.6301,4.6301,4.6301,4.6301,4.6301,0.0,0.0,0.0,0.0,0.0,0.0,0.0,0.0,0.0,0.0,0.0,0.0,0.0,0.0,0.0,0.0,0.0,0.0,0.0,0.0,0.0,0.0,0.0,2.6062,3.0063,3.1783,3.4612,3.8681,4.1874,4.0141,3.3807,3.3807,0.0,0.0,0.0,0.0,2.67,2.67,2.5,2.2354,2.2354,2.2354,2.2354,0.0,0.0,0.0,0.0,0.0,0.0,0.0,2.67,2.67,2.67,2.67,2.67,2.6733,2.8865,3.12,3.12,3.12,3.1901,3.4867,3.7855,4.0891,4.3938,4.6902,4.9864,5.2909,5.3518,5.3044,5.1505,5.4059,5.6494,5.6765,5.9336,6.2081,6.4301,6.4155,6.3635,6.3075,6.1845,6.048,5.9204,5.8474,5.8085,5.8055,5.6885,5.6192,5.6162,5.491,5.4192,5.4192,5.3533,5.3198,5.3198,5.3198,5.3198,5.3198,5.2516,5.2546,5.315,5.172,5.0599,4.961,4.8283,4.7166,4.6271,4.6301,4.6301,4.6301,4.6301,4.6301,4.6301,4.6301,4.6301,4.6301,0.0,0.0,0.0,0.0,0.0,0.0,0.0,0.0,0.0,0.0,0.0,0.0,0.0,0.0,0.0,0.0,0.0,0.0,0.0,0.0,0.0,0.0,0.0,0.0,0.0,0.0,3.5172,3.8681,3.9644,3.7947,0.0,0.0,0.0,3.2369,0.0,0.0,2.67,2.67,2.6192,2.5406,2.5406,2.5406,2.5406,0.0,0.0,0.0,0.0,0.0,0.0,0.0,0.0,0.0,2.67,2.67,2.7106,2.9237,3.049,3.12,3.12,3.12,3.1901,3.4867,3.7855,4.142,4.6515,4.8376,5.0439,5.5547,5.4938,5.3686,5.426,5.4904,5.5823,5.733,6.0094,6.2566,6.3936,6.4542,6.5051,6.5619,6.2646,5.9939,5.8357,5.7723,5.7034,5.6137,5.5688,5.5085,5.4127,5.3707,5.3503,5.3503,5.3318,5.3198,5.3198,5.3198,5.2959,5.2486,5.2306,5.2306,5.2438,5.1079,4.972,4.8399,4.7508,4.6337,4.516,4.5965,4.6301,4.6301,4.6301,4.6301,4.6301,4.6301,4.6301,4.6301,0.0,0.0,0.0,0.0,0.0,0.0,0.0,0.0,0.0,0.0,2.4194,0.0,0.0,0.0,0.0,0.0,0.0,0.0,0.0,0.0,0.0,0.0,0.0,0.0,0.0,2.9913,3.3506,0.0,0.0,0.0,0.0,0.0,0.0,3.3844,0.0,3.306,2.8425,2.7207,2.67,2.67,2.67,2.67,2.67,0.0,0.0,0.0,0.0,0.0,0.0,0.0,0.0,0.0,2.67,2.67,2.7275,3.0311,3.12,3.12,3.12,3.207,3.366,3.6637,3.966,4.345,4.9424,5.1691,5.3551,5.7155,5.6494,5.5516,5.642,5.6065,5.615,5.7637,5.9748,6.1692,6.311,6.3795,6.422,6.446,6.2199,5.9735,5.7509,5.6705,5.6017,5.5239,5.4725,5.4067,5.3258,5.2959,5.2785,5.2785,5.2546,5.2396,5.2396,5.2396,5.2187,5.1798,5.1798,5.1798,5.1726,4.9837,4.8588,4.7823,4.6557,4.5387,4.4467,4.5116,4.5771,4.6301,4.6301,4.6301,4.6301,4.6301,4.6301,4.6301,0.0,0.0,0.0,0.0,0.0,0.0,0.0,0.0,0.0,0.0,2.4218,2.4228,0.0,0.0,0.0,0.0,0.0,0.0,0.0,0.0,0.0,0.0,0.0,0.0,0.0,0.0,0.0,0.0,0.0,0.0,0.0,0.0,3.3954,3.4394,0.0,3.6004,3.1223,2.8064,2.67,2.67,2.67,2.67,2.67,2.67,0.0,0.0,0.0,0.0,0.0,0.0,0.0,0.0,2.67,2.6903,2.7647,3.0388,3.12,3.12,3.12,3.3345,3.6389,3.9694,4.2976,4.6834,5.2266,5.5581,5.7595,5.7832,5.79,5.79,5.79,5.7426,5.7241,5.7884,5.8863,6.0231,6.211,6.24,6.2091,6.1235,6.0725,5.9347,5.6483,5.5508,5.5029,5.491,5.3797,5.3049,5.2905,5.2336,5.2007,5.1947,5.1349,5.1026,5.1026,5.1026,5.1026,5.1026,5.1026,5.1056,5.1016,4.8336,4.7217,4.7345,4.5322,4.4303,4.4011,4.4007,4.4792,4.6024,4.6115,4.6215,4.6301,4.6301,4.6301,4.6301,0.0,0.0,0.0,0.0,0.0,0.0,0.0,0.0,0.0,0.0,0.0,0.0,0.0,0.0,0.0,0.0,0.0,0.0,0.0,0.0,0.0,0.0,0.0,0.0,0.0,0.0,0.0,0.0,0.0,0.0,0.0,0.0,0.0,3.7698,0.0,3.6675,3.2964,2.8551,2.67,2.67,2.67,2.67,2.67,2.67,2.67,0.0,0.0,0.0,0.0,0.0,0.0,0.0,2.67,2.8324,3.0354,3.0997,3.12,3.12,3.12,3.3345,3.6896,4.23,4.7646,5.1928,5.3213,5.3991,5.5108,5.7426,5.79,5.79,5.79,5.8418,5.8799,5.8762,5.9787,6.1017,6.2226,6.24,6.2346,6.2137,5.8746,5.5789,5.4056,5.4067,5.3803,5.2905,5.2576,5.1947,5.0907,5.0727,5.0398,4.9935,4.9786,4.9726,4.9726,4.9726,4.9726,4.9726,4.9726,4.9942,5.0335,4.8113,4.5979,4.403,4.3548,4.3291,4.3259,4.3249,4.3425,4.3812,4.463,4.5494,4.6301,4.6301,4.6301,4.6301,0.0,0.0,0.0,0.0,0.0,0.0,0.0,0.0,0.0,0.0,0.0,0.0,0.0,0.0,0.0,0.0,0.0,0.0,0.0,0.0,0.0,0.0,0.0,0.0,0.0,0.0,0.0,0.0,0.0,0.0,0.0,0.0,0.0,3.8615,0.0,3.4947,3.2295,2.8371,2.67,2.67,2.67,2.67,2.67,2.67,2.67,2.67,2.67,0.0,0.0,0.0,0.0,0.0,0.0,0.0,3.12,3.12,3.12,3.1505,3.2905,3.5487,3.9546,4.6989,5.1183,5.3518,5.3518,5.3518,5.4059,5.6055,5.6833,5.7171,5.7171,5.7991,5.8658,5.8486,5.9028,5.9644,6.0182,6.0268,6.0776,6.2231,5.6996,5.3025,5.2306,5.2456,5.2366,5.1768,5.1415,5.0787,4.9823,4.9763,4.9613,4.9307,4.9277,4.9277,4.9277,4.9277,4.9277,4.9277,4.9277,4.8781,4.7855,4.734,4.5608,4.3014,4.3014,4.3014,4.3014,4.3014,4.3162,4.3429,4.3986,4.4636,4.5324,4.6015,4.6301,4.6301,0.0,0.0,0.0,0.0,0.0,0.0,0.0,0.0,0.0,0.0,0.0,0.0,0.0,0.0,0.0,0.0,0.0,0.0,0.0,0.0,0.0,0.0,0.0,0.0,0.0,0.0,0.0,0.0,0.0,0.0,0.0,0.0,0.0,3.7727,0.0,3.2993,3.1423,2.81,2.67,2.67,2.67,2.67,2.6767,2.7275,0.0,2.7478,2.7478,2.7478,2.7478,2.7478,0.0,0.0,0.0,0.0,3.12,3.12,3.12,3.1833,3.4788,3.8193,4.2773,5.0744,5.3112,5.3518,5.3518,5.3518,5.3721,5.4499,5.5446,5.6172,5.6274,5.707,5.7712,5.7712,5.7832,5.79,5.79,5.79,5.8847,6.1351,5.5457,5.1206,5.1206,5.1206,5.1146,5.0996,5.0338,4.968,4.9157,4.9127,4.9067,4.8947,4.8947,4.8947,4.8947,4.8947,4.8947,4.8947,4.8835,4.7521,4.5164,4.6065,4.5076,4.2713,4.2713,4.2758,4.2855,4.2861,4.3184,4.3654,4.3669,4.3756,4.4061,4.5288,4.5723,4.5723,0.0,0.0,0.0,0.0,0.0,0.0,0.0,0.0,0.0,0.0,2.464,2.4621,0.0,0.0,0.0,0.0,0.0,0.0,2.5157,0.0,0.0,2.4194,2.6864,0.0,0.0,0.0,0.0,0.0,0.0,2.8981,2.906,3.2295,3.4027,3.4431,0.0,3.3662,3.3147,2.8623,2.67,2.67,2.67,2.67,2.7004,0.0,0.0,3.0591,3.0591,3.0591,3.0591,3.0591,3.0591,0.0,0.0,0.0,3.12,3.12,3.12,3.1833,3.4788,3.9715,4.4905,4.8646,5.1589,5.3518,5.3518,5.3518,5.3551,5.3653,5.4431,5.5243,5.5699,5.6427,5.6934,5.6934,5.7476,5.79,5.79,5.79,5.8069,5.8441,5.4167,5.1206,5.1206,5.1206,5.0877,5.0129,4.9291,4.8716,4.8468,4.8438,4.8169,4.7578,4.7578,4.7578,4.7578,4.7578,4.7578,4.7557,4.7053,4.5964,4.4431,4.4069,4.3023,4.1528,4.1528,4.1818,4.2298,4.2301,4.2612,4.3112,4.3092,4.3115,4.3159,4.3363,4.3441,4.3441,0.0,0.0,0.0,0.0,0.0,0.0,0.0,0.0,0.0,0.0,0.0,2.487,0.0,0.0,0.0,2.5305,2.5305,2.5135,2.4704,2.4393,2.4194,2.4194,2.7262,2.8981,0.0,0.0,0.0,0.0,2.8981,2.9904,3.1708,3.3146,3.4798,3.6486,3.4614,3.327,3.2252,3.1145,3.0105,2.9228,2.9228,2.9228,2.9373,0.0,0.0,0.0,0.0,3.12,3.12,3.12,3.12,3.12,3.12,0.0,0.0,0.0,3.12,3.1833,3.4788,3.8768,4.3179,4.7834,4.9999,5.142,5.3112,5.3518,5.3518,5.3518,5.3822,5.4329,5.4972,5.5683,5.6172,5.6172,5.6475,5.6761,5.7018,5.6404,5.5509,5.4295,5.2418,5.1206,5.1206,4.986,4.8865,4.8476,4.8536,4.8356,4.7758,4.7728,4.7608,4.7309,4.7309,4.7309,4.7309,4.7309,4.7309,4.7287,4.5585,4.4437,4.3798,4.21,4.1307,4.1302,4.1302,4.1447,4.1713,4.2063,4.2349,4.2587,4.2889,4.3014,4.3014,4.3014,4.3014,4.3014,0.0,0.0,0.0,0.0,0.0,0.0,0.0,0.0,0.0,0.0,0.0,0.0,0.0,0.0,0.0,0.0,2.5305,2.5086,2.4522,2.5293,2.5676,2.5411,2.7703,2.8981,2.8981,0.0,0.0,2.8981,2.8981,3.0644,3.3807,3.4651,3.678,3.979,3.6486,3.431,3.3099,3.314,3.2391,3.12,3.12,3.12,0.0,0.0,0.0,0.0,0.0,3.12,3.12,3.12,3.12,3.12,3.12,3.12,0.0,0.0,0.0,3.1664,3.3886,3.6671,4.0202,4.5432,4.7293,4.8612,5.1352,5.2164,5.2536,5.3078,5.3197,5.3416,5.4194,5.4938,5.5428,5.5428,5.5595,5.5829,5.6155,5.4944,5.3291,5.1332,5.0584,5.0189,5.0189,4.8424,4.7309,4.7309,4.7908,4.7997,4.7339,4.7309,4.7309,4.7309,4.7309,4.7309,4.7309,4.7309,4.7309,4.7287,4.5047,4.3811,4.3432,4.1194,4.0436,4.0901,4.0901,4.0976,4.1125,4.1586,4.1943,4.224,4.2642,4.2891,4.3014,4.3014,4.3014,4.2765,0.0,0.0,0.0,0.0,0.0,0.0,0.0,0.0,0.0,0.0,0.0,0.0,0.0,0.0,2.5305,2.5305,2.5305,2.5295,2.5268,2.8266,2.968,2.8781,2.8908,0.0,2.8981,0.0,2.8981,2.8981,2.8981,3.0644,3.388,3.7,4.0157,4.3102,3.9863,3.8386,3.8011,3.3331,3.1298,3.12,3.12,3.12,3.12,3.12,3.12,3.12,3.12,3.12,3.12,3.12,3.12,3.12,3.12,3.12,3.12,0.0,0.0,0.0,3.1403,3.3582,3.6591,3.9762,4.2719,4.5345,4.7376,4.8545,4.983,5.1928,5.2353,5.2606,5.3416,5.416,5.4668,5.4668,5.5225,5.5733,5.5733,5.4151,5.243,5.0973,4.8858,4.7519,4.7519,4.7399,4.7309,4.7309,4.7339,4.7369,4.7309,4.7309,4.7309,4.7309,4.7309,4.7309,4.7309,4.7309,4.7309,4.7287,4.5936,4.4651,4.3456,4.2108,4.087,3.9772,3.9772,4.0074,4.0524,4.0575,4.1232,4.2198,4.2223,4.2544,4.3014,4.3014,4.3014,4.2125,0.0,0.0,0.0,0.0,0.0,0.0,0.0,0.0,0.0,0.0,0.0,0.0,0.0,2.5305,2.5121,2.4625,2.5014,2.6228,2.8423,2.9161,2.9346,2.8998,2.8981,2.8981,2.8981,2.8981,2.8981,2.8981,2.8981,3.0644,3.388,3.714,3.9313,4.0377,3.9203,3.8681,3.8507,3.5332,3.2949,3.12,3.12,3.12,3.12,3.12,3.2374,3.4021,3.4021,3.4021,3.4021,3.4021,3.4021,3.4021,3.4021,3.4021,3.3649,3.1765,3.12,3.1596,3.3514,3.4799,3.5847,3.693,3.9491,4.2414,4.5041,4.638,4.765,4.9763,5.0544,5.1104,5.1864,5.3061,5.389,5.389,5.4126,5.4279,5.4279,5.3119,5.1642,5.0016,4.834,4.7309,4.7309,4.7309,4.7309,4.7309,4.7309,4.692,4.6052,4.683,4.692,4.6052,4.686,4.7309,4.7309,4.7309,4.7309,4.7287,4.5184,4.3952,4.3432,4.1344,4.0134,3.9697,3.9697,3.9798,4.0023,4.0375,4.0828,4.1358,4.1838,4.2416,4.3014,4.3014,4.3,4.2094,0.0,0.0,0.0,0.0,0.0,0.0,0.0,0.0,0.0,0.0,0.0,0.0,0.0,0.0,2.6708,2.5896,2.6251,2.7512,2.9787,2.9341,2.8981,2.8981,2.8981,2.8981,2.8981,2.8981,2.8981,2.8981,3.0087,3.1708,3.3844,3.6046,3.7661,3.8681,3.8681,3.8681,3.8572,3.6484,3.4461,3.2577,3.1596,3.1799,3.2679,3.2679,3.3886,3.56,3.56,3.56,3.56,3.56,3.56,3.56,3.56,3.56,3.5194,3.3243,3.2679,3.3108,3.5059,3.56,3.5667,3.6017,3.7753,4.0066,4.2841,4.4139,4.5428,4.7785,4.8643,4.9388,5.0614,5.1676,5.2503,5.301,5.3315,5.3518,5.3518,5.2575,5.1359,4.986,4.8272,4.7309,4.7309,4.7309,4.713,4.6651,4.677,4.636,4.5161,4.6091,4.6232,4.5334,4.6172,4.6621,4.6621,4.686,4.6958,4.6937,4.5024,4.3905,4.3432,4.1294,4.0109,3.9697,3.9697,3.9697,3.9722,4.0099,4.0454,4.0862,4.1349,4.2123,4.3014,4.3014,4.1608,3.9195,0.0,0.0,0.0,0.0,0.0,0.0,0.0,0.0,0.0,0.0,0.0,0.0,0.0,0.0,0.0,2.9089,2.9015,2.9021,2.8987,2.8981,2.8981,2.8981,2.8981,2.9054,2.9133,2.9133,2.9133,2.9133,3.2259,3.3807,3.3807,3.3807,3.5495,3.8571,3.8571,3.8511,3.8363,3.6419,3.56,3.5329,3.2476,3.3041,3.56,3.56,3.5667,3.5735,3.5735,3.5735,3.5735,3.5735,3.5735,3.5701,3.5667,3.5633,3.56,3.56,3.56,3.56,0.0,0.0,0.0,3.6806,3.7449,3.8451,4.0629,4.1673,4.3036,4.6061,4.6685,4.7339,4.9572,4.9981,5.0489,5.1961,5.2909,5.345,5.345,5.2541,5.1539,5.0512,4.8584,4.7301,4.7279,4.7279,4.6741,4.5424,4.5723,4.5601,4.4718,4.5042,4.5244,4.5304,4.5274,4.5274,4.5304,4.5942,4.6271,4.6279,4.5615,4.4674,4.3456,4.2157,4.0869,3.9697,3.9697,3.9697,3.9697,3.9697,4.0131,4.0772,4.0797,4.1597,4.2737,4.2824,3.886,3.3386,0.0,0.0,0.0,0.0,0.0,0.0,0.0,0.0,0.0,0.0,0.0,0.0,0.0,0.0,0.0,2.901,2.9602,2.9708,2.9044,2.8981,2.8981,2.8981,2.8981,3.0087,3.2406,3.2479,3.2479,3.2479,3.3366,3.3807,3.3807,3.3807,3.4284,3.5165,3.5165,3.4442,3.3385,3.4945,3.56,3.5532,3.4698,3.4867,3.56,3.56,3.693,3.8848,3.8848,3.8848,3.8848,3.8848,3.8848,3.8611,3.7144,3.6186,3.56,3.56,3.56,3.56,3.56,0.0,0.0,0.0,0.0,0.0,3.8565,3.9374,4.0616,4.3037,4.3532,4.4244,4.6515,4.7363,4.8222,4.9661,5.1454,5.2638,5.2638,5.2208,5.1539,5.0512,4.9226,4.7932,4.6685,4.657,4.636,4.5843,4.5334,4.4655,4.3758,4.3798,4.4296,4.5274,4.4825,4.4825,4.5304,4.5484,4.5822,4.6279,4.4253,4.3394,4.3432,4.1219,4.0032,3.9697,3.9697,3.9697,3.9697,3.9697,3.9825,4.0079,4.086,3.908,3.634,3.8676,3.6935,3.3386,0.0,0.0,0.0,0.0,0.0,0.0,0.0,0.0,0.0,0.0,0.0,0.0,0.0,0.0,0.0,0.0,3.1505,3.1597,3.1054,3.1011,3.1011,3.1011,3.1011,3.1892,3.377,3.3807,3.3807,3.3807,3.3807,3.3807,3.3807,3.3807,3.3807,3.3807,3.3807,3.3248,3.2432,3.4654,3.56,3.56,3.56,3.56,3.5735,3.6997,3.8577,4.0113,4.0113,4.0925,4.1805,4.0519,3.9829,3.9254,3.7867,3.7043,3.649,3.6186,3.6096,3.6028,3.5701,3.56,3.56,3.56,0.0,0.0,3.728,3.7765,3.8623,4.0515,4.1167,4.1967,4.3926,4.4874,4.5872,4.7394,4.8951,5.0439,5.1691,5.1359,5.0659,4.9646,4.8628,4.7446,4.6038,4.5882,4.5723,4.5334,4.4825,4.4177,4.3319,4.329,4.3668,4.4436,4.4087,4.4057,4.4446,4.4748,4.5078,4.5442,4.3443,4.2715,4.3027,4.0741,3.9697,3.9697,3.9697,3.9697,3.9697,3.9697,3.9697,3.9797,4.0881,3.8047,3.3623,3.5516,3.502,3.3386,0.0,0.0,0.0,0.0,0.0,0.0,0.0,0.0,0.0,0.0,0.0,0.0,0.0,0.0,0.0,0.0,3.3807,3.3807,3.3807,3.3807,0.0,0.0,0.0,0.0,3.3807,3.3807,3.3807,3.3807,3.3807,3.399,3.4357,3.4357,3.4357,3.4357,3.4357,3.4217,3.4083,3.5157,3.56,3.56,3.56,3.5802,3.6389,3.9085,4.0113,4.0146,4.0485,4.2313,4.4175,4.1264,3.9592,3.8667,3.8181,3.7978,3.7787,3.7122,3.6931,3.6773,3.605,3.5847,3.5859,3.5847,3.5847,0.0,3.6648,3.6795,3.7156,3.8476,3.9288,4.0168,4.1657,4.2557,4.3524,4.508,4.6007,4.7564,5.0423,5.0059,4.9164,4.8171,4.722,4.6209,4.5168,4.5065,4.4825,4.4237,4.4177,4.3938,4.3319,4.329,4.329,4.329,4.329,4.329,4.329,4.3908,4.4238,4.4276,4.2933,4.2361,4.2433,4.0483,3.9647,3.9697,3.9697,3.9697,3.9697,3.9697,3.9697,3.9821,4.0928,3.8209,3.3666,3.3851,3.3733,3.3386,0.0,0.0,0.0,0.0,0.0,0.0,0.0,0.0,0.0,0.0,0.0,0.0,0.0,0.0,0.0,0.0,0.0,3.3807,0.0,0.0,0.0,0.0,0.0,3.3807,3.3807,3.3807,3.3807,3.3807,3.3807,3.5165,3.7727,3.7727,3.7727,3.7727,3.7727,3.6794,3.5263,3.5506,3.56,3.56,3.56,3.7031,3.9288,3.9876,4.0113,4.0417,4.2855,4.4107,4.4262,4.2063,4.0641,3.9694,3.9017,3.8396,3.7877,3.7719,3.7701,3.7657,3.7506,3.7452,3.7442,3.7472,3.7437,0.0,3.6885,3.6795,3.6897,3.7156,3.7325,3.79,3.9389,4.0257,4.1225,4.2726,4.4127,4.5853,4.8225,4.8065,4.7409,4.6689,4.5553,4.4529,4.3778,4.3698,4.3638,4.3519,4.3519,4.3459,4.329,4.329,4.329,4.329,4.329,4.329,4.329,4.3439,4.3768,4.4276,4.2099,4.1557,4.2406,4.0119,3.9296,3.9697,3.9697,3.9697,3.9697,3.9697,3.9697,3.9848,4.1245,3.9041,3.5276,3.6708,3.5612,3.3386,0.0,0.0,0.0,0.0,0.0,0.0,0.0,0.0,0.0,0.0,0.0,0.0,0.0,0.0,0.0,0.0,0.0,0.0,0.0,0.0,0.0,0.0,0.0,3.3807,3.3807,3.3807,3.4614,3.6229,3.6229,3.711,3.8681,3.8681,3.8681,3.865,3.7605,3.6576,3.56,3.56,3.56,3.56,3.56,3.7415,4.0113,4.0113,4.1027,4.255,4.4073,4.4262,4.3653,4.2401,4.1373,4.0506,3.9795,3.9288,3.8903,3.8565,3.8444,3.8391,3.8002,3.7902,3.7904,3.79,3.791,0.0,0.0,3.7359,3.7257,3.6897,3.7088,3.7461,3.7833,3.8802,3.9906,4.1022,4.2151,4.3403,4.4891,4.5423,4.5373,4.4587,4.354,4.2731,4.2402,4.2372,4.2372,4.2372,4.2372,4.2372,4.2372,4.2671,4.2851,4.2842,4.314,4.329,4.329,4.329,4.3489,4.3798,4.1702,4.1028,4.1549,3.9731,3.9044,3.9321,3.9572,3.9697,3.9697,3.9697,3.9697,3.9848,4.1304,3.9507,3.6282,3.826,3.6627,3.3386,2.5107,2.7231,0.0,0.0,0.0,0.0,0.0,0.0,0.0,0.0,0.0,0.0,0.0,0.0,0.0,0.0,0.0,0.0,0.0,3.6229,3.4724,3.4724,3.4724,3.4724,3.4724,3.4724,3.6046,3.8681,3.8681,3.8681,3.8681,3.8681,3.8681,3.8611,3.6525,3.56,3.56,3.56,3.5938,3.6456,3.6456,3.7922,4.0113,4.0113,4.1974,4.4615,4.4615,4.4093,4.3267,4.257,4.188,4.1271,4.0371,4.0113,3.9965,3.9389,3.922,3.9085,3.8497,3.8328,3.8328,3.8328,3.8328,3.8294,0.0,0.0,0.0,3.7156,3.7483,3.7719,3.7122,3.8103,3.9174,3.9804,4.0616,4.1354,4.1796,4.2815,4.3194,4.233,4.1401,4.0834,4.0834,4.0954,4.1014,4.1014,4.1134,4.1224,4.1224,4.1822,4.2204,4.2208,4.2822,4.313,4.313,4.325,4.329,4.327,4.1419,4.0614,4.0663,3.9319,3.8793,3.8919,3.9472,3.9697,3.9697,3.9697,3.9697,3.9823,4.1128,3.9661,3.7018,3.8895,3.6959,3.3386,2.8431,2.8761,2.8981,0.0,0.0,0.0,0.0,0.0,0.0,0.0,0.0,0.0,3.8644,3.8681,3.8681,3.8681,3.8681,3.8681,3.8681,3.8358,0.0,3.8131,3.8131,3.8131,3.8131,3.8131,3.8322,3.8681,3.8681,3.8681,3.8681,3.8681,3.8681,3.8611,3.6525,3.56,3.56,3.56,3.7133,3.9592,3.9592,3.9795,4.0113,4.0113,4.1974,4.4615,4.4615,4.4547,4.4195,4.2773,4.2232,4.1927,4.0553,4.0113,4.0079,4.0011,3.9977,3.9977,3.9863,3.9842,3.9842,3.9842,3.9842,3.966,3.9017,0.0,3.8667,3.7922,0.0,3.7877,3.7787,0.0,0.0,3.9106,4.029,4.0968,4.028,4.0851,4.106,4.0303,3.935,3.8739,3.8739,3.929,3.9631,3.9631,4.0187,4.0516,4.0516,4.1164,4.1504,4.1496,4.2152,4.25,4.25,4.301,4.329,4.327,4.1043,4.025,4.0635,3.8879,3.8391,3.8919,3.9472,3.9697,3.9697,3.9697,3.9697,3.9772,4.042,3.9361,3.7599,3.8503,3.6529,3.3386,2.8981,2.8981,2.9574,0.0,0.0,0.0,0.0,0.0,0.0,0.0,0.0,3.8681,3.8681,3.8681,3.946,4.1332,4.1479,4.0708,3.8836,3.8681,0.0,3.8681,3.8681,3.8681,3.8681,3.8681,3.8681,3.8681,3.8681,3.8681,3.8681,3.8681,3.8076,3.6874,3.5983,3.56,3.5701,3.7483,3.8949,4.0113,4.0113,4.0113,4.0282,4.2042,4.3498,4.4615,4.4615,4.4615,4.4445,4.3308,4.2651,4.211,4.1074,4.0425,4.0113,4.0113,4.0113,4.0113,4.0113,4.0113,4.0113,4.0113,4.0113,4.0011,3.9694,3.9626,3.9423,3.87,0.0,0.0,0.0,0.0,0.0,0.0,3.9897,4.0425,4.0079,3.9865,3.9803,3.9851,3.907,3.8341,3.7875,3.8063,3.8225,3.8225,3.8512,3.8841,3.923,3.9888,4.0427,4.0816,4.1852,4.241,4.241,4.3,4.329,4.327,4.1007,4.0023,4.0162,3.8672,3.814,3.8417,3.932,3.9697,3.9697,3.9697,3.9697,3.9722,3.9946,3.9524,3.9007,4.0612,3.7894,3.3386,3.0308,3.0308,3.1048,3.3403,3.3807,0.0,0.0,3.7184,3.8681,3.8681,3.946,4.001,4.001,4.001,4.0965,4.3286,4.3506,4.2515,4.0157,4.001,3.9606,3.8726,3.8681,3.8681,3.8681,3.8681,3.8681,3.8681,3.8681,3.8681,3.8681,3.8681,3.7578,3.56,3.56,3.6039,3.6975,3.9153,4.0113,4.0113,4.0113,4.062,4.1568,4.3768,4.4615,4.4615,4.4615,4.4615,4.4465,4.3612,4.2963,4.2334,4.1223,4.0518,4.0113,4.0113,4.0113,4.0134,4.0358,4.0257,4.0146,4.0337,4.0235,4.0113,4.0113,4.0113,3.9943,3.9423,3.9288,0.0,0.0,0.0,3.9288,3.9288,0.0,4.0113,4.0113,3.9597,3.9303,3.9524,3.8669,3.7813,3.7237,3.7,3.6896,3.6896,3.7045,3.7375,3.7871,3.8661,3.9349,3.9828,4.1164,4.1961,4.2141,4.2731,4.313,4.327,4.1007,3.9913,3.9853,3.8569,3.8015,3.8065,3.9195,3.9697,3.9697,3.9697,3.9697,3.9697,3.9697,3.9697,3.9894,4.1524,3.8395,3.3386,3.366,3.366,3.3697,3.377,3.3807,3.4871,3.8065,3.8644,3.8681,3.8681,4.1405,4.3359,4.3359,4.3359,4.3396,4.3506,4.3506,4.3469,4.3359,4.3359,4.1964,3.8828,3.8681,3.8681,3.8681,3.8681,3.8681,3.8681,3.8681,3.8681,3.8681,3.8681,3.7578,3.56,3.56,3.7212,3.9977,4.0079,4.0113,4.0113,4.0113,4.1839,4.4479,4.4567,4.4615,4.4615,4.4615,4.4615,4.4437,4.3443,4.3091,4.2729,4.0746,4.0113,4.0113,4.0113,4.0113,4.0257,4.097,4.0624,4.0269,4.1001,4.0641,4.0113,4.0113,4.0113,4.0079,4.0079,4.0079,4.0079,4.0045,4.0045,4.0079,4.0079,4.0079,0.0,0.0,4.0087,3.9786,3.9014,3.7575,3.6646,3.6615,3.5972,3.5579,3.5579,3.6148,3.6553,3.6553,3.7751,3.8422,3.8469,3.9768,4.0756,4.1433,4.2092,4.272,4.327,4.1007,3.9913,3.9853,3.8569,3.8015,3.8065,3.9195,3.9697,3.9697,3.9697,3.9697,3.9697,3.9697,3.9697,3.9731,3.9771,3.7087,3.3386,3.3807,3.5532,3.6376,3.4174,3.5605,3.8138,4.1368,4.0084,3.946,4.1589,4.4672,4.6691,4.6691,4.6691,4.7535,4.9738,4.7939,4.6691,4.6691,4.4681,4.3029,4.1927,4.1891,4.1891,4.1891,3.979,3.8681,3.8681,3.8681,3.8681,3.8681,3.8681,3.7578,3.5701,3.7686,3.9153,4.0113,4.0113,4.0113,4.0282,4.2266,4.3701,4.4615,4.4615,4.4615,4.4615,4.4615,4.4615,4.4567,4.4212,4.4069,4.3982,4.3288,4.1704,4.0113,4.0113,4.0113,4.0303,4.1225,4.1766,4.2049,4.1948,4.1373,4.0832,4.0832,4.0438,4.0113,4.0113,4.0113,4.0113,4.0113,4.0113,4.0113,4.0113,4.0113,4.0113,0.0,4.0113,3.999,3.9714,3.8772,3.7714,3.6691,3.6368,3.6038,3.5522,3.5699,3.6028,3.6493,3.7285,3.7943,3.8409,3.9709,4.0726,4.1403,4.2081,4.269,4.327,4.1007,3.9913,3.9826,3.8204,3.7663,3.804,3.8843,3.9371,3.9697,3.9697,3.9697,3.9697,3.9697,3.9697,3.9295,3.5942,3.4183,3.3386,3.5312,3.725,3.8028,3.5899,3.8248,4.1479,4.4718,4.3461,4.2873,4.4938,4.8049,5.0021,5.0021,5.0021,5.1342,5.4609,5.193,5.0021,5.0021,4.7021,4.4718,4.3543,4.3506,4.3506,4.3506,4.1487,3.9863,3.8681,3.8681,3.8681,3.8702,3.904,3.8469,3.728,3.922,4.0113,4.0113,4.0113,4.0113,4.0282,4.2211,4.301,4.301,4.301,4.301,4.3112,4.3793,4.4069,4.4117,4.4471,4.4615,4.4615,4.4615,4.3261,4.15,4.0417,4.0484,4.1021,4.1647,4.2463,4.309,4.3118,4.2361,4.1578,4.1597,4.1001,4.0506,4.0506,4.0269,4.0113,4.0113,4.0113,4.0113,4.0113,4.0113,4.0113,0.0,4.0113,4.0113,4.0113,3.9156,3.8133,3.7114,3.6523,3.6022,3.5522,3.5519,3.5699,3.6118,3.6746,3.7375,3.8033,3.911,4.0247,4.1403,4.1841,4.2481,4.327,4.1007,3.9913,3.9826,3.8046,3.7487,3.804,3.8642,3.9195,3.9697,3.9697,3.9697,3.9697,3.9697,3.9259,3.8072,3.3428,3.2316,3.3144,3.8102,3.8681,3.8681,3.8681,4.1295,4.4461,4.7682,4.8186,4.8223,4.8296,5.1306,5.3434,5.3434,5.3434,5.4682,5.774,5.5196,5.3361,5.3214,5.0278,4.7095,4.3873,4.3726,4.3653,4.3506,4.3506,4.2001,3.8946,3.8946,3.8946,3.8936,3.9725,4.0113,4.0113,4.0113,4.0113,4.0113,4.0113,4.0113,4.0113,4.0113,4.0113,4.0113,4.0113,4.0113,4.0345,4.23,4.3105,4.33,4.4294,4.4615,4.4615,4.4615,4.4615,4.4039,4.1162,4.1305,4.2392,4.2392,4.2791,4.3396,4.4342,4.3523,4.2395,4.2361,4.1745,4.1204,4.1204,4.0608,4.0113,4.0113,4.0113,4.0113,4.0113,4.0113,4.0113,4.0113,4.0113,4.0113,4.0113,3.875,3.7807,3.7807,3.6461,3.557,3.5519,3.5519,3.5519,3.5519,3.6118,3.6776,3.7375,3.8093,3.9397,4.1373,4.1433,4.2073,4.327,4.1007,3.9913,3.9826,3.802,3.7437,3.799,3.8592,3.917,3.9647,3.9697,3.9697,3.9697,3.9697,3.8427,3.619,3.2383,3.166,3.2687,3.8534,3.8681,3.8681,3.8681,4.0369,4.2791,4.603,4.6838,4.7388,4.8186,5.3261,5.6785,5.6785,5.6785,5.7116,5.7923,5.7226,5.5757,5.3361,5.2407,5.0462,4.7205,4.7058,4.5957,4.3543,4.3506,4.3102,4.2258,4.2258,4.2258,4.2252,4.0767,4.0113,4.0113,4.0113,4.0113,4.0113,4.0113,4.0113,4.0113,4.0113,4.0113,4.0113,4.0113,4.0113,4.0269,4.1523,4.2949,4.4246,4.4519,4.4615,4.4615,4.4615,4.4615,4.4445,4.3667,4.372,4.4021,4.4021,4.4117,4.4294,4.4519,4.4302,4.3849,4.3254,4.2104,4.1204,4.1204,4.0608,4.0113,4.0113,4.0113,4.0113,4.0113,4.0113,4.0113,4.0113,4.0113,4.0113,4.0113,3.875,3.7807,3.7807,3.7442,3.6738,3.5587,3.5519,3.5519,3.5519,3.6118,3.6776,3.7375,3.8524,3.9858,4.1403,4.1882,4.2521,4.327,4.1007,3.9913,3.9847,3.7629,3.6909,3.7462,3.799,3.8542,3.9145,3.9547,3.9697,3.9697,3.9697,3.8043,3.5379,3.3022,3.2433,3.2793,3.8681,3.9827,4.0781,4.0781,4.1552,4.2763,4.4562,4.6287,4.7629,4.8233,5.3361,5.7206,5.7935,5.7997,5.7997,5.7997,5.7997,5.7226,5.5416,5.3985,5.237,5.0535,4.9067,4.6951,4.403,4.2686,4.2505,4.3506,4.2505,4.2006,4.1975,4.0696,4.0113,4.0113,4.0113,4.0113,4.0113,4.0113,4.0113,4.0113,4.0113,4.0113,0.0,4.0113,4.0113,4.018,4.0743,4.1878,4.3267,4.427,4.4615,4.4615,4.4615,4.4615,4.4615,4.4615,4.4615,4.4615,4.4615,4.4615,4.4615,4.4615,4.4615,4.4465,4.4012,4.3017,4.207,4.1745,4.1068,4.0472,4.018,4.0113,4.0113,4.0113,4.0113,4.0113,4.0113,4.0113,4.0113,4.0113,3.9348,3.8544,3.7879,3.719,3.6415,3.5554,3.5519,3.5519,3.5519,3.5848,3.6477,3.7357,3.8422,3.9738,4.1373,4.2081,4.269,4.327,4.1007,3.9913,3.9826,3.7474,3.6683,3.7235,3.7764,3.8341,3.8944,3.9497,3.9697,3.9645,3.8999,3.7328,3.5139,3.3847,3.3032,3.2598,3.9239,4.1597,4.3506,4.3506,4.3836,4.4277,4.4718,4.6801,4.8301,4.8288,5.2367,5.5969,5.7799,5.7997,5.7997,5.7997,5.7997,5.7997,5.7997,5.4987,5.3214,5.3214,5.0462,4.7574,4.4671,4.1636,4.107,4.306,4.107,4.0113,4.0113,4.0113,4.0113,4.0113,4.0113,4.0113,4.0113,4.0113,4.0113,4.0113,4.0113,4.0113,4.0113,4.0113,4.0113,4.0113,4.0113,4.0565,4.1508,4.3383,4.4135,4.4332,4.4561,4.4615,4.4615,4.4615,4.4615,4.4615,4.4615,4.4615,4.4615,4.4615,4.4615,4.4615,4.4615,4.3978,4.3186,4.2455,4.1711,4.0967,4.0235,4.0113,4.0113,4.0113,4.0113,4.0041,3.9952,3.994,3.9901,3.9812,3.9799,0.0,3.7761,3.6523,3.5732,3.5535,3.5519,3.5519,3.5519,3.5519,3.6088,3.7357,3.8153,3.9457,4.1373,4.2122,4.2761,4.327,4.1007,3.9913,3.9826,3.7474,3.6683,3.7235,3.7764,3.8341,3.8944,3.9497,3.9697,3.9569,3.8295,3.6804,3.5324,3.4855,3.3642,3.2374,4.2148,4.3102,4.3506,4.3506,4.57,4.8379,5.1086,4.9684,4.8298,4.8306,5.141,5.4725,5.7666,5.7997,5.7997,5.7997,5.7997,5.7997,5.7997,5.4987,5.3214,5.3214,5.2664,4.992,4.4719,4.1636,4.0303,4.0696,4.0303,4.0113,4.0113,4.0113,4.0113,4.0113,4.0113,4.0113,4.0113,4.0113,4.0113,4.0113,4.0113,4.0113,4.0113,4.0113,4.0113,4.0113,4.0113,4.0565,4.1167,4.0955,4.1695,4.2898,4.419,4.4615,4.4615,4.4615,4.4615,4.4615,4.4615,4.4615,4.4615,4.4615,4.4615,4.4615,4.4615,4.3978,4.3186,4.2455,4.1711,4.0967,4.0235,4.0113,4.0113,4.0113,4.0113,3.9876,3.9209,3.9096,3.8867,3.8292,3.8222,3.7833,3.6889,3.7175,3.689,3.5587,3.5519,3.5519,3.5519,3.5519,3.6088,3.7357,3.8584,3.9918,4.1403,4.2581,4.322,4.327,4.1007,3.9913,3.9826,3.7474,3.6683,3.7235,3.7764,3.8341,3.8944,3.9497,3.9697,3.9671,3.9413,3.7872,3.5837,3.6117,3.4641,3.2609,4.3212,4.3506,4.402,4.57,4.7278,4.9397,5.27,5.3251,5.2747,5.1049,5.2223,5.4425,5.7666,5.7997,5.7997,5.7997,5.7997,5.7997,5.7997,5.3622,5.103,5.103,5.103,4.9006,4.4677,4.3193,4.167,4.0113,4.0113,4.0113,4.0113,4.0113,4.0113,4.0113,4.0113,4.0113,4.0113,4.0113,4.0113,4.0113,4.0113,4.0113,4.0113,4.0113,4.0113,4.0214,4.098,4.1315,4.1265,4.0409,4.0565,4.1563,4.3891,4.4615,4.4615,4.4615,4.4615,4.4615,4.4615,4.4615,4.4615,4.4615,4.4615,4.4615,4.4615,4.4296,4.3809,4.3031,4.2577,4.2117,4.1386,4.1251,4.1251,4.1251,4.0912,4.056,4.014,3.9401,3.8772,3.8414,3.8019,3.7469,3.6676,3.6949,3.6707,3.557,3.5519,3.5519,3.5519,3.5519,3.6088,3.7357,3.8703,4.0019,4.1403,4.2651,4.329,4.327,4.1007,3.9913,3.9826,3.7761,3.6959,3.7261,3.8115,3.8642,3.8944,3.9497,3.9697,3.9697,3.9697,3.8131,3.5977,3.644,3.4891,3.2673,4.4534,4.4534,4.5342,4.7865,4.8884,5.0425,5.3728,5.6381,5.7079,5.4535,5.4205,5.5207,5.7703,5.7997,5.7997,5.7997,5.7997,5.7738,5.7103,5.2619,4.9661,4.9052,4.9018,4.7902,4.5582,4.4905,4.3112,4.0113,4.0113,4.0113,4.0113,4.0113,4.0113,4.0113,4.0113,4.0113,4.0113,4.0113,4.0113,4.0113,4.0113,4.0113,4.018,4.0823,4.106,4.123,4.2367,4.2395,4.178,4.0865,4.0506,4.0925,4.3735,4.4615,4.4615,4.4615,4.4615,4.4615,4.4615,4.4615,4.4615,4.4615,4.4615,4.4615,4.4615,4.4615,4.4364,4.3558,4.3288,4.2983,4.2401,4.23,4.23,4.23,4.1813,4.1268,4.0776,3.9671,3.873,3.8232,3.7804,3.7218,3.643,3.6523,3.6275,3.5554,3.5519,3.5519,3.5519,3.5519,3.6088,3.7357,3.8703,4.0019,4.1403,4.2651,4.3349,4.3479,4.1178,4.0161,4.0211,3.8279,3.7462,3.7612,3.8517,3.8969,3.9095,3.9547,3.9697,3.9697,3.9823,3.8299,3.6106,3.6611,3.5062,3.2813,4.7865,4.7865,4.7929,4.826,5.0755,5.3838,5.7042,5.7813,5.7886,5.7593,5.7556,5.7666,5.796,5.7997,5.7997,5.7997,5.7997,5.685,5.4108,5.3396,5.186,4.912,4.9018,4.8883,4.8578,4.5954,4.3112,4.0113,4.0113,4.0113,4.0113,4.0113,4.0113,4.0113,4.0113,4.0113,4.0113,4.0113,4.0113,4.0113,4.0113,4.0113,4.0417,4.3159,4.4161,4.4209,4.4344,4.3785,4.2878,4.2287,4.1826,4.1826,4.3938,4.4615,4.4615,4.4615,4.4615,4.4615,4.4615,4.4615,4.4615,4.4615,4.4615,4.4615,4.4615,4.4615,4.4364,4.3558,4.2861,4.2401,4.23,4.23,4.23,4.23,4.2232,4.1485,3.9426,3.8988,3.8123,3.6066,3.6368,3.6415,3.5683,3.6212,3.6275,3.5554,3.5519,3.5519,3.5519,3.5519,3.6088,3.7357,3.8703,4.0019,4.1403,4.2651,4.3609,4.4186,4.178,4.094,4.1452,3.9031,3.8216,3.8743,3.8843,3.917,3.9622,3.9672,3.9697,3.9747,4.0249,3.8824,3.6585,3.7115,3.5619,3.332,5.1232,5.1232,5.1232,5.1232,5.2443,5.3806,5.5107,5.5297,5.5956,5.7762,5.7997,5.7997,5.7997,5.7997,5.7266,5.5458,5.5297,5.4776,5.3568,5.3518,5.2976,5.1758,4.9965,4.9018,4.9018,4.6123,4.4005,4.2821,4.0993,4.0113,4.0113,4.0113,4.0113,4.0113,4.0113,4.0113,4.0113,4.0113,4.1162,4.2821,4.2821,4.2821,4.2909,4.4141,4.4615,4.4615,4.4615,4.4342,4.3968,4.3761,4.3552,4.345,4.3775,4.4215,4.4615,4.4615,4.4615,4.4615,4.4615,4.4615,4.4615,4.4615,4.4615,4.4615,4.4615,4.4615,4.4499,4.4195,4.389,4.3687,4.3687,4.3687,4.3687,4.3687,4.3267,4.2624,4.1734,4.0022,3.8571,3.7668,3.6583,3.583,3.5522,3.5766,3.583,3.5506,3.5519,3.5519,3.5519,3.5878,3.6507,3.7357,3.9092,4.0457,4.1403,4.306,4.4027,4.4276,4.3048,4.2177,4.164,4.029,3.9568,3.9396,3.9396,3.9496,3.9697,3.9697,3.9697,3.9747,4.03,3.8895,3.6652,3.7205,3.5695,3.3386,5.197,5.2689,5.3298,5.3298,5.3396,5.3518,5.3518,5.3518,5.4267,5.6394,5.6695,5.6695,5.6695,5.6695,5.583,5.3701,5.3518,5.3518,5.3518,5.3518,5.3518,5.3518,5.1454,4.9898,4.9018,4.6969,4.5481,4.4615,4.1568,4.0113,4.0113,4.0113,4.0113,4.0113,4.0113,4.0113,4.0146,4.106,4.2651,4.4615,4.4615,4.4615,4.4615,4.4615,4.4615,4.4615,4.4615,4.4615,4.4615,4.4615,4.4615,4.4499,4.3944,4.4147,4.4615,4.4615,4.4615,4.4615,4.4615,4.4615,4.4615,4.4615,4.4615,4.4615,4.4615,4.4615,4.4615,4.4615,4.4615,4.4615,4.4615,4.4615,4.4615,4.4615,4.4113,4.3591,4.3127,4.1222,3.9747,3.9285,3.7607,3.6422,3.615,3.5967,3.5718,3.5506,3.5699,3.5789,3.5789,3.6254,3.6956,3.7956,3.9559,4.0905,4.1972,4.3539,4.4506,4.4895,4.4165,4.3266,4.2187,4.1017,4.0207,3.9697,3.9697,3.9697,3.9697,3.9697,3.9697,3.9747,4.03,3.9168,3.7275,3.735,3.5715,3.3386,4.9046,5.1435,5.35,5.35,5.3501,5.3518,5.3518,5.3518,5.3501,5.3534,5.3551,5.3551,5.3551,5.3551,5.3534,5.3518,5.3518,5.3518,5.3518,5.3518,5.3518,5.3518,5.3484,5.2063,4.9052,4.8984,4.753,4.4615,4.1568,4.0113,4.0113,4.0113,4.0113,4.0113,4.0113,4.0113,4.0316,4.3295,4.4581,4.4615,4.4615,4.4615,4.4615,4.4615,4.4615,4.4615,4.4615,4.4615,4.4615,4.4615,4.4615,4.4615,4.4581,4.4601,4.4615,4.4615,4.4615,4.4615,4.4615,4.4615,4.4615,4.4615,4.4615,4.4615,4.4615,4.4615,4.4615,4.4615,4.4615,4.4615,4.4615,4.4615,4.4615,4.4615,4.4601,4.4038,4.2535,4.2286,4.1697,4.0176,3.9304,3.853,3.7748,3.7002,3.6259,3.5538,3.6118,3.6493,3.6493,3.6493,3.7375,3.9302,4.0038,4.1354,4.3379,4.3988,4.4954,4.6249,4.4975,4.4078,4.3381,4.0843,3.9723,3.9697,3.9697,3.9697,3.9697,3.9697,3.9697,3.9747,4.03,3.9842,3.8732,3.7758,3.5711,3.3386,5.2063,5.2841,5.3518,5.3518,5.3518,5.3518,5.3518,5.3518,5.3518,5.3518,5.3518,5.3518,5.3518,5.3518,5.3518,5.3518,5.3518,5.3518,5.3518,5.3518,5.3518,5.3518,5.3518,5.3044,5.2097,5.0067,4.8545,4.7597,4.4635,4.211,4.0113,4.0113,4.0113,4.018,4.2245,4.3159,4.3227,4.4209,4.4615,4.4615,4.4615,4.4615,4.4615,4.4615,4.4615,4.4615,4.4615,4.4615,4.4615,4.4615,4.4615,4.4615,4.4615,4.4615,4.4615,4.4615,4.4615,4.4615,4.4615,4.4615,4.4615,4.4615,4.4615,4.4615,4.4615,4.4615,4.4615,4.4615,4.4615,4.4615,4.4615,4.4615,4.4615,4.4615,4.4615,4.4429,4.3948,4.244,4.1233,4.0746,3.9028,3.7781,3.7499,3.7284,3.7061,3.6823,3.6985,3.6926,3.6523,3.7764,3.8763,3.9391,4.1335,4.2681,4.3339,4.4865,4.5882,4.63,4.6353,4.5374,4.3409,4.0869,3.9697,3.9697,3.9697,3.9697,3.9697,3.9697,3.9697,3.9747,4.03,3.9817,3.8832,3.8431,3.6229,3.3386,5.3518,5.3518,5.3518,5.3518,5.3518,5.3518,5.3518,5.3518,5.3518,5.3518,5.3518,5.3518,5.3518,5.3518,5.3518,5.3518,5.3518,5.3518,5.3518,5.3518,5.3518,5.3518,5.3518,5.3518,5.3518,5.1657,5.0135,4.9018,4.6056,4.3633,4.1805,4.1805,4.1805,4.1873,4.3768,4.4615,4.4615,4.4615,4.4615,4.4615,4.4615,4.4615,4.4615,4.4615,4.4615,4.4615,4.4615,4.4615,4.4615,4.4615,4.4615,4.4615,4.4615,4.4615,4.4615,4.4615,4.4615,4.4615,4.4615,4.4615,4.4615,4.4615,4.4804,4.5074,4.5345,4.5413,4.5345,4.5074,4.5007,4.4939,4.4649,4.4615,4.4615,4.4615,4.4615,4.4615,4.4615,4.3296,4.2359,4.2359,4.0483,3.9066,3.8785,3.8219,3.7745,3.7422,3.7644,3.7734,3.7584,3.8733,3.9631,4.0157,4.2203,4.3579,4.4057,4.5553,4.642,4.6689,4.6145,4.5047,4.3409,4.0869,3.9697,3.9697,3.9697,3.9697,3.9697,3.9697,3.9697,3.9722,4.0074,3.997,3.9501,3.8602,3.7753,3.6639,5.3518,5.3518,5.3518,5.3518,5.3518,5.3518,5.3518,5.3518,5.3518,5.3518,5.3518,5.3518,5.3518,5.3518,5.3518,5.3518,5.3518,5.3518,5.3518,5.3518,5.3518,5.3518,5.3518,5.3518,5.3518,5.3518,5.2029,4.9018,4.6259,4.4905,4.4905,4.4702,4.4615,4.4615,4.4615,4.4615,4.4615,4.4615,4.4615,4.4615,4.4615,4.4615,4.4615,4.4615,4.4615,4.4601,4.4716,4.4736,4.4736,4.4736,4.4736,4.4736,4.4702,4.4668,4.4682,4.4615,4.4615,4.4601,4.4668,4.4668,4.4702,4.475,4.5277,4.5974,4.6631,4.68,4.6631,4.594,4.5737,4.55,4.4804,4.4635,4.4615,4.4615,4.4615,4.4615,4.4615,4.4559,4.4483,4.4426,4.302,4.1792,4.0974,3.953,3.8369,3.7665,3.8182,3.8841,3.9511,3.9631,4.0229,4.1493,4.2821,4.4107,4.5364,4.6031,4.6689,4.7287,4.4817,4.3598,4.3432,4.097,3.98,3.9697,3.9697,3.9697,3.9697,3.9697,3.9697,3.9697,3.9697,4.015,4.0575,3.8596,4.004,4.2069,5.3518,5.3518,5.3518,5.3518,5.3518,5.3518,5.3518,5.3518,5.3518,5.3518,5.3518,5.3518,5.3518,5.3518,5.3518,5.3518,5.3518,5.3518,5.3518,5.3518,5.3518,5.3518,5.3518,5.3518,5.3518,5.3518,5.2029,4.9018,4.8308,4.797,4.7902,4.565,4.4615,4.4615,4.4615,4.4615,4.4615,4.4615,4.4615,4.4615,4.4615,4.4615,4.4615,4.4615,4.4615,4.4736,4.5887,4.6293,4.6293,4.6293,4.6293,4.6191,4.5602,4.5432,4.5331,4.477,4.4615,4.4702,4.5297,4.5432,4.5568,4.6157,4.6413,4.6597,4.6752,4.68,4.6766,4.6583,4.6075,4.5669,4.5466,4.4973,4.4615,4.4615,4.4615,4.4615,4.4615,4.402,4.335,4.2692,4.1709,4.0712,3.9852,3.9415,3.9354,3.9667,3.9828,4.0217,4.0894,4.1844,4.2512,4.2831,4.4137,4.5244,4.6061,4.6741,4.716,4.7287,4.5711,4.4442,4.3456,4.1862,4.0617,3.9697,3.9697,3.9697,3.9697,3.9697,3.9697,3.9697,3.9697,4.0156,4.077,4.0515,4.1521,4.2069,5.3518,5.3518,5.3923,5.5277,5.5513,5.5513,5.5513,5.5513,5.5513,5.5513,5.5513,5.5006,5.3653,5.4702,5.4972,5.3619,5.3518,5.3518,5.3518,5.3518,5.3518,5.3518,5.3518,5.3518,5.3518,5.3518,5.2029,4.9018,4.9018,4.9018,4.8984,4.7361,4.6631,4.6631,4.6631,4.6631,4.6631,4.6631,4.6631,4.6631,4.6631,4.6631,4.6462,4.5108,4.5447,4.6733,4.753,4.78,4.7699,4.7037,4.68,4.6733,4.6312,4.621,4.6109,4.5717,4.5379,4.5263,4.6007,4.621,4.638,4.7124,4.7293,4.7394,4.7733,4.78,4.7699,4.7361,4.6974,4.65,4.5838,4.5365,4.5007,4.4649,4.4615,4.4615,4.4615,4.4179,4.3724,4.3244,4.2334,4.1582,4.11,4.0607,4.0457,4.0834,4.0846,4.1265,4.2222,4.2921,4.329,4.329,4.4895,4.5912,4.63,4.6958,4.7309,4.7287,4.6003,4.472,4.3456,4.2181,4.092,3.9697,3.9697,3.9697,3.9697,3.9697,3.9697,3.9697,3.9697,3.9952,4.0311,4.049,4.1625,4.2069,5.3518,5.3856,5.4938,5.746,5.79,5.79,5.79,5.79,5.79,5.79,5.79,5.6934,5.4431,5.6393,5.6867,5.4397,5.416,5.3991,5.3551,5.3518,5.3518,5.3518,5.3518,5.3518,5.3518,5.3518,5.2266,4.9695,4.9221,4.9018,4.9018,4.9018,4.9018,4.9018,4.9018,4.9018,4.9018,4.9018,4.9018,4.9018,4.9018,4.9018,4.8748,4.6225,4.6834,4.9018,4.9018,4.9018,4.8815,4.7564,4.7124,4.7124,4.6993,4.6974,4.6955,4.6955,4.6515,4.6177,4.6786,4.7056,4.7293,4.7921,4.8056,4.8225,4.8849,4.9018,4.8815,4.8191,4.7988,4.7481,4.6109,4.5771,4.5466,4.4702,4.4615,4.4615,4.4615,4.4615,4.455,4.4375,4.3531,4.2953,4.2781,4.2015,4.1583,4.1673,4.1792,4.2342,4.3549,4.3678,4.3738,4.3738,4.5403,4.636,4.645,4.704,4.7309,4.7287,4.6211,4.4932,4.3456,4.2374,4.1094,3.9697,3.9697,3.9697,3.9697,3.9697,3.9697,3.9697,3.9697,3.9697,3.9697,3.9822,4.1076,4.1875,5.3518,5.5513,5.7358,5.7832,5.79,5.79,5.79,5.79,5.79,5.79,5.79,5.773,5.7291,5.7629,5.773,5.7257,5.7223,5.6156,5.3653,5.3518,5.3518,5.3518,5.3518,5.3518,5.3518,5.3518,5.3281,5.2807,5.027,4.9018,4.9018,4.9018,4.9018,4.9018,4.9018,4.9018,4.9018,4.9018,4.9018,4.9018,4.9018,4.9018,4.8951,4.8477,4.8612,4.9018,4.9018,4.9018,4.8984,4.8748,4.8646,4.8548,4.7922,4.7732,4.7718,4.7718,4.765,4.7582,4.7684,4.8191,4.868,4.8815,4.8834,4.8849,4.8984,4.9018,4.8984,4.8849,4.8326,4.765,4.6786,4.6109,4.5466,4.4702,4.4615,4.4615,4.4615,4.4615,4.4269,4.3346,4.3104,4.2656,4.1729,4.2013,4.2451,4.298,4.3519,4.4197,4.4945,4.5523,4.5822,4.5822,4.6151,4.657,4.716,4.7249,4.7309,4.7309,4.7084,4.5779,4.3504,4.3313,4.1912,3.9697,3.9697,3.9697,3.9697,3.9697,3.9697,3.9697,3.9697,3.9697,3.9772,4.0389,4.1043,4.1027,5.5547,5.6986,5.79,5.79,5.79,5.79,5.79,5.79,5.79,5.79,5.79,5.79,5.79,5.79,5.79,5.79,5.79,5.7324,5.5953,5.4397,5.3518,5.3518,5.3518,5.3518,5.3518,5.3518,5.3518,5.3518,5.2097,5.0608,4.9018,4.9018,4.9018,4.9018,4.9018,4.9018,4.9018,4.9018,4.9018,4.9018,4.9018,4.9018,4.9018,4.9018,4.9018,4.9018,4.9018,4.9018,4.9018,4.9018,4.9018,4.8935,4.8606,4.8502,4.8496,4.8496,4.8496,4.8496,4.8496,4.8732,4.9018,4.9018,4.9018,4.9018,4.9018,4.9018,4.9018,4.9018,4.8748,4.8259,4.7515,4.7109,4.65,4.5365,4.5196,4.5196,4.5196,4.5196,4.5173,4.5057,4.4771,4.4446,4.3972,4.3946,4.4098,4.4377,4.4676,4.5125,4.5813,4.6121,4.648,4.6809,4.6839,4.701,4.7309,4.7309,4.7309,4.7309,4.7309,4.5958,4.3504,4.3504,4.2108,3.9697,3.9697,3.9697,3.9697,3.9697,3.9697,3.9697,3.9697,3.9948,4.035,4.0671,4.1399,4.1817,5.746,5.79,5.79,5.79,5.79,5.79,5.79,5.79,5.79,5.79,5.79,5.79,5.79,5.79,5.79,5.79,5.79,5.79,5.79,5.5784,5.4228,5.3551,5.3518,5.3518,5.3518,5.3518,5.3518,5.3518,5.3518,5.2334,5.0033,4.9323,4.9018,4.9018,4.9018,4.9018,4.9018,4.9018,4.9018,4.9018,4.9018,4.9018,4.9018,4.9018,4.9018,4.9018,4.9018,4.9018,4.9018,4.9018,4.9018,4.9018,4.9018,4.9018,4.9018,4.9018,4.912,4.9221,4.9052,4.9018,4.9052,4.9221,4.9255,4.9289,4.9476,4.9526,4.9526,4.9526,4.9526,4.924,4.8326,4.8157,4.765,4.621,4.5974,4.5974,4.5974,4.5974,4.6132,4.6581,4.6253,4.5967,4.5911,4.5674,4.5544,4.5544,4.5663,4.5992,4.651,4.654,4.6839,4.7519,4.7399,4.7369,4.7519,4.7549,4.7549,4.7549,4.7549,4.6104,4.3504,4.3504,4.2108,3.9697,3.9697,3.9697,3.9697,3.9697,3.9697,3.9697,3.9848,4.0224,4.0752,4.1029,4.1833,4.2535,5.7866,5.79,5.79,5.79,5.79,5.79,5.79,5.79,5.79,5.79,5.79,5.79,5.79,5.79,5.79,5.79,5.79,5.79,5.79,5.7697,5.6359,5.3619,5.3518,5.3518,5.3518,5.3518,5.3518,5.3518,5.3518,5.3382,5.3112,5.0304,4.9018,4.9018,4.9018,4.9018,4.9018,4.9018,4.9018,4.9018,4.9018,4.9018,4.9018,4.9018,4.9018,4.9018,4.9018,4.9018,4.9018,4.9018,4.9018,4.9018,4.9018,4.9018,4.9018,4.9018,4.9492,4.988,4.9187,4.9018,4.9154,4.9846,5.0015,5.0202,5.0863,5.1032,5.1032,5.1032,5.1032,5.0592,4.9187,4.8917,4.8443,4.6955,4.6718,4.6718,4.6718,4.6718,4.6568,4.6198,4.6074,4.5819,4.5414,4.5876,4.6241,4.6241,4.68,4.7189,4.7219,4.7249,4.7549,4.8229,4.7608,4.7608,4.8207,4.8229,4.8229,4.8229,4.8229,4.6564,4.3504,4.3504,4.2108,3.9697,3.9697,3.9697,3.9697,3.9697,3.9697,3.9747,4.0249,4.0474,4.0651,4.1708,4.2187,4.2091,5.79,5.79,5.79,5.79,5.79,5.79,5.79,5.79,5.79,5.79,5.79,5.79,5.79,5.79,5.79,5.79,5.79,5.79,5.79,5.79,5.6562,5.3619,5.3518,5.3518,5.3518,5.3518,5.3518,5.3518,5.3518,5.3518,5.345,5.0405,4.9018,4.9018,4.9018,4.9018,4.9018,4.9018,4.9018,4.9018,4.9018,4.9018,4.9018,4.9018,4.9018,4.9018,4.9018,4.9018,4.9018,4.9018,4.9627,5.0356,5.0356,5.0356,5.0356,5.0356,5.0558,5.0744,5.0423,5.0356,5.0423,5.0694,5.0777,5.0879,5.1133,5.1201,5.1201,5.1201,5.1201,5.1032,5.0457,5.0356,5.0033,4.9018,4.8865,4.8865,4.8865,4.8865,4.8953,4.9244,4.9079,4.8647,4.7864,4.7824,4.7602,4.6963,4.716,4.7309,4.7309,4.7698,4.8229,4.8887,4.8678,4.8648,4.8917,4.8917,4.8917,4.8917,4.8498,4.7263,4.5264,4.4049,4.2544,4.0844,4.0032,3.9697,3.9697,3.9697,3.9898,4.0224,4.0399,4.0927,4.1607,4.2034,4.2386,4.263,5.79,5.79,5.79,5.79,5.79,5.79,5.79,5.79,5.79,5.79,5.79,5.79,5.79,5.79,5.79,5.79,5.79,5.79,5.79,5.79,5.6562,5.3619,5.3518,5.3518,5.3518,5.3518,5.3518,5.3518,5.3518,5.3518,5.345,5.1386,4.9898,4.9018,4.9018,4.9018,4.9018,4.9018,4.9018,4.9018,4.9018,4.9018,4.9018,4.9018,4.9593,5.0405,5.0405,4.9796,4.9154,5.0101,5.0761,5.1235,5.1404,5.1336,5.1235,5.1472,5.1539,5.1607,5.1844,5.1911,5.1844,5.1607,5.1539,5.1607,5.1844,5.1911,5.1911,5.1911,5.1911,5.1844,5.1573,5.1539,5.1302,5.0574,5.0439,5.0439,5.0439,5.0439,5.0598,5.1027,5.0643,5.0001,4.9208,4.8829,4.8356,4.7674,4.7818,4.7908,4.7908,4.8379,4.8917,4.9576,4.9583,4.9696,4.9905,4.9696,4.9583,4.9583,4.9105,4.8138,4.665,4.4872,4.3381,4.2095,4.0593,3.9947,3.9946,3.9951,4.0177,4.0548,4.0904,4.1509,4.2238,4.2386,4.2688,4.3014,5.79,5.79,5.79,5.79,5.79,5.79,5.79,5.79,5.79,5.79,5.79,5.79,5.79,5.79,5.79,5.79,5.79,5.79,5.79,5.79,5.6562,5.3619,5.3518,5.3518,5.3518,5.3518,5.3518,5.3518,5.3518,5.3518,5.3518,5.3518,5.1894,4.9052,4.9052,4.9052,4.9052,4.9052,4.9052,4.9052,4.9052,4.9052,4.9052,4.9052,5.0879,5.3518,5.3518,5.1589,4.9492,5.2503,5.2486,5.1302,5.1826,5.1657,5.137,5.2097,5.23,5.2469,5.3281,5.3518,5.3315,5.2503,5.23,5.2536,5.3315,5.3518,5.3518,5.3518,5.3518,5.3281,5.2469,5.23,5.2063,5.1336,5.1235,5.1235,5.1235,5.1201,5.1094,5.0856,4.9918,4.9189,4.886,4.852,4.8319,4.8319,4.8917,4.9277,4.9307,4.9307,4.9583,5.0196,5.0196,5.0548,5.1176,5.0548,5.0196,5.0196,5.0196,4.9231,4.7384,4.5937,4.4602,4.3306,4.1333,4.0497,4.0519,4.0486,4.051,4.0644,4.1764,4.2219,4.2288,4.2788,4.3014,4.3014,5.79,5.79,5.79,5.79,5.79,5.79,5.79,5.79,5.79,5.79,5.79,5.79,5.79,5.79,5.79,5.79,5.79,5.79,5.79,5.79,5.6562,5.3619,5.3518,5.3518,5.3518,5.3518,5.3518,5.3518,5.3518,5.3518,5.3518,5.3518,5.301,5.2164,5.2164,5.2164,5.2164,5.2164,5.2164,5.2164,5.2164,5.2164,5.2164,5.2164,5.2739,5.3518,5.3518,5.2942,5.23,5.3213,5.3196,5.2824,5.301,5.2942,5.2858,5.3078,5.3145,5.3179,5.345,5.3518,5.345,5.3213,5.3145,5.3213,5.345,5.3518,5.3518,5.3518,5.3518,5.345,5.3179,5.3145,5.3078,5.2841,5.279,5.279,5.279,5.2183,5.1843,5.2214,5.1388,5.0628,5.0236,5.0112,4.9778,4.9044,4.9187,4.9486,4.989,4.992,5.0219,5.0877,5.0907,5.0996,5.1206,5.0996,5.0907,5.0907,5.0405,4.9915,4.9284,4.6522,4.5101,4.4602,4.2138,4.1059,4.1075,4.1065,4.1317,4.1731,4.2062,4.2414,4.2788,4.2939,4.3014,4.3014,5.79,5.79,5.79,5.79,5.79,5.79,5.79,5.79,5.79,5.79,5.79,5.79,5.79,5.79,5.79,5.79,5.79,5.79,5.79,5.79,5.7103,5.531,5.4126,5.3518,5.3518,5.3518,5.3518,5.3518,5.3518,5.3518,5.3518,5.3518,5.3518,5.3518,5.3518,5.3518,5.3518,5.3518,5.3518,5.3518,5.3518,5.3518,5.3518,5.3518,5.3518,5.3518,5.3518,5.3518,5.3518,5.3518,5.3518,5.3518,5.3518,5.3518,5.3518,5.3518,5.3518,5.3518,5.3518,5.3518,5.3585,5.3856,5.3721,5.3518,5.3518,5.3721,5.3923,5.3923,5.416,5.4363,5.4363,5.4363,5.4363,5.4363,5.4363,5.4226,5.3775,5.3156,5.2706,5.2647,5.1777,5.1078,5.0824,5.066,5.0415,5.0071,5.0055,5.0212,5.0578,5.0607,5.0787,5.1176,5.1206,5.1206,5.1206,5.1206,5.1206,5.1206,5.0787,5.0607,5.0485,4.7425,4.6014,4.5838,4.2837,4.1597,4.1668,4.1566,4.1816,4.2221,4.2431,4.2713,4.3014,4.3014,4.3014,4.3014,5.79,5.79,5.79,5.79,5.79,5.79,5.79,5.79,5.79,5.79,5.79,5.79,5.79,5.79,5.79,5.79,5.79,5.79,5.79,5.79,5.79,5.79,5.5344,5.389,5.389,5.3653,5.3518,5.3518,5.3518,5.3518,5.3518,5.3518,5.3518,5.3518,5.3518,5.3518,5.3518,5.3518,5.3518,5.3518,5.3518,5.3518,5.3518,5.3518,5.3518,5.3518,5.3518,5.3518,5.3518,5.3518,5.3518,5.3518,5.3518,5.3518,5.3518,5.3518,5.3518,5.3518,5.3585,5.3585,5.3788,5.4499,5.4194,5.3721,5.3721,5.4228,5.4719,5.4719,5.5243,5.5699,5.5699,5.5699,5.5699,5.5699,5.5699,5.5331,5.4287,5.4081,5.3665,5.2649,5.1591,5.0936,5.0977,5.0569,5.0578,5.1236,5.1295,5.1295,5.1355,5.1355,5.1355,5.1295,5.1295,5.1265,5.1206,5.1206,5.1206,5.1206,5.1206,5.1206,5.1105,4.8354,4.7138,4.7041,4.3501,4.2109,4.2273,4.2064,4.211,4.232,4.2827,4.3014,4.3014,4.3014,4.3014,4.3014,5.79,5.79,5.79,5.79,5.79,5.79,5.79,5.79,5.79,5.79,5.79,5.79,5.79,5.79,5.79,5.79,5.79,5.79,5.79,5.79,5.79,5.79,5.7291,5.6934,5.6934,5.4668,5.3518,5.3518,5.3518,5.3518,5.3518,5.3518,5.3518,5.3518,5.3518,5.3518,5.3518,5.3518,5.3518,5.3518,5.3518,5.3518,5.3518,5.3518,5.3518,5.3518,5.3518,5.3518,5.3518,5.3518,5.3518,5.3518,5.3518,5.3518,5.3518,5.3518,5.3518,5.3619,5.4194,5.4363,5.4532,5.5277,5.5327,5.5225,5.5225,5.5361,5.5462,5.5462,5.5597,5.5699,5.5699,5.5699,5.5699,5.5699,5.5699,5.5628,5.5382,5.463,5.4166,5.4455,5.2805,5.1878,5.2383,5.1584,5.1265,5.1947,5.1977,5.2217,5.2725,5.2779,5.2516,5.2007,5.1977,5.1738,5.1206,5.1206,5.1206,5.1206,5.1206,5.1206,5.1105,4.8351,4.7491,4.7994,4.4324,4.2774,4.2802,4.2763,4.2788,4.2827,4.2961,4.3014,4.3014,4.3014,4.3014,4.3014,5.79,5.79,5.79,5.79,5.79,5.79,5.79,5.79,5.79,5.79,5.9152,6.0065,6.0065,5.878,5.79,5.79,5.79,5.79,5.79,5.79,5.79,5.79,5.79,5.79,5.79,5.6393,5.4905,5.3518,5.3518,5.3518,5.3518,5.3518,5.3518,5.3518,5.3518,5.3518,5.3518,5.3518,5.3518,5.3518,5.3518,5.3518,5.3518,5.3518,5.3518,5.3518,5.3518,5.3518,5.3518,5.3518,5.3518,5.3568,5.4041,5.4177,5.4228,5.4448,5.4549,5.4617,5.504,5.5108,5.531,5.6037,5.6206,5.6139,5.5767,5.5969,5.6206,5.6206,5.6494,5.6765,5.6765,5.6765,5.6765,5.6765,5.6765,5.6373,5.5322,5.4678,5.4172,5.3755,5.2736,5.2299,5.297,5.2507,5.2306,5.2636,5.2665,5.2839,5.3198,5.3198,5.3049,5.2665,5.2665,5.2516,5.2157,5.2157,5.2157,5.2157,5.1828,5.1678,5.1583,4.8848,4.7661,4.7658,4.4422,4.3014,4.3014,4.3014,4.3014,4.3014,4.3014,4.3014,4.3014,4.3014,4.3014,4.3014,5.79,5.79,5.79,5.79,5.79,5.79,5.79,5.79,5.8103,5.861,6.0844,6.24,6.24,5.9727,5.79,5.79,5.79,5.79,5.79,5.79,5.79,5.79,5.79,5.79,5.79,5.79,5.6461,5.3518,5.3518,5.3518,5.3518,5.3518,5.3518,5.3518,5.3518,5.3518,5.3518,5.3518,5.3518,5.3518,5.3518,5.3518,5.3518,5.3518,5.3568,5.3653,5.3551,5.3518,5.3518,5.3518,5.3856,5.438,5.5171,5.5426,5.5446,5.5631,5.5699,5.5733,5.5834,5.5902,5.6071,5.6799,5.7002,5.6833,5.6206,5.6562,5.7002,5.7002,5.7476,5.79,5.79,5.7983,5.8084,5.8084,5.7922,5.7163,5.534,5.4906,5.4271,5.2938,5.2698,5.2815,5.3163,5.3198,5.3258,5.3354,5.3378,5.3438,5.3558,5.3558,5.3498,5.3354,5.3378,5.3318,5.3198,5.3198,5.3258,5.3354,5.2815,5.2486,5.2264,4.9404,4.765,4.6729,4.4116,4.3014,4.3014,4.3014,4.3014,4.3014,4.3014,4.3014,4.3014,4.3014,4.3014,4.3014,5.79,5.79,5.79,5.79,5.79,5.79,5.79,5.79,5.8847,6.1453,6.2164,6.24,6.24,5.9727,5.79,5.79,5.79,5.79,5.79,5.79,5.79,5.79,5.79,5.79,5.79,5.79,5.6461,5.3518,5.3518,5.3518,5.3518,5.3518,5.3518,5.3518,5.3518,5.3518,5.3518,5.3518,5.3518,5.3518,5.3518,5.3518,5.3518,5.3518,5.3923,5.4364,5.3737,5.3518,5.3518,5.3518,5.5209,5.7306,5.7457,5.7509,5.7239,5.6037,5.5699,5.5834,5.6494,5.6664,5.6833,5.7577,5.7764,5.773,5.7629,5.7697,5.7764,5.7764,5.7832,5.79,5.79,5.8423,5.8844,5.8844,5.8079,5.7364,5.7053,5.6125,5.5368,5.5163,5.479,5.4195,5.3296,5.3198,5.3443,5.4012,5.4072,5.4311,5.488,5.491,5.467,5.4072,5.4072,5.3773,5.3228,5.3198,5.3473,5.4072,5.3982,5.3623,5.2952,4.9646,4.7306,4.5768,4.3823,4.3014,4.3014,4.3014,4.3014,4.3014,4.3014,4.3014,4.3014,4.3014,4.3014,4.3014,5.79,5.79,5.79,5.79,5.79,5.79,5.79,5.9355,6.0911,6.2231,6.24,6.24,6.24,6.1216,5.9761,5.8069,5.79,5.79,5.79,5.79,5.79,5.79,5.79,5.79,5.79,5.79,5.7239,5.5953,5.4296,5.3518,5.3518,5.3518,5.3518,5.3518,5.3518,5.3518,5.3518,5.3518,5.3518,5.3518,5.3518,5.3518,5.3518,5.3518,5.3703,5.3923,5.3602,5.4566,5.5953,5.5953,5.6799,5.79,5.79,5.79,5.7764,5.7103,5.6934,5.7103,5.7829,5.8032,5.822,5.893,5.9133,5.9133,5.9133,5.9133,5.8896,5.8069,5.822,5.8524,5.8524,5.9133,5.9588,5.9588,5.9213,5.8697,5.8091,5.6994,5.5859,5.4923,5.4973,5.4867,5.4386,5.4336,5.4431,5.473,5.476,5.488,5.5179,5.5179,5.5059,5.476,5.476,5.461,5.4336,5.4336,5.4486,5.476,5.476,5.4401,5.3669,5.054,4.8371,4.6913,4.448,4.3291,4.3014,4.3014,4.3014,4.3014,4.3014,4.3014,4.3014,4.3014,4.3014,4.3014]},{"header":{"parameterUnit":"m.s-1","parameterCategory":1,"la1":30.6,"la2":28.766,"lo1":-90.7593,"lo2":-88.6598,"dy":0.0162,"dx":0.0183,"nx":116,"ny":114,"refTime":"2023-11-15T06:00:00:Z","depth":0,"parameterNumber":3,"parameterNumberName":"V-component_of_WINDS"},"data":[0.0,0.0,0.0,0.0,0.0,0.0,0.0,0.0,0.0,0.0,0.0,0.0,0.0,0.0,0.0,0.0,0.0,0.0,0.0,0.0,0.0,0.0,0.0,0.0,0.0,0.0,0.0,0.0,0.0,0.0,0.0,0.0,0.0,0.0,0.0,0.0,0.0,0.0,0.0,0.0,0.0,0.0,0.0,0.0,0.0,0.0,0.0,0.0,0.0,0.0,0.0,0.0,0.0,0.0,0.0,0.0,0.0,0.0,0.0,0.0,0.0,0.0,0.0,0.0,0.0,0.0,0.0,0.0,0.0,0.0,0.0,0.0,0.0,0.0,0.0,0.0,0.0,0.0,0.0,0.0,0.0,0.0,0.0,0.0,0.0,0.0,0.0,0.0,0.0,0.0,0.0,0.0,0.0,0.0,0.0,0.0,0.0,0.0,0.0,0.0,0.0,0.0,0.0,0.0,0.0,0.0,0.0,0.0,0.0,0.0,0.0,0.0,0.0,0.0,0.0,0.0,0.0,0.0,0.0,0.0,0.0,0.0,0.0,0.0,0.0,0.0,0.0,0.0,0.0,0.0,0.0,0.0,0.0,0.0,0.0,0.0,0.0,0.0,0.0,0.0,0.0,0.0,0.0,0.0,0.0,0.0,0.0,0.0,0.0,0.0,0.0,0.0,0.0,0.0,0.0,0.0,0.0,0.0,0.0,0.0,0.0,0.0,0.0,0.0,0.0,0.0,0.0,0.0,0.0,0.0,0.0,0.0,0.0,0.0,0.0,0.0,0.0,0.0,0.0,0.0,0.0,0.0,0.0,0.0,0.0,0.0,0.0,0.0,0.0,0.0,0.0,0.0,0.0,0.0,0.0,0.0,0.0,0.0,0.0,0.0,0.0,0.0,0.0,0.0,0.0,0.0,0.0,0.0,0.0,0.0,0.0,0.0,0.0,0.0,0.0,0.0,0.0,0.0,0.0,0.0,0.0,0.0,0.0,0.0,0.0,0.0,0.0,0.0,0.0,0.0,0.0,0.0,0.0,0.0,0.0,0.0,0.0,0.0,0.0,0.0,0.0,0.0,0.0,0.0,0.0,0.0,0.0,0.0,0.0,0.0,0.0,0.0,0.0,0.0,0.0,0.0,0.0,0.0,0.0,0.0,0.0,0.0,0.0,0.0,0.0,0.0,0.0,0.0,0.0,0.0,0.0,0.0,0.0,0.0,0.0,0.0,0.0,0.0,0.0,0.0,0.0,0.0,0.0,0.0,0.0,0.0,0.0,0.0,0.0,0.0,0.0,0.0,0.0,0.0,0.0,0.0,0.0,0.0,0.0,0.0,0.0,0.0,0.0,0.0,0.0,0.0,0.0,0.0,0.0,0.0,0.0,0.0,0.0,0.0,0.0,0.0,0.0,0.0,0.0,0.0,0.0,0.0,0.0,0.0,0.0,0.0,0.0,0.0,0.0,0.0,0.0,0.0,0.0,0.0,0.0,0.0,0.0,0.0,0.0,0.0,0.0,0.0,0.0,0.0,0.0,0.0,0.0,0.0,0.0,0.0,0.0,0.0,0.0,0.0,0.0,0.0,0.0,0.0,0.0,0.0,0.0,0.0,0.0,0.0,0.0,0.0,0.0,0.0,0.0,0.0,0.0,0.0,0.0,0.0,0.0,0.0,0.0,0.0,0.0,0.0,0.0,0.0,0.0,0.0,0.0,0.0,0.0,0.0,0.0,0.0,0.0,0.0,0.0,0.0,0.0,0.0,0.0,0.0,0.0,0.0,0.0,0.0,0.0,0.0,0.0,0.0,0.0,0.0,0.0,0.0,0.0,0.0,0.0,0.0,0.0,0.0,0.0,0.0,0.0,0.0,0.0,0.0,0.0,0.0,0.0,0.0,0.0,0.0,0.0,0.0,0.0,0.0,0.0,0.0,0.0,0.0,0.0,0.0,0.0,0.0,0.0,0.0,0.0,0.0,0.0,0.0,0.0,0.0,0.0,0.0,0.0,0.0,0.0,0.0,0.0,0.0,0.0,0.0,0.0,0.0,0.0,0.0,0.0,0.0,0.0,0.0,0.0,0.0,0.0,0.0,0.0,0.0,0.0,0.0,0.0,0.0,0.0,0.0,0.0,0.0,0.0,0.0,0.0,0.0,0.0,0.0,0.0,0.0,0.0,0.0,0.0,0.0,0.0,0.0,0.0,0.0,0.0,0.0,0.0,0.0,0.0,0.0,0.0,0.0,0.0,0.0,0.0,0.0,0.0,0.0,0.0,0.0,0.0,0.0,0.0,0.0,0.0,0.0,0.0,0.0,0.0,0.0,0.0,0.0,0.0,0.0,0.0,0.0,0.0,0.0,0.0,0.0,0.0,0.0,0.0,0.0,0.0,0.0,0.0,0.0,0.0,0.0,0.0,0.0,0.0,0.0,0.0,0.0,0.0,0.0,0.0,0.0,0.0,0.0,0.0,0.0,0.0,0.0,0.0,0.0,0.0,0.0,0.0,0.0,0.0,0.0,0.0,0.0,0.0,0.0,0.0,0.0,0.0,0.0,0.0,0.0,0.0,0.0,0.0,0.0,0.0,0.0,0.0,0.0,0.0,0.0,0.0,0.0,0.0,0.0,0.0,0.0,0.0,0.0,0.0,0.0,0.0,0.0,0.0,0.0,0.0,0.0,0.0,0.0,0.0,0.0,0.0,0.0,0.0,0.0,0.0,0.0,0.0,0.0,0.0,0.0,0.0,0.0,0.0,0.0,0.0,0.0,0.0,0.0,0.0,0.0,0.0,0.0,0.0,0.0,0.0,0.0,0.0,0.0,0.0,0.0,0.0,0.0,0.0,0.0,0.0,0.0,0.0,0.0,0.0,0.0,0.0,0.0,0.0,0.0,0.0,0.0,0.0,0.0,0.0,0.0,0.0,0.0,0.0,0.0,0.0,0.0,0.0,0.0,0.0,0.0,0.0,0.0,0.0,0.0,0.0,0.0,0.0,0.0,0.0,0.0,0.0,0.0,0.0,0.0,0.0,0.0,0.0,0.0,0.0,0.0,0.0,0.0,0.0,0.0,0.0,0.0,0.0,0.0,0.0,0.0,0.0,0.0,0.0,0.0,0.0,0.0,0.0,0.0,0.0,0.0,0.0,0.0,0.0,0.0,0.0,0.0,0.0,0.0,0.0,0.0,0.0,0.0,0.0,0.0,0.0,0.0,0.0,0.0,0.0,0.0,0.0,0.0,0.0,0.0,0.0,0.0,0.0,0.0,0.0,0.0,0.0,0.0,0.0,0.0,0.0,0.0,0.0,0.0,0.0,0.0,0.0,0.0,0.0,0.0,0.0,0.0,0.0,0.0,0.0,0.0,0.0,0.0,0.0,0.0,0.0,0.0,0.0,0.0,0.0,0.0,0.0,0.0,0.0,0.0,0.0,0.0,0.0,0.0,0.0,0.0,0.0,0.0,0.0,0.0,0.0,0.0,0.0,0.0,0.0,0.0,0.0,0.0,0.0,0.0,0.0,0.0,0.0,0.0,0.0,0.0,0.0,0.0,0.0,0.0,0.0,0.0,0.0,0.0,0.0,0.0,0.0,0.0,0.0,0.0,0.0,0.0,0.0,0.0,0.0,0.0,0.0,0.0,0.0,0.0,0.0,0.0,0.0,0.0,0.0,0.0,0.0,0.0,0.0,0.0,0.0,0.0,0.0,0.0,0.0,0.0,0.0,0.0,0.0,0.0,0.0,0.0,0.0,0.0,0.0,0.0,0.0,0.0,0.0,0.0,0.0,0.0,0.0,0.0,0.0,0.0,0.0,0.0,0.0,0.0,0.0,0.0,0.0,0.0,0.0,0.0,0.0,0.0,0.0,0.0,0.0,0.0,0.0,0.0,0.0,0.0,0.0,0.0,0.0,0.0,0.0,0.0,0.0,0.0,0.0,0.0,0.0,0.0,0.0,0.0,0.0,0.0,0.0,0.0,0.0,0.0,0.0,0.0,0.0,0.0,0.0,0.0,0.0,0.0,0.0,0.0,0.0,0.0,0.0,0.0,0.0,0.0,0.0,0.0,0.0,0.0,0.0,0.0,0.0,0.0,0.0,0.0,0.0,0.0,0.0,0.0,0.0,0.0,0.0,0.0,0.0,0.0,0.0,0.0,0.0,0.0,0.0,0.0,0.0,0.0,0.0,0.0,0.0,0.0,0.0,0.0,0.0,0.0,0.0,0.0,0.0,0.0,0.0,0.0,0.0,0.0,0.0,0.0,0.0,0.0,0.0,0.0,0.0,0.0,0.0,0.0,0.0,0.0,0.0,0.0,0.0,0.0,0.0,0.0,0.0,0.0,0.0,0.0,0.0,0.0,0.0,0.0,0.0,0.0,0.0,0.0,0.0,0.0,0.0,0.0,0.0,0.0,0.0,0.0,0.0,0.0,0.0,0.0,0.0,0.0,0.0,0.0,0.0,0.0,0.0,0.0,0.0,0.0,0.0,0.0,0.0,0.0,0.0,0.0,0.0,0.0,0.0,0.0,0.0,0.0,0.0,0.0,0.0,0.0,0.0,0.0,0.0,0.0,0.0,0.0,0.0,0.0,0.0,0.0,0.0,0.0,0.0,0.0,0.0,0.0,0.0,0.0,0.0,0.0,0.0,0.0,0.0,0.0,0.0,0.0,0.0,0.0,0.0,0.0,0.0,0.0,0.0,0.0,0.0,0.0,0.0,0.0,0.0,0.0,0.0,0.0,0.0,0.0,0.0,0.0,0.0,0.0,0.0,0.0,0.0,0.0,0.0,0.0,0.0,0.0,0.0,0.0,0.0,0.0,0.0,0.0,0.0,0.0,0.0,0.0,0.0,0.0,0.0,0.0,0.0,0.0,0.0,0.0,0.0,0.0,0.0,0.0,0.0,0.0,0.0,0.0,0.0,0.0,0.0,0.0,0.0,0.0,0.0,0.0,0.0,0.0,0.0,0.0,0.0,0.0,0.0,0.0,0.0,0.0,0.0,0.0,0.0,0.0,0.0,0.0,0.0,0.0,0.0,0.0,0.0,0.0,0.0,0.0,0.0,0.0,0.0,0.0,0.0,0.0,0.0,0.0,0.0,0.0,0.0,0.0,0.0,0.0,0.0,0.0,0.0,0.0,0.0,0.0,0.0,0.0,0.0,0.0,0.0,0.0,0.0,0.0,0.0,0.0,0.0,0.0,0.0,0.0,0.0,0.0,0.0,0.0,0.0,0.0,0.0,0.0,0.0,0.0,0.0,0.0,0.0,0.0,0.0,0.0,0.0,0.0,0.0,0.0,0.0,0.0,0.0,0.0,0.0,0.0,0.0,0.0,0.0,0.0,0.0,0.0,0.0,0.0,0.0,0.0,0.0,0.0,0.0,0.0,0.0,0.0,0.0,0.0,0.0,0.0,0.0,0.0,0.0,0.0,0.0,0.0,0.0,0.0,0.0,0.0,0.0,0.0,0.0,0.0,0.0,0.0,0.0,0.0,0.0,0.0,0.0,0.0,0.0,0.0,0.0,0.0,0.0,0.0,0.0,0.0,0.0,0.0,0.0,0.0,0.0,0.0,0.0,0.0,0.0,0.0,0.0,0.0,0.0,0.0,0.0,0.0,0.0,0.0,0.0,0.0,0.0,0.0,0.0,0.0,0.0,0.0,0.0,0.0,0.0,0.0,0.0,0.0,0.0,0.0,0.0,0.0,0.0,0.0,0.0,0.0,0.0,0.0,0.0,0.0,0.0,0.0,0.0,0.0,0.0,0.0,0.0,0.0,0.0,0.0,0.0,0.0,0.0,0.0,0.0,0.0,0.0,0.0,0.0,0.0,0.0,0.0,0.0,0.0,0.0,0.0,0.0,0.0,0.0,0.0,0.0,0.0,0.0,0.0,0.0,0.0,0.0,0.0,0.0,0.0,0.0,0.0,0.0,0.0,0.0,0.0,0.0,0.0,0.0,0.0,0.0,0.0,0.0,0.0,0.0,0.0,0.0,0.0,0.0,0.0,0.0,0.0,0.0,0.0,0.0,0.0,0.0,0.0,0.0,0.0,0.0,0.0,0.0,0.0,0.0,0.0,0.0,0.0,0.0,0.0,0.0,0.0,0.0,0.0,0.0,0.0,0.0,0.0,1.7843,1.7094,0.0,0.0,0.0,0.0,0.0,0.0,0.0,0.0,0.0,0.0,0.0,0.0,0.0,0.0,0.0,0.0,0.0,0.0,0.0,0.0,0.0,0.0,0.0,0.0,0.0,0.0,0.0,0.0,0.0,0.0,0.0,0.0,0.0,0.0,0.0,0.0,0.0,1.2915,1.3098,1.3411,1.3802,1.3802,1.3587,1.3196,0.0,0.0,0.0,0.0,0.0,0.0,0.0,0.0,0.0,0.0,0.0,0.0,0.0,0.0,0.0,0.0,0.0,0.0,0.0,0.0,0.0,0.0,0.0,0.0,0.0,0.0,0.0,0.0,0.0,0.0,0.0,0.0,0.0,0.0,0.0,0.0,0.0,0.0,0.0,0.0,0.0,0.0,0.0,0.0,0.0,0.0,0.0,0.0,0.0,0.0,0.0,0.0,0.0,0.0,0.0,0.0,0.0,0.0,0.0,0.0,0.0,0.0,0.0,0.0,0.0,0.0,0.0,0.0,0.0,0.0,1.9183,1.8418,0.0,0.0,0.0,0.0,0.0,0.0,0.0,0.0,0.0,0.0,0.0,0.0,0.0,0.0,0.0,0.0,0.0,0.0,0.0,0.0,0.0,0.0,0.0,1.2915,1.2935,1.3001,1.2954,1.2935,0.0,0.0,0.0,0.0,0.0,0.0,1.2915,1.2915,1.2922,1.3001,1.3555,1.4238,1.5034,1.5171,1.4877,1.4166,1.427,0.0,0.0,0.0,0.0,0.0,0.0,0.0,0.0,0.0,0.0,0.0,0.0,0.0,0.0,0.0,0.0,0.0,0.0,0.0,0.0,0.0,0.0,0.0,0.0,0.0,0.0,0.0,0.0,0.0,0.0,0.0,0.0,0.0,0.0,0.0,0.0,0.0,0.0,0.0,0.0,0.0,0.0,0.0,0.0,0.0,0.0,0.0,0.0,0.0,0.0,0.0,0.0,0.0,0.0,0.0,0.0,0.0,0.0,0.0,0.0,0.0,0.0,0.0,2.2892,2.2659,2.1047,2.1351,2.2043,2.2922,2.1083,2.0209,2.0042,1.943,0.0,0.0,0.0,0.0,0.0,0.0,0.0,0.0,0.0,0.0,0.0,0.0,0.0,0.0,0.0,0.0,0.0,0.0,0.0,1.2915,1.2915,1.2915,1.304,1.3398,1.3098,1.304,1.3398,0.0,0.0,0.0,0.0,1.2915,1.2915,1.2915,1.3079,1.3405,1.4576,1.5425,1.5948,1.6695,1.6989,1.6832,1.5708,1.5025,1.4687,0.0,0.0,0.0,0.0,0.0,0.0,0.0,0.0,0.0,0.0,0.0,0.0,0.0,0.0,0.0,0.0,0.0,0.0,0.0,0.0,0.0,0.0,0.0,0.0,0.0,0.0,0.0,0.0,0.0,0.0,0.0,0.0,0.0,0.0,0.0,0.0,0.0,0.0,0.0,0.0,0.0,1.6876,1.6876,0.0,0.0,0.0,0.0,0.0,0.0,0.0,0.0,0.0,0.0,0.0,0.0,0.0,2.0958,2.2397,2.2664,2.3521,2.5025,2.5257,2.4441,2.2817,2.4334,2.5915,2.7287,2.4046,0.0,2.1546,2.071,0.0,0.0,0.0,0.0,0.0,0.0,0.0,0.0,0.0,0.0,0.0,0.0,0.0,0.0,0.0,0.0,0.0,0.0,0.0,0.0,0.0,1.3242,1.3398,1.3802,1.3678,1.3542,1.3503,1.334,0.0,0.0,1.2915,1.2915,1.2915,1.3118,1.3789,1.4955,1.6011,1.7008,1.7907,1.8516,1.8963,1.9159,1.8592,1.7556,1.6246,1.5977,0.0,0.0,0.0,0.0,0.0,0.0,0.0,0.0,0.0,0.0,0.0,0.0,0.0,0.0,0.0,0.0,0.0,0.0,0.0,0.0,0.0,0.0,0.0,0.0,0.0,0.0,0.0,0.0,0.0,0.0,0.0,0.0,0.0,0.0,0.0,0.0,0.0,0.0,0.0,1.7177,1.811,1.8505,1.8532,1.8412,0.0,0.0,0.0,0.0,0.0,0.0,0.0,0.0,0.0,2.2057,2.2956,2.3806,2.4543,2.5523,2.6426,2.7162,2.8137,2.8224,2.7497,2.8278,2.9031,2.9668,2.8134,2.6743,2.5305,2.2967,2.1774,2.1341,0.0,0.0,0.0,0.0,2.1017,2.3639,0.0,0.0,0.0,0.0,0.0,0.0,0.0,0.0,0.0,0.0,0.0,0.0,1.36,1.3854,1.416,1.4576,1.4615,1.4439,1.401,1.3776,1.3464,1.3079,1.2942,1.2942,1.3059,1.3769,1.4955,1.6594,1.7575,1.8691,1.998,2.0273,2.0644,2.1075,2.0977,1.9804,1.7868,1.7386,1.6551,1.5508,0.0,0.0,0.0,0.0,0.0,0.0,0.0,0.0,0.0,0.0,0.0,0.0,0.0,0.0,0.0,0.0,0.0,0.0,0.0,0.0,0.0,0.0,0.0,0.0,0.0,0.0,0.0,0.0,0.0,0.0,0.0,0.0,0.0,0.0,0.0,0.0,0.0,1.8303,1.9357,2.0001,1.9844,1.9726,0.0,0.0,0.0,0.0,0.0,0.0,2.6333,2.5952,2.5118,2.3807,2.502,2.6119,2.7038,2.8323,2.8965,2.8984,3.0703,3.1532,3.1556,3.1534,3.1554,3.1534,3.1094,3.0155,2.8738,2.5672,2.4156,2.363,2.2396,2.163,2.1288,2.174,2.2691,2.4484,0.0,0.0,0.0,0.0,0.0,0.0,0.0,0.0,0.0,0.0,0.0,1.362,1.4036,1.481,1.5488,1.5968,1.5987,1.5796,1.5337,1.4523,1.3899,1.3496,1.3098,1.3079,1.3464,1.5112,1.6598,1.7893,1.9162,2.0469,2.1778,2.1798,2.2012,2.2402,2.1992,2.0859,1.916,1.8713,1.7561,1.6026,1.5527,0.0,0.0,0.0,0.0,0.0,0.0,0.0,0.0,0.0,0.0,0.0,0.0,0.0,0.0,0.0,0.0,0.0,0.0,0.0,0.0,0.0,0.0,0.0,0.0,0.0,0.0,0.0,0.0,0.0,0.0,0.0,0.0,0.0,0.0,0.0,0.0,0.0,0.0,2.1054,2.1504,0.0,0.0,0.0,0.0,2.0411,2.372,2.6402,2.8073,2.6596,2.5657,2.5581,2.5664,2.7297,3.0618,3.0721,3.0762,3.0781,3.248,3.3262,3.3266,3.3254,3.3274,3.3195,3.1602,3.083,3.0624,2.8807,2.7048,2.5551,2.5478,2.4421,2.3165,2.4834,2.5508,2.563,0.0,0.0,0.0,0.0,0.0,0.0,0.0,0.0,1.245,1.3192,1.3639,1.4264,1.5288,1.6168,1.6871,1.7301,1.7324,1.691,1.5928,1.5019,1.4238,1.3522,1.3359,1.388,1.5146,1.6598,1.8086,1.9667,2.0957,2.2109,2.3147,2.3398,2.3594,2.373,2.3574,2.3027,2.209,2.0527,1.9043,1.764,1.6953,1.6152,0.0,0.0,0.0,0.0,0.0,0.0,0.0,0.0,0.0,0.0,0.0,0.0,0.0,0.0,0.0,0.0,0.0,0.0,0.0,0.0,0.0,0.0,0.0,0.0,0.0,0.0,0.0,0.0,0.0,0.0,0.0,0.0,0.0,0.0,0.0,0.0,0.0,2.3981,2.4254,0.0,2.4609,2.2881,2.1872,2.2181,2.5418,2.7637,2.8282,2.7703,2.6854,2.5755,2.6774,2.8496,3.088,3.0908,3.1445,3.2519,3.3094,3.3386,3.3386,3.3386,3.3386,3.3347,3.2793,3.1894,3.0849,3.0235,2.8967,2.7363,2.7385,2.6978,2.6945,3.1059,3.2592,3.258,0.0,0.0,0.0,0.0,0.0,0.0,0.0,1.2498,1.2494,1.3374,1.3991,1.4902,1.6378,1.7438,1.8203,1.8613,1.8635,1.8047,1.6633,1.5581,1.4668,1.3965,1.4219,1.5131,1.6695,1.8125,1.9648,2.125,2.2383,2.3379,2.4242,2.4355,2.4469,2.4629,2.4629,2.4394,2.3906,2.2502,2.0859,1.9201,1.8359,1.7516,1.6656,0.0,0.0,0.0,0.0,0.0,0.0,0.0,0.0,0.0,0.0,0.0,0.0,0.0,0.0,0.0,0.0,0.0,0.0,0.0,0.0,0.0,0.0,0.0,0.0,0.0,0.0,0.0,0.0,0.0,0.0,0.0,0.0,0.0,0.0,2.3538,2.5312,2.644,2.6693,2.6967,2.7448,2.5623,2.4534,2.4828,2.7532,2.9159,2.9182,2.8896,2.8352,2.7463,2.8577,3.0,3.1734,3.1751,3.2305,3.3386,3.3386,3.3386,3.3481,3.5673,3.6639,3.6639,3.6639,3.601,3.4985,3.4985,3.3862,3.1949,2.9942,2.918,2.9853,3.5458,3.7512,3.7411,0.0,0.0,0.0,0.0,0.0,0.0,1.2786,1.2915,1.304,1.3464,1.4277,1.5503,1.7243,1.8572,1.9492,1.9902,1.9883,1.918,1.7497,1.6133,1.5234,1.4858,1.5694,1.6754,1.8049,1.9784,2.129,2.2576,2.3437,2.432,2.5141,2.4687,2.4727,2.516,2.516,2.4926,2.4469,2.4469,2.3027,2.0683,1.9765,1.8867,1.8066,0.0,0.0,0.0,0.0,0.0,0.0,0.0,0.0,0.0,0.0,0.0,0.0,0.0,0.0,0.0,0.0,0.0,0.0,0.0,0.0,0.0,0.0,0.0,0.0,0.0,0.0,0.0,0.0,0.0,0.0,0.0,0.0,0.0,2.3887,2.5742,2.7422,2.8281,2.875,2.918,2.9637,2.8131,2.7467,2.8364,2.9995,3.0991,3.0976,3.0165,3.0102,3.0941,3.0993,3.1759,3.3384,3.34,3.3386,3.3386,3.3386,3.3386,3.3639,4.0147,4.3115,4.3115,4.3039,4.3014,4.3014,4.3014,4.1758,3.9228,3.3431,3.117,3.1854,3.7607,3.9697,3.9371,0.0,0.0,0.0,0.0,0.0,0.0,1.2713,1.2915,1.3157,1.3841,1.498,1.6383,1.8088,1.9434,2.0273,2.039,1.9843,1.873,1.7015,1.5961,1.5508,1.5733,1.6871,1.8223,1.9843,2.127,2.2754,2.4398,2.4922,2.562,2.6484,2.6367,2.6342,2.6484,2.6484,2.6406,2.6264,2.5977,2.5254,2.4137,2.2323,2.1093,2.0274,0.0,0.0,0.0,0.0,0.0,0.0,0.0,0.0,0.0,0.0,0.0,0.0,0.0,0.0,0.0,0.0,0.0,0.0,0.0,0.0,0.0,0.0,0.0,0.0,0.0,0.0,0.0,0.0,0.0,0.0,0.0,2.5234,2.6836,2.6211,2.7715,2.9324,3.0488,3.0742,3.0976,3.1436,3.0479,3.0199,3.1074,3.2104,3.2714,3.2707,3.2474,3.2475,3.2711,3.2701,3.2928,3.3386,3.3399,3.3386,3.3386,3.3386,3.3386,3.3678,4.1741,4.5397,4.5296,4.3718,4.3014,4.3014,4.3014,4.2637,4.177,3.8554,3.7263,3.7501,3.9103,3.9697,3.9598,0.0,0.0,0.0,0.0,0.0,0.0,1.2252,1.2713,1.3096,1.3605,1.4926,1.6523,1.8403,1.9473,2.0195,2.0566,1.9609,1.842,1.7074,1.6332,1.6215,1.6871,1.8301,1.9823,2.1368,2.2854,2.416,2.5352,2.5952,2.6498,2.6986,2.6986,2.6986,2.7006,2.7383,2.7461,2.7285,2.7402,2.7207,2.6674,2.5449,2.3962,2.2498,2.209,2.1484,2.082,2.0391,1.9962,1.9609,1.9396,0.0,0.0,0.0,0.0,0.0,0.0,0.0,0.0,0.0,0.0,0.0,0.0,0.0,0.0,0.0,0.0,0.0,0.0,0.0,0.0,0.0,0.0,0.0,0.0,2.748,2.916,2.9394,3.0449,3.1523,3.248,3.2754,3.2898,3.307,3.2385,3.2161,3.2664,3.3822,3.4484,3.4505,3.4482,3.4509,3.4509,3.4478,3.4479,3.4479,3.4479,3.4479,3.4512,3.7402,3.8786,3.8985,4.4002,4.6301,4.6225,4.4945,4.3869,4.3014,4.3014,4.3014,4.2788,0.0,0.0,0.0,0.0,3.9697,3.9698,0.0,0.0,0.0,0.0,0.0,0.0,1.17,1.2398,1.2926,1.3189,1.4483,1.6176,1.8227,1.8887,1.9471,2.0253,1.9122,1.8088,1.738,1.6976,1.723,1.8262,1.996,2.1485,2.2773,2.4418,2.5469,2.5932,2.6693,2.7084,2.7168,2.7168,2.7162,2.724,2.8027,2.821,2.7956,2.8672,2.8769,2.8437,2.8437,2.6973,2.4746,2.4398,2.3887,2.3335,2.2986,2.2539,2.2031,2.164,0.0,0.0,0.0,0.0,0.0,0.0,0.0,0.0,0.0,0.0,0.0,0.0,0.0,0.0,0.0,0.0,0.0,0.0,0.0,0.0,0.0,0.0,0.0,0.0,2.9481,3.1191,3.2793,3.3457,3.3867,3.4153,3.4473,3.4602,3.4347,3.3852,3.3493,3.3415,3.501,3.5997,3.601,3.5982,0.0,0.0,0.0,3.5982,3.5982,3.6755,3.7139,3.724,4.3388,4.6301,4.6301,4.6301,4.6301,4.6301,4.6301,4.5045,4.3014,4.3014,4.3014,4.2788,4.0551,3.9697,3.9697,3.9697,3.9697,3.9697,0.0,0.0,0.0,0.0,0.0,0.0,1.1963,1.2239,1.2701,1.3766,1.4784,1.5961,1.7461,1.8008,1.832,1.8496,1.762,1.6999,1.6859,1.7093,1.8123,1.9999,2.1779,2.3284,2.4574,2.563,2.6529,2.7311,2.7487,2.7741,2.8047,2.8047,2.8223,2.8528,2.8703,2.8945,2.9246,2.9403,2.9422,2.9344,2.9344,2.8425,2.7057,2.6979,2.6211,2.5191,2.5113,2.4352,2.3418,2.332,2.25,2.1406,2.0879,1.9553,0.0,0.0,0.0,0.0,0.0,0.0,0.0,0.0,0.0,0.0,0.0,0.0,0.0,0.0,0.0,0.0,0.0,0.0,0.0,2.962,3.1768,3.3586,3.4238,3.5312,3.5684,3.4687,3.4648,3.4602,3.4347,3.4375,3.4174,3.3453,3.5012,3.5994,3.5991,3.5982,3.5982,3.5982,3.5982,3.5982,3.5982,4.151,4.4312,4.4312,4.5671,0.0,4.6301,4.6301,4.6301,4.6301,4.6301,4.5045,4.3014,4.3014,4.3014,4.2788,4.0551,3.9697,3.9697,3.9697,3.9697,3.9697,0.0,0.0,0.0,0.0,0.0,0.0,1.1254,1.1627,1.2084,1.2845,1.399,1.5161,1.6269,1.6582,1.6781,1.7028,1.6656,1.668,1.7308,1.8164,1.9609,2.1758,2.3323,2.4652,2.5727,2.6607,2.7252,2.7702,2.8086,2.8398,2.8613,2.8828,2.907,2.9258,2.9473,2.9687,2.9931,3.0165,3.0263,3.0263,3.0263,2.9872,2.9266,2.8816,2.8086,2.7279,2.7064,2.6465,2.5649,2.498,2.4199,2.3342,2.248,2.1132,1.9767,0.0,0.0,0.0,0.0,0.0,0.0,0.0,0.0,0.0,0.0,0.0,0.0,0.0,0.0,2.4477,2.605,0.0,3.0478,3.1613,3.3158,3.4489,3.526,3.5938,3.6098,3.5416,3.5351,3.5318,3.5145,3.5287,3.5181,3.4729,3.5495,3.5997,3.5976,3.5982,3.5982,3.5982,3.9333,3.9497,3.6016,4.2864,4.6301,4.6301,4.6301,4.6301,4.6301,4.6301,4.6301,4.6301,4.6301,4.5045,4.3014,4.3014,4.3014,4.2889,4.1783,4.0651,3.9697,3.9697,3.9697,3.9697,0.0,0.0,0.0,0.0,0.0,0.0,0.0,1.094,1.1353,1.1945,1.3093,1.4192,1.5064,1.5142,1.5332,1.5811,1.5909,1.6578,1.801,1.9396,2.1113,2.3279,2.4707,2.5884,2.6738,2.7545,2.7976,2.8054,2.8711,2.9043,2.9062,2.9422,2.9637,2.9735,3.0067,3.0254,3.0351,3.0723,3.0898,3.0898,3.0898,3.0898,3.0801,3.0028,2.9434,2.8984,2.8574,2.8047,2.7389,2.625,2.5508,2.4906,2.3893,2.2598,2.1308,2.0508,1.961,0.0,0.0,0.0,0.0,0.0,0.0,0.0,0.0,2.1816,2.3281,2.4219,2.5425,2.685,2.8594,2.9922,3.1377,3.3445,3.4255,3.5003,3.6045,3.6219,3.6131,3.5884,3.5957,3.5982,3.5982,3.5982,3.5982,3.5982,3.5982,3.5982,3.5982,3.5982,3.5982,3.5982,4.2706,4.3638,3.8055,4.3513,4.6301,4.6301,4.6301,4.6301,4.6301,4.6301,4.6301,4.6276,4.5849,4.4644,4.3014,4.3014,4.3014,4.3014,4.3014,4.1909,4.0275,3.9848,3.9697,3.9697,0.0,0.0,0.0,0.0,0.0,0.0,0.0,0.0,1.0842,1.2558,1.2925,1.334,1.4153,1.425,1.4439,1.4897,1.5273,1.6352,1.8403,2.0118,2.201,2.4157,2.5874,2.7207,2.8066,2.8535,2.8965,2.9383,2.9481,2.952,2.952,2.9579,2.9794,3.0137,3.0176,3.043,3.082,3.0859,3.0898,3.0898,3.0898,3.0898,3.084,3.0312,2.9891,2.9461,2.9004,2.8086,2.7012,2.6484,2.5786,2.5063,2.4926,2.3711,2.2285,2.1797,2.0762,1.9668,1.9217,1.9355,1.9727,2.0136,2.0997,2.1939,0.0,2.3851,2.516,2.6387,2.765,2.9054,3.0811,3.1894,3.3086,3.4883,3.5519,3.6064,3.6719,3.7014,3.6696,3.5424,3.5723,3.5982,3.5982,3.5982,3.5982,3.5982,3.5982,3.5982,3.5982,3.5982,3.5982,3.5982,4.2706,4.5914,4.5159,4.5914,4.6301,4.6301,4.6301,4.6301,4.6301,4.6301,4.6301,4.62,4.4217,4.324,4.3014,4.3014,4.3014,4.3014,4.3014,4.2864,4.2386,4.0425,3.9697,3.9697,0.0,0.0,0.0,0.0,0.0,0.0,0.0,0.0,1.0231,1.1932,1.2355,1.2722,1.334,1.3398,1.3672,1.4342,1.5005,1.643,1.8849,2.0859,2.2908,2.5074,2.6836,2.8047,2.8652,2.9082,2.9422,2.9598,2.9833,2.997,2.997,3.0243,3.0458,3.0605,3.0605,3.0703,3.0898,3.0898,3.0898,3.0898,3.0898,3.0723,3.0449,3.0,2.9129,2.8086,2.8164,2.7519,0.0,2.5566,2.5,2.4609,2.4102,2.3435,2.2732,2.209,2.1309,2.0566,2.0175,2.0352,2.082,2.1523,2.2736,2.3987,2.4867,2.6236,2.7598,2.8652,2.9707,3.085,3.2313,3.3125,3.4023,3.5508,3.6167,3.6627,3.6862,3.6277,3.5384,3.4263,3.4343,3.4876,3.5923,3.5982,3.5982,3.5982,3.5982,3.5982,3.5982,3.9823,4.0148,3.6118,4.2706,4.6301,4.6301,4.6301,4.6954,4.8209,4.6928,4.6301,4.6301,4.6301,4.6301,4.6175,4.3969,4.3014,4.3014,4.3014,4.3014,4.3014,4.3014,4.3014,4.2889,4.1959,4.1632,4.1456,0.0,0.0,0.0,0.0,0.0,0.0,0.0,0.0,0.0,0.0,1.1847,1.2266,1.2844,1.2915,1.3176,1.388,1.4732,1.6289,1.8769,2.1074,2.3301,2.5445,2.7207,2.8418,2.9082,2.9442,2.9715,2.997,3.0234,3.0391,3.0391,3.0742,3.0898,3.0898,3.1016,3.0996,3.0898,3.1016,3.0918,3.0703,3.0703,3.0351,2.9785,2.9285,2.7969,2.6523,2.6861,2.6353,2.5336,2.4121,2.3711,2.3613,2.2967,2.2693,2.2457,2.1894,2.1464,2.1151,2.0996,2.1426,2.2147,2.3142,2.4609,2.606,2.7057,2.8398,2.9707,3.0566,3.125,3.2051,3.3172,3.3691,3.4316,3.5644,3.6289,3.6666,3.6661,3.5307,3.4042,3.3276,3.3021,3.3553,3.5142,3.5708,3.5982,3.5982,3.5982,3.6196,3.6699,4.3382,4.4927,3.9903,4.4587,4.723,4.723,4.723,4.8008,4.9565,4.7983,4.6903,4.6301,4.6301,4.6301,4.6175,4.3969,4.3014,4.3014,4.3014,4.3014,4.3014,4.3014,4.3014,4.3014,4.3014,4.3014,4.2788,0.0,0.0,0.0,0.0,0.0,0.0,0.0,0.0,0.0,0.0,0.0,1.1948,1.2817,1.2915,1.3079,1.3483,1.433,1.5723,1.791,2.0469,2.2873,2.5024,2.6783,2.8288,2.9559,2.9598,3.0009,3.0859,3.0859,3.0859,3.0859,3.0879,3.0898,3.0918,3.1328,3.1269,3.0918,3.1328,3.0996,3.0215,3.0215,2.9707,2.884,2.8073,2.6666,2.516,2.516,2.4382,2.3147,2.2267,2.1974,2.1953,2.1934,2.162,2.1249,2.1229,2.121,2.1308,2.1738,2.2775,2.4023,2.5289,2.6621,2.7936,2.9207,3.0204,3.1074,3.1964,3.2159,3.2433,3.3262,3.3406,3.3867,3.5195,3.5776,3.602,3.603,3.4525,3.3239,3.2692,3.2129,3.2196,3.3347,3.4986,3.5982,3.5982,3.5982,3.6738,3.8435,4.5499,4.9393,4.9174,4.9393,4.949,4.949,4.949,4.9515,4.959,4.9515,4.8385,4.6301,4.6301,4.6301,4.6175,4.3969,4.3014,4.3014,4.3014,4.3014,4.3014,4.3014,4.3014,4.3014,4.3014,4.3014,4.2989,0.0,0.0,0.0,0.0,0.0,0.0,0.0,0.0,0.0,0.0,0.0,0.0,0.0,0.0,0.0,0.0,1.401,1.5128,1.6999,1.9298,2.1406,2.3281,2.5312,2.6719,2.7467,2.8034,2.8484,2.8777,2.9316,2.957,2.959,2.9883,3.0185,3.043,3.0586,3.0742,3.0879,3.0723,3.0312,2.9755,2.916,2.8262,2.7109,2.5957,2.4277,2.2402,0.0,2.1153,2.0879,2.0001,1.9708,1.9669,1.9394,1.9609,2.0059,2.0625,2.1406,2.2284,2.3301,2.4727,2.623,2.7493,2.8828,3.0028,3.0703,3.1328,3.1846,3.214,3.1934,3.1914,3.248,3.2363,3.248,3.3496,3.4022,3.4374,3.4701,3.4225,3.3571,3.2832,3.2539,3.2461,3.2578,3.3887,3.5719,3.8071,3.6856,3.8908,4.5533,4.8248,4.959,4.959,4.959,4.959,4.959,4.959,4.959,4.9565,4.8109,4.7029,4.6301,4.6301,4.6301,4.6175,4.3969,4.3014,4.3014,4.3014,4.3014,4.3014,4.3014,4.3014,4.3014,4.3014,4.3014,4.3014,0.0,0.0,0.0,0.0,0.0,0.0,0.0,0.0,0.0,0.0,0.0,0.0,0.0,0.0,0.0,0.0,0.0,1.4484,1.5922,1.791,1.9707,2.1289,2.3259,2.4629,2.5239,2.5942,2.6451,2.6763,2.7285,2.7715,2.8027,2.8327,2.8652,2.9062,2.9219,2.9375,2.9492,2.918,2.8633,2.7936,2.7187,2.6055,2.4691,2.363,2.201,0.0,1.9023,1.8592,1.8477,1.8069,1.8032,1.8127,1.7871,1.8574,1.9687,2.0547,2.1934,2.3454,2.4766,2.6387,2.7981,2.9297,3.0488,3.1426,3.1699,3.1973,3.212,3.1807,3.1113,3.0625,3.0791,3.0547,3.0703,3.1699,3.248,3.3242,3.3997,3.3977,3.3633,3.3086,3.2754,3.2855,3.3497,3.4432,3.6163,3.8916,3.8958,4.1993,4.9212,4.9601,4.959,4.959,4.959,4.959,4.959,4.959,4.9188,4.841,4.6979,4.6301,4.6301,4.6301,4.6301,4.6175,4.3969,4.3014,4.3014,4.3014,4.3014,4.3014,4.3014,4.3014,4.3115,4.3865,4.3693,4.3014,0.0,0.0,0.0,0.0,0.0,0.0,0.0,0.0,0.0,0.0,0.0,0.0,0.0,0.0,0.0,0.0,0.0,0.0,1.4682,1.6324,1.7829,1.908,2.0762,2.2072,2.2934,2.3342,2.3968,2.4789,2.4871,2.5297,2.6133,2.6177,2.6387,2.6811,2.7272,2.7252,2.685,2.6811,2.6094,2.4926,2.4394,2.3203,2.1681,2.1171,1.9923,1.8364,1.7578,1.6774,1.6163,1.6547,1.7012,1.7438,1.7516,1.8672,2.0176,2.1113,2.2888,2.4883,2.6211,2.7812,2.9414,3.0703,3.167,3.2257,3.2218,3.214,3.1846,3.0976,2.9726,2.8672,2.8262,2.8184,2.8594,2.9883,3.124,3.255,3.386,3.3691,3.3425,3.3425,3.2866,3.3436,3.5837,3.6672,3.759,3.8805,4.208,4.5611,4.9347,4.9571,4.959,4.959,4.959,4.959,4.959,4.959,4.8485,4.6301,4.6301,4.6301,4.6301,4.6301,4.6301,4.62,4.4066,4.3115,4.3014,4.3065,4.3037,4.3009,4.2986,4.3065,4.3441,4.5522,4.5149,4.3586,0.0,0.0,0.0,0.0,0.0,0.0,0.0,0.0,0.0,0.0,0.0,0.0,0.0,0.0,0.0,0.0,0.0,0.0,1.3809,1.4858,1.5894,1.6868,1.7966,1.8787,1.9316,1.9708,2.0215,2.0781,2.1426,2.1992,2.2537,2.2871,2.346,2.4183,2.4281,2.4613,2.5015,2.4371,2.3728,2.3047,2.1621,2.041,1.9319,1.8247,1.7386,1.6656,1.6113,1.5992,1.612,1.6222,1.6953,1.8008,1.8965,2.0234,2.168,2.3142,2.5137,2.7213,2.8789,3.0488,3.1953,3.2617,3.2949,3.293,3.2335,3.1436,3.0449,2.959,2.8144,2.6992,2.6894,2.6602,2.6889,2.8516,2.9863,3.1269,3.2891,3.3574,3.3906,3.3906,3.5251,3.6384,3.7055,4.0208,4.2459,4.3105,4.3674,4.5398,4.8607,4.9307,4.959,4.959,4.959,4.959,4.959,4.959,4.8485,4.6301,4.6301,4.6301,4.6301,4.6301,4.6301,4.6276,4.5698,4.4518,4.3065,4.3865,4.3729,4.3008,4.2994,4.4019,4.5522,4.61,4.8763,5.1632,0.0,0.0,0.0,0.0,0.0,0.0,0.0,0.0,0.0,0.0,0.0,0.0,0.0,0.0,0.0,0.0,0.0,0.0,0.0,1.3848,1.4447,1.4936,1.5796,1.6348,1.6582,1.6996,1.7441,1.7905,1.8394,1.8944,1.9532,1.9785,2.0293,2.0918,2.0918,2.1172,2.1542,2.0879,2.0352,0.0,0.0,1.7715,1.684,1.6137,1.5723,1.5483,1.5234,1.5796,1.677,1.7318,1.8103,1.9083,2.0566,2.1953,2.334,2.5035,2.709,2.9129,3.0673,3.2187,3.3418,3.3652,3.3555,3.3105,3.1894,3.0586,2.9238,2.7786,2.6309,2.5195,2.5,2.4898,2.5484,2.7422,2.8965,3.0664,3.2773,3.4309,3.514,3.4962,3.7292,3.9038,3.9442,4.2431,4.5035,4.6741,4.6624,4.7189,4.8899,4.9386,4.9611,4.959,4.959,4.959,4.959,4.959,4.8962,4.7732,4.6778,4.6301,4.6301,4.6301,4.6301,4.6301,4.63,4.5439,4.4091,4.4302,4.4199,4.3999,4.4299,4.5221,4.6476,4.7741,5.0348,5.2843,0.0,0.0,0.0,0.0,0.0,0.0,0.0,0.0,0.0,0.0,0.0,0.0,0.0,0.0,0.0,0.0,0.0,0.0,0.0,0.0,1.3418,1.3418,1.4141,1.4545,1.4545,1.4883,1.5293,1.5752,1.5752,1.6183,1.6953,1.6953,1.7168,1.7578,1.7578,1.7601,1.7637,1.7243,1.6816,1.641,1.5933,1.5302,1.4623,0.0,1.4604,1.474,1.4916,1.605,1.7673,1.8963,1.9766,2.0547,2.2362,2.3825,2.5249,2.7012,2.9004,3.0898,3.2198,3.343,3.4329,3.4237,3.3921,3.3057,3.1113,2.9531,2.7903,2.5874,2.4394,2.3359,2.3006,2.3281,2.4238,2.6406,2.8429,3.053,3.2812,3.5177,3.6567,3.638,3.9109,4.1388,4.2434,4.4345,4.6614,4.9379,4.9784,4.9891,4.9816,4.9756,4.9706,4.9615,4.959,4.959,4.959,4.959,4.959,4.9565,4.7657,4.6602,4.6296,4.6311,4.6311,4.6301,4.6298,4.6045,4.5531,4.4744,4.4719,4.5271,4.6007,4.6302,4.6681,4.9587,5.0931,5.1206,0.0,0.0,0.0,0.0,0.0,0.0,0.0,0.0,0.0,0.0,0.0,0.0,0.0,0.0,0.0,0.0,0.0,0.0,0.0,0.0,0.0,1.3001,1.3137,1.3228,1.3228,1.3294,1.3548,1.3945,1.3945,1.4199,1.466,1.466,1.4908,1.5366,1.5366,1.5547,1.5825,1.5425,1.521,1.5059,1.4258,1.3867,1.3691,1.3352,1.3633,0.0,1.5478,1.6754,1.8105,1.9375,2.0781,2.2401,2.4489,2.6284,2.7969,2.9707,3.1484,3.3066,3.4004,3.4961,3.5569,3.5117,3.473,3.3618,3.0257,2.7806,2.5854,2.4434,2.281,2.1737,2.2051,2.2168,2.2932,2.5082,2.8178,3.069,3.1702,3.4451,3.6854,3.8166,4.0738,4.3248,4.5281,4.7857,4.9476,4.9601,5.0739,5.1297,5.0996,5.0677,5.0225,4.9615,4.959,4.959,4.959,4.959,4.959,4.959,4.9213,4.8083,4.6296,4.6303,4.6284,4.6301,4.6311,4.6259,4.6159,4.5984,4.5634,4.5279,4.6004,4.6311,4.6681,4.9587,5.2258,5.4223,0.0,0.0,0.0,0.0,0.0,0.0,0.0,0.0,0.0,0.0,0.0,0.0,0.0,0.0,0.0,0.0,0.0,0.0,0.0,0.0,0.0,1.2915,1.2915,1.2915,1.2915,1.2915,1.2981,1.3196,0.0,1.3281,1.3477,1.3477,1.3607,1.3802,1.3802,1.3919,1.4082,1.39,1.3802,1.3763,1.3352,1.3196,1.3176,1.2961,1.3398,0.0,1.5332,1.6578,1.7871,1.916,2.0898,2.2869,2.5011,2.6914,2.8672,3.0644,3.2055,3.3263,3.4591,3.5476,3.5932,3.5685,3.4158,3.1883,2.86,2.6573,2.4824,2.2849,2.1621,2.0977,2.1172,2.1602,2.2521,2.4414,2.7147,2.9721,3.1682,3.4383,3.7096,3.9639,4.2434,4.4757,4.637,4.8625,5.0048,5.0174,5.1022,5.1556,5.1548,5.1204,5.059,4.9615,4.959,4.959,4.959,4.959,4.959,4.959,4.959,4.9038,4.7977,4.683,4.6291,4.6301,4.6301,4.6315,4.6309,4.6311,4.6095,4.5819,4.6159,4.6302,4.6861,5.1375,5.3965,5.5103,0.0,0.0,0.0,0.0,0.0,0.0,0.0,0.0,0.0,0.0,0.0,0.0,0.0,0.0,0.0,0.0,0.0,0.0,0.0,0.0,0.0,0.0,0.0,0.0,1.2915,0.0,0.0,1.2915,1.2915,0.0,0.0,0.0,0.0,0.0,1.2915,1.2915,1.2915,1.2915,1.2915,0.0,0.0,1.2915,1.2915,0.0,0.0,0.0,0.0,1.6226,1.7507,1.8631,2.0293,2.2262,2.4371,2.6543,2.8711,3.0879,3.2176,3.3251,3.4772,3.584,3.6396,3.5621,3.2585,2.9146,2.6782,2.5242,2.3693,2.1522,2.0586,2.0195,2.0293,2.0957,2.1992,2.3613,2.5974,2.8508,3.103,3.4057,3.7171,4.0306,4.3374,4.5788,4.7257,4.8871,5.0107,5.0764,5.133,5.1756,5.2026,5.1774,5.1031,4.9615,4.959,4.959,4.959,4.959,4.959,4.959,4.959,4.959,4.954,4.7805,4.6768,4.6301,4.6301,4.6301,4.6301,4.6301,4.6315,4.6293,4.6301,4.6301,4.7019,5.2986,5.5207,5.5179,0.0,0.0,0.0,0.0,0.0,0.0,0.0,0.0,0.0,0.0,0.0,0.0,0.0,0.0,0.0,0.0,0.0,0.0,0.0,0.0,0.0,0.0,0.0,0.0,0.0,0.0,0.0,1.2915,1.2915,0.0,0.0,0.0,0.0,0.0,0.0,1.2915,1.2915,1.2915,0.0,0.0,0.0,0.0,0.0,0.0,0.0,0.0,0.0,1.6126,1.7236,1.7902,1.8932,2.0294,2.2185,2.5332,2.8711,3.0879,3.2664,3.4147,3.4967,3.6737,3.7582,3.4417,2.9885,2.5987,2.5245,2.3344,2.1539,2.08,1.9668,1.8908,1.9336,1.9785,2.0547,2.1915,2.5052,2.7526,2.8053,3.2733,3.6946,3.9281,4.2576,4.5901,4.9028,5.0087,5.0796,5.1205,5.2191,5.2765,5.2801,5.2748,5.1776,4.9672,4.959,4.959,4.959,4.959,4.959,4.959,4.959,4.959,4.959,4.9375,4.8196,4.6301,4.6301,4.6301,4.6301,4.6301,4.6311,4.6305,4.6302,4.6298,4.7035,5.3019,5.5201,5.5179,0.0,0.0,0.0,0.0,0.0,0.0,0.0,0.0,0.0,0.0,0.0,0.0,0.0,0.0,0.0,0.0,0.0,0.0,0.0,0.0,0.0,0.0,0.0,0.0,0.0,0.0,1.2915,1.2915,1.2915,0.0,0.0,0.0,0.0,0.0,0.0,1.2915,1.2915,1.2915,0.0,0.0,0.0,0.0,0.0,0.0,0.0,0.0,0.0,0.0,1.6686,1.7083,1.7876,1.8948,2.0469,2.2734,2.5449,2.8633,3.1289,3.3556,3.5206,3.5944,3.5558,3.2608,2.9554,2.6741,2.4802,2.3153,2.1644,2.0137,1.918,1.8656,1.8849,1.9435,2.0235,2.1308,2.3567,2.5811,2.7581,3.034,3.4002,3.8894,4.1103,4.3852,4.7875,4.9955,5.1393,5.22,5.266,5.2888,5.2892,5.291,5.1885,4.9672,4.959,4.959,4.959,4.959,4.959,4.959,4.959,4.959,4.959,4.959,4.9113,4.8209,4.6878,4.6301,4.6301,4.6301,4.63,4.6298,4.6299,4.8508,5.1935,5.4304,5.52,5.5179,0.0,0.0,0.0,0.0,0.0,0.0,0.0,0.0,0.0,0.0,0.0,0.0,0.0,0.0,0.0,0.0,0.0,0.0,0.0,0.0,0.0,0.0,0.0,0.0,0.0,0.0,1.2915,1.2915,1.2895,1.2895,0.0,0.0,1.2895,1.2915,0.0,0.0,0.0,0.0,0.0,0.0,0.0,0.0,0.0,0.0,0.0,0.0,0.0,0.0,0.0,0.0,0.0,1.7483,1.8883,2.0177,2.2013,2.6298,2.9337,3.1908,3.4515,3.4589,3.3415,3.1099,2.9003,2.6934,2.4625,2.3064,2.1581,1.9706,1.883,1.8422,1.8422,1.9122,2.0019,2.0879,2.248,2.4408,2.6739,2.8813,3.1974,3.71,3.943,4.2278,4.6434,4.9863,5.21,5.2829,5.2895,5.2895,5.2895,5.2253,5.1205,4.9672,4.959,4.959,4.959,4.959,4.959,4.959,4.959,4.959,4.959,4.959,4.959,4.9464,4.728,4.6301,4.6301,4.6301,4.63,4.6476,4.8221,5.1514,5.5197,5.5207,5.5179,5.5179,0.0,0.0,0.0,0.0,0.0,0.0,0.0,0.0,0.0,0.0,0.0,0.0,0.0,0.0,0.0,0.0,0.0,0.0,0.0,0.0,0.0,0.0,0.0,0.0,0.0,0.0,1.2915,1.2915,1.2903,1.2903,1.2903,1.289,1.2896,1.2915,0.0,0.0,0.0,0.0,0.0,0.0,0.0,0.0,1.2942,0.0,0.0,0.0,0.0,0.0,0.0,0.0,0.0,0.0,0.0,1.8022,1.9069,2.4226,2.6973,2.9109,3.25,3.2859,3.1806,3.0053,2.765,2.5503,2.4586,2.2752,2.0859,1.9551,1.8613,1.8008,1.8008,1.8711,1.9589,2.0468,2.2012,2.3571,2.4949,2.8679,3.1826,3.3275,3.7616,4.1851,4.5294,5.003,5.287,5.2895,5.2895,5.2895,5.2895,5.082,4.9615,4.959,4.959,4.959,4.959,4.959,4.959,4.959,4.959,4.959,4.959,4.959,4.959,4.9464,4.728,4.6301,4.6301,4.6301,4.6311,4.6889,5.2799,5.5155,5.5214,5.5209,5.5179,5.5179,0.0,0.0,0.0,0.0,0.0,0.0,0.0,0.0,0.0,0.0,0.0,0.0,0.0,0.0,0.0,0.0,0.0,0.0,0.0,0.0,0.0,0.0,0.0,0.0,0.0,0.0,0.0,0.0,1.2911,1.3193,1.3717,1.3174,1.2895,1.2915,1.2915,1.2915,0.0,0.0,0.0,0.0,0.0,1.2915,1.2903,0.0,0.0,0.0,0.0,0.0,0.0,0.0,0.0,0.0,0.0,0.0,0.0,1.973,2.3337,2.7016,2.9293,2.9722,2.9105,2.7389,2.6323,2.5328,2.3887,2.213,2.041,1.9083,1.8381,1.7991,1.7991,1.8711,1.9589,2.0468,2.1777,2.324,2.4867,2.8115,3.152,3.4664,3.9571,4.4165,4.7982,5.1096,5.2885,5.2904,5.2895,5.2895,5.2895,5.082,4.959,4.959,4.959,4.959,4.959,4.959,4.959,4.959,4.959,4.959,4.959,4.959,4.96,4.9501,4.8032,4.6979,4.6285,4.6299,4.6299,4.688,5.2883,5.6288,5.7663,5.5867,5.6316,5.7603,0.0,0.0,0.0,0.0,0.0,0.0,0.0,0.0,0.0,0.0,0.0,0.0,0.0,0.0,0.0,0.0,0.0,0.0,0.0,0.0,0.0,0.0,0.0,0.0,0.0,0.0,0.0,0.0,0.0,0.0,1.2783,1.2266,1.2342,1.2908,1.2911,1.2915,0.0,0.0,0.0,0.0,1.2915,1.2915,1.2915,0.0,0.0,0.0,0.0,0.0,0.0,0.0,0.0,0.0,0.0,0.0,0.0,0.0,1.9608,2.311,2.6016,2.6133,2.5132,2.4042,2.402,2.3926,2.2521,2.1114,1.9823,1.881,1.8283,1.7991,1.7991,1.8711,1.9514,2.0159,2.1655,2.3665,2.6379,2.9061,3.262,3.7611,4.2066,4.5981,4.919,5.1306,5.259,5.2879,5.2535,5.2275,5.2302,5.0569,4.959,4.959,4.959,4.959,4.959,4.959,4.959,4.959,4.959,4.959,4.959,4.959,4.962,4.9545,4.8383,4.7303,0.0,4.6282,4.6306,4.6895,5.2883,5.6799,5.877,5.6166,5.6226,5.7393,0.0,0.0,0.0,0.0,0.0,0.0,0.0,0.0,0.0,0.0,0.0,0.0,0.0,0.0,0.0,0.0,0.0,0.0,0.0,0.0,0.0,0.0,0.0,0.0,0.0,0.0,0.0,0.0,1.4381,1.3659,1.0723,0.0,1.1436,1.2727,1.2752,1.2804,0.0,0.0,0.0,0.0,1.2915,1.2915,0.0,0.0,0.0,0.0,0.0,0.0,0.0,0.0,0.0,0.0,0.0,0.0,0.0,0.0,0.0,0.0,0.0,2.2224,2.0489,2.0427,2.1133,2.1584,2.0723,1.9882,0.0,1.8654,1.8264,1.801,1.8047,1.873,1.9383,1.9697,2.1624,2.4612,2.89,3.1414,3.5209,4.1693,4.491,4.7374,4.9251,5.0896,5.2116,5.2845,5.1931,5.1272,5.1189,5.0193,4.959,4.959,4.959,4.959,4.959,4.9565,4.954,4.954,4.9547,4.9522,4.9464,4.9464,4.9494,4.9443,4.8331,4.7274,4.6308,4.653,4.6621,4.718,5.296,5.6663,5.853,5.6107,5.5179,5.5179,0.0,0.0,0.0,0.0,0.0,0.0,0.0,0.0,0.0,0.0,0.0,0.0,0.0,0.0,0.0,0.0,0.0,0.0,0.0,0.0,0.0,0.0,0.0,0.0,0.0,0.0,0.0,1.1146,1.2409,1.2651,1.1898,1.1898,0.0,0.0,0.0,0.0,0.0,0.0,0.0,0.0,1.2915,1.2915,0.0,0.0,0.0,0.0,1.2915,1.3157,0.0,0.0,0.0,0.0,0.0,0.0,0.0,0.0,1.5585,1.6202,1.8024,0.0,1.945,1.8789,1.977,2.0735,0.0,1.9432,1.8817,1.8262,1.8069,1.8142,1.8599,1.8853,1.9289,2.0236,2.1909,2.4605,2.8901,3.4948,4.0368,4.4249,4.7156,4.9363,5.0695,5.1555,5.2268,5.2845,5.2142,5.1206,5.0058,4.9754,4.959,4.959,4.959,4.959,4.959,4.9163,4.8994,4.8994,4.8825,4.8592,4.8309,4.8309,4.849,4.8727,4.787,4.7043,4.6447,4.8744,4.9659,5.0017,5.3765,5.5585,5.6047,5.5418,5.5179,5.5179,0.0,0.0,0.0,0.0,0.0,0.0,0.0,0.0,0.0,0.0,0.0,0.0,0.0,0.0,0.0,0.0,0.0,0.0,0.0,0.0,0.0,0.0,0.0,0.0,0.0,0.0,0.0,0.0,0.0,1.2305,0.0,0.0,0.0,0.0,0.0,0.0,0.0,0.0,1.2915,1.2915,1.2915,0.0,0.0,0.0,0.0,0.0,1.2915,1.2915,0.0,1.483,1.5396,1.5396,0.0,0.0,0.0,0.0,1.5395,1.5504,1.5994,1.7075,1.809,1.8028,1.9011,1.9807,1.9103,1.8691,1.8389,1.8066,1.7991,1.8103,1.8426,1.8812,1.9136,1.9372,2.241,2.6573,3.179,3.724,4.1966,4.5422,4.7758,4.9784,5.1506,5.2151,5.2569,5.287,5.2076,5.1197,5.0414,4.9862,4.959,4.959,4.9339,4.9213,4.9213,4.8944,4.8667,4.8385,4.8284,4.822,4.8164,4.7964,4.8024,4.8228,4.8627,4.8594,4.8544,5.1516,5.2774,5.2929,5.4548,5.5179,5.5179,5.5179,5.5179,5.5179,0.0,0.0,0.0,0.0,0.0,0.0,0.0,0.0,0.0,0.0,0.0,0.0,0.0,0.0,0.0,0.0,0.0,0.0,0.0,0.0,0.0,0.0,0.0,0.0,0.0,0.0,0.0,0.0,0.0,0.0,0.0,0.0,0.0,0.0,0.0,0.0,0.0,0.0,1.2915,1.2915,1.2915,0.0,0.0,0.0,0.0,0.0,0.0,0.0,0.0,1.483,1.5396,1.5396,1.5396,0.0,0.0,0.0,0.0,0.0,1.5396,1.5937,1.6751,1.7762,1.875,1.9258,1.8405,1.8203,1.8164,1.8044,1.8059,1.8201,1.835,1.8773,1.8965,1.847,2.4324,3.075,3.5999,3.9317,4.2555,4.6181,4.7969,4.9752,5.189,5.2569,5.287,5.277,5.185,5.1247,5.1147,5.0167,4.9565,4.9464,4.9044,4.8718,4.8542,4.8542,4.8259,4.7782,4.7707,4.7825,4.8137,4.7825,4.7654,4.7739,4.9485,5.0518,5.1127,5.3683,5.4919,5.5179,5.5179,5.5179,5.5179,5.5179,5.5179,5.5179,0.0,0.0,0.0,0.0,0.0,0.0,0.0,0.0,0.0,0.0,0.0,0.0,0.0,0.0,0.0,0.0,0.0,0.0,0.0,0.0,0.0,0.0,0.0,0.0,0.0,0.0,0.0,0.0,0.0,0.0,1.2318,1.3347,1.2765,0.0,0.0,0.0,0.0,0.0,1.2915,1.2915,1.2915,0.0,0.0,0.0,0.0,0.0,0.0,0.0,0.0,1.483,1.5396,1.5396,1.5396,0.0,0.0,0.0,0.0,0.0,1.5396,1.5498,1.599,1.7601,1.9217,2.0176,1.9291,1.9102,1.8881,1.8148,1.8415,1.907,2.0029,1.9096,1.8637,1.9985,3.0813,3.92,3.9603,4.2954,4.6136,4.8156,4.9858,5.1205,5.2017,5.2569,5.2694,5.2277,5.1649,5.1071,5.0569,4.9941,4.9389,4.8944,4.8843,4.8335,4.735,4.735,4.7299,4.7224,4.6747,4.6577,4.6663,4.6577,4.6557,4.6653,4.8629,5.0417,5.2015,5.2471,5.3661,5.5179,5.5179,5.5179,5.5179,5.5179,5.5179,5.5179,0.0,0.0,0.0,0.0,0.0,0.0,0.0,0.0,0.0,0.0,0.0,0.0,0.0,0.0,0.0,0.0,0.0,0.0,0.0,0.0,0.0,0.0,0.0,0.0,0.0,0.0,0.0,0.0,0.0,1.2122,1.3267,1.3173,1.2229,1.0595,0.0,0.0,0.0,0.0,1.2915,1.2915,0.0,0.0,0.0,0.0,0.0,0.0,0.0,0.0,0.0,0.0,1.4648,1.5396,1.5396,0.0,0.0,0.0,0.0,0.0,1.5396,1.6084,1.722,1.8966,1.9999,2.0488,2.0081,1.9999,1.9612,1.8265,1.8229,1.8874,2.0324,2.0696,2.2234,2.6766,3.3437,3.8446,3.9689,4.1905,4.4473,4.7475,4.9233,5.0699,5.1974,5.2327,5.2377,5.2126,5.1297,5.0695,5.0411,4.9615,4.9069,4.8818,4.8184,4.7631,4.7124,4.6798,4.6672,4.6647,4.6426,4.6301,4.6301,4.6301,4.6891,4.798,4.9412,5.1045,5.2689,5.3474,5.4381,5.5179,5.5179,5.5179,5.5179,5.5179,5.5179,5.5179,0.0,0.0,0.0,0.0,0.0,0.0,0.0,0.0,0.0,0.0,0.0,0.0,0.0,0.0,0.0,0.0,0.0,0.0,0.0,0.0,0.0,0.0,0.0,0.0,0.0,0.0,1.1139,1.1002,1.2166,1.3186,1.4055,1.2866,1.1694,0.0,0.0,0.0,0.0,0.0,1.2915,1.2915,0.0,0.0,0.0,0.0,0.0,0.0,0.0,0.0,0.0,0.0,0.0,0.0,0.0,0.0,0.0,1.5396,1.5396,1.5493,1.5903,1.6986,1.8422,2.0145,2.0605,2.0684,2.1094,2.1192,2.0701,1.8976,1.861,1.9156,2.0878,2.3568,2.7381,3.3033,3.5204,3.7102,3.9683,4.121,4.3363,4.6774,4.856,5.0157,5.1765,5.1925,5.185,5.1724,5.0795,5.0167,5.0042,4.9113,4.8542,4.8416,4.7581,4.7048,4.6923,4.6496,4.6301,4.6301,4.6301,4.6301,4.6301,4.6301,4.7338,4.9172,5.0238,5.1508,5.2929,5.456,5.5179,5.5179,5.5179,5.5179,5.5179,5.5179,5.5179,5.5179,0.0,0.0,0.0,0.0,0.0,0.0,0.0,0.0,0.0,0.0,0.0,0.0,0.0,0.0,0.0,0.0,0.0,0.0,0.0,0.0,0.0,0.0,0.0,0.0,0.0,1.2763,1.2732,1.2184,1.3371,1.4001,1.4055,1.2866,1.1694,1.0562,0.0,0.0,0.0,1.2915,1.2915,1.2915,1.2915,0.0,0.0,0.0,0.0,0.0,0.0,0.0,0.0,0.0,0.0,0.0,0.0,0.0,1.5396,1.5396,1.5396,1.5747,1.7366,1.7902,1.8422,2.0155,2.0605,2.0996,2.2576,2.2906,2.2442,2.076,2.0405,2.0932,2.2617,2.8252,3.3313,3.5316,3.7591,3.9692,4.1414,4.3936,4.6144,4.7474,4.9238,5.0613,5.1297,5.1381,5.1122,5.0536,4.9992,4.9439,4.8944,4.8309,4.7757,4.7224,4.7149,4.6848,4.6376,4.6326,4.6301,4.6301,4.6301,4.6301,4.6301,4.6301,4.7142,4.8645,5.01,5.1287,5.2404,5.4395,5.5179,5.5179,5.5179,5.5179,5.5179,5.5179,5.5179,5.5179,0.0,0.0,0.0,0.0,0.0,0.0,0.0,0.0,0.0,0.0,0.0,0.0,0.0,0.0,0.0,0.0,0.0,0.0,0.0,0.0,0.0,0.0,0.0,1.1397,1.173,1.3058,1.3465,1.2862,1.4405,1.4803,1.4055,1.2866,0.0,0.0,0.0,0.0,1.2915,1.2915,1.2915,1.2915,1.2915,1.2915,0.0,0.0,0.0,0.0,0.0,0.0,0.0,0.0,1.3587,1.457,1.52,1.5396,1.5396,1.5396,1.5396,1.5786,1.7539,1.7991,1.8418,2.0156,2.0605,2.1035,2.2732,2.3939,2.4847,2.529,2.5378,2.5578,2.6236,2.9628,3.2776,3.4083,3.599,3.8122,4.0415,4.2432,4.4672,4.7356,4.8618,4.9778,5.1147,5.0946,5.0519,4.9941,4.9389,4.8837,4.8259,4.7732,4.7299,4.7124,4.6772,4.6496,4.6301,4.6301,4.6125,4.5799,4.5799,4.5799,4.5799,4.5799,4.7108,4.9416,5.0326,5.1994,5.413,5.4891,5.5179,5.5179,5.5179,5.5179,5.5179,5.5179,5.5179,5.5179,0.0,0.0,0.0,0.0,0.0,0.0,0.0,0.0,0.0,0.0,0.0,0.0,0.0,0.0,0.0,0.0,0.0,0.0,0.0,0.0,0.0,0.0,0.0,1.0423,1.1259,1.2627,1.34,1.3483,1.4686,1.4653,1.3507,0.0,0.0,0.0,0.0,1.274,1.3685,1.3685,1.3392,1.2915,1.2915,1.2915,0.0,0.0,0.0,0.0,0.0,0.0,0.0,0.0,1.4453,1.5396,1.5396,1.5396,1.5396,1.5396,1.5786,1.6469,1.7695,1.7991,1.8418,2.0156,2.0996,2.1836,2.3532,2.5269,2.7006,2.875,2.9121,2.9023,2.8777,3.0488,3.2246,3.3086,3.4687,3.6576,3.8773,4.059,4.2802,4.5644,4.7142,4.872,5.058,5.0243,4.9741,4.9364,4.8661,4.8083,4.7682,4.6973,4.6572,4.6572,4.6045,4.5744,4.5744,4.5744,4.5598,4.5221,4.5045,4.5045,4.525,4.5668,4.7334,4.9965,5.0761,5.2682,5.5179,5.5179,5.5179,5.5179,5.5179,5.5179,5.5179,5.5179,5.5179,5.5179,0.0,0.0,0.0,0.0,0.0,0.0,0.0,0.0,0.0,0.0,0.0,0.0,0.0,0.0,0.0,0.0,0.0,0.0,0.0,0.0,0.0,0.0,0.0,0.9486,1.0942,1.147,1.2491,1.4103,1.4087,1.348,1.2305,1.2305,0.0,0.0,0.0,0.0,1.5396,1.5396,1.4434,1.2922,1.2922,1.2922,1.2922,0.0,0.0,0.0,0.0,0.0,0.0,0.0,1.5396,1.5396,1.5396,1.5396,1.5396,1.5415,1.6644,1.7991,1.7991,1.7991,1.8418,2.0156,2.1855,2.3549,2.5304,2.7045,2.8789,3.0547,3.0898,3.0625,2.9774,3.1211,3.2617,3.2773,3.4258,3.5753,3.6751,3.9074,4.1079,4.2145,4.4933,4.7518,4.9404,4.912,4.8793,4.8768,4.7732,4.7099,4.7074,4.6075,4.5472,4.5472,4.492,4.4589,4.4589,4.4589,4.4589,4.4589,4.4066,4.4091,4.4647,4.6061,4.786,4.9936,5.1382,5.3195,5.5204,5.5179,5.5179,5.5179,5.5179,5.5179,5.5179,5.5179,5.5179,5.5179,0.0,0.0,0.0,0.0,0.0,0.0,0.0,0.0,0.0,0.0,0.0,0.0,0.0,0.0,0.0,0.0,0.0,0.0,0.0,0.0,0.0,0.0,0.0,0.0,0.0,0.0,1.278,1.4103,1.3241,1.2651,0.0,0.0,0.0,1.1801,0.0,0.0,1.5396,1.5396,1.5103,1.4668,1.4668,1.4668,1.4668,0.0,0.0,0.0,0.0,0.0,0.0,0.0,0.0,0.0,1.5396,1.5396,1.563,1.6859,1.7581,1.7991,1.7991,1.7991,1.8418,2.0156,2.1855,2.3884,2.6855,2.793,2.9121,3.207,3.1719,3.084,3.0543,3.0512,3.0705,3.1371,3.3396,3.5218,3.6127,3.7971,3.9328,3.9672,4.3056,4.6305,4.8589,4.8435,4.7857,4.7104,4.6728,4.617,4.5367,4.5016,4.4895,4.4895,4.469,4.4589,4.4589,4.4589,4.4389,4.4041,4.389,4.389,4.4098,4.5489,4.7028,4.8717,5.0502,5.278,5.5211,5.5205,5.5179,5.5179,5.5179,5.5179,5.5179,5.5179,5.5179,5.5179,0.0,0.0,0.0,0.0,0.0,0.0,0.0,0.0,0.0,0.0,0.8791,0.0,0.0,0.0,0.0,0.0,0.0,0.0,0.0,0.0,0.0,0.0,0.0,0.0,0.0,1.0666,1.1989,0.0,0.0,0.0,0.0,0.0,0.0,1.2318,0.0,1.4289,1.6391,1.5688,1.5396,1.5396,1.5396,1.5396,1.5396,0.0,0.0,0.0,0.0,0.0,0.0,0.0,0.0,0.0,1.5396,1.5396,1.5727,1.75,1.7991,1.7991,1.7991,1.8516,1.9434,2.1152,2.2869,2.5054,2.8535,2.9844,3.0918,3.2957,3.2617,3.1891,3.1881,3.1317,3.1084,3.1785,3.3375,3.4859,3.5842,3.6925,3.8588,4.1313,4.2948,4.4962,4.7777,4.7581,4.7004,4.6351,4.5869,4.5317,4.464,4.4389,4.4292,4.4292,4.4091,4.3966,4.3966,4.3966,4.379,4.3463,4.3463,4.3463,4.3548,4.5467,4.7024,4.8243,5.0586,5.2674,5.4365,5.3827,5.4246,5.5179,5.5179,5.5179,5.5179,5.5179,5.5179,5.5179,0.0,0.0,0.0,0.0,0.0,0.0,0.0,0.0,0.0,0.0,0.8725,0.8699,0.0,0.0,0.0,0.0,0.0,0.0,0.0,0.0,0.0,0.0,0.0,0.0,0.0,0.0,0.0,0.0,0.0,0.0,0.0,0.0,1.2358,1.2518,0.0,1.5352,1.7396,1.5999,1.5396,1.5396,1.5396,1.5396,1.5396,1.5396,0.0,0.0,0.0,0.0,0.0,0.0,0.0,0.0,1.5396,1.5513,1.5942,1.7522,1.7991,1.7991,1.7991,1.9276,2.1035,2.2888,2.4781,2.7006,3.0176,3.209,3.3211,3.3347,3.3386,3.3386,3.3386,3.3113,3.2965,3.3335,3.3984,3.4818,3.5859,3.5982,3.8329,4.4643,4.3816,4.3915,4.6872,4.6577,4.6175,4.6075,4.5091,4.4464,4.4392,4.3915,4.3639,4.3589,4.3087,4.2864,4.2864,4.2864,4.2864,4.2864,4.2864,4.2889,4.2997,4.5819,4.7579,4.8548,5.1227,5.2623,5.2918,5.1696,5.2618,5.485,5.508,5.52,5.5179,5.5179,5.5179,5.5179,0.0,0.0,0.0,0.0,0.0,0.0,0.0,0.0,0.0,0.0,0.0,0.0,0.0,0.0,0.0,0.0,0.0,0.0,0.0,0.0,0.0,0.0,0.0,0.0,0.0,0.0,0.0,0.0,0.0,0.0,0.0,0.0,0.0,1.3721,0.0,1.3895,1.3612,1.4862,1.5396,1.5396,1.5396,1.5396,1.5396,1.5396,1.5396,0.0,0.0,0.0,0.0,0.0,0.0,0.0,1.5396,1.6332,1.7503,1.7874,1.7991,1.7991,1.7991,1.9276,2.1329,2.4391,2.7474,2.998,3.0723,3.1172,3.1816,3.3113,3.3386,3.3386,3.3386,3.3346,3.3309,3.3373,3.4649,3.5718,3.5971,3.5982,3.6542,3.8031,4.2486,4.5379,4.5208,4.5317,4.5146,4.4392,4.4116,4.3589,4.2763,4.2612,4.2336,4.1854,4.1729,4.1679,4.1679,4.1679,4.1679,4.1679,4.1679,4.1907,4.2471,4.5657,4.8346,5.0594,5.1214,5.1535,5.1612,5.1314,5.1523,5.227,5.4382,5.5189,5.5179,5.5179,5.5179,5.5179,0.0,0.0,0.0,0.0,0.0,0.0,0.0,0.0,0.0,0.0,0.0,0.0,0.0,0.0,0.0,0.0,0.0,0.0,0.0,0.0,0.0,0.0,0.0,0.0,0.0,0.0,0.0,0.0,0.0,0.0,0.0,0.0,0.0,1.4055,0.0,1.392,1.5038,1.5284,1.5396,1.5396,1.5396,1.5396,1.5396,1.5396,1.5396,1.5396,1.5396,0.0,0.0,0.0,0.0,0.0,0.0,0.0,1.7991,1.7991,1.7991,1.8166,1.9022,2.0488,2.2832,2.7129,2.9551,3.0898,3.0898,3.0898,3.1211,3.2363,3.2812,3.3008,3.3008,3.3228,3.3399,3.3385,3.4166,3.474,3.4746,3.4752,3.5045,3.5884,4.1173,4.4493,4.389,4.4016,4.394,4.3438,4.319,4.2663,4.1806,4.1756,4.163,4.1327,4.1302,4.1302,4.1302,4.1302,4.1302,4.1302,4.1302,4.2126,4.3756,4.6066,4.8589,5.1206,5.1206,5.1206,5.1206,5.1206,5.1439,5.1929,5.2888,5.3669,5.4315,5.496,5.5179,5.5179,0.0,0.0,0.0,0.0,0.0,0.0,0.0,0.0,0.0,0.0,0.0,0.0,0.0,0.0,0.0,0.0,0.0,0.0,0.0,0.0,0.0,0.0,0.0,0.0,0.0,0.0,0.0,0.0,0.0,0.0,0.0,0.0,0.0,1.3755,0.0,1.4047,1.695,1.5858,1.5396,1.5396,1.5396,1.5396,1.5435,1.5727,0.0,1.5844,1.5844,1.5844,1.5844,1.5844,0.0,0.0,0.0,0.0,1.7991,1.7991,1.7991,1.8379,2.0136,2.2051,2.4664,2.9297,3.0664,3.0898,3.0898,3.0898,3.1016,3.1465,3.2012,3.2472,3.2531,3.2949,3.332,3.332,3.3347,3.3386,3.3386,3.3386,3.3933,3.5377,3.9969,4.3014,4.3014,4.3014,4.2964,4.2838,4.2286,4.1733,4.1202,4.1177,4.1127,4.1026,4.1026,4.1026,4.1026,4.1026,4.1026,4.1026,4.1342,4.2788,4.5213,4.652,4.8497,5.0847,5.0847,5.1013,5.1186,5.1079,5.1522,5.2198,5.147,5.1858,5.2978,5.4091,5.4491,5.4491,0.0,0.0,0.0,0.0,0.0,0.0,0.0,0.0,0.0,0.0,0.6891,0.7381,0.0,0.0,0.0,0.0,0.0,0.0,0.5075,0.0,0.0,0.8791,0.9794,0.0,0.0,0.0,0.0,0.0,0.0,1.0602,1.0613,1.1775,1.2385,1.2532,0.0,1.2586,1.3161,1.4722,1.5396,1.5396,1.5396,1.5396,1.5571,0.0,0.0,1.764,1.764,1.764,1.764,1.764,1.764,0.0,0.0,0.0,1.7991,1.7991,1.7991,1.8379,2.0136,2.293,2.5893,2.8086,2.9785,3.0898,3.0898,3.0898,3.0918,3.0976,3.1426,3.1894,3.2198,3.2578,3.2871,3.2871,3.3184,3.3386,3.3386,3.3386,3.3484,3.3699,3.9219,4.3014,4.3014,4.3014,4.2738,4.211,4.1406,4.0877,4.0625,4.06,4.0374,3.9923,3.9923,3.9923,3.9923,3.9923,3.9923,3.9949,4.1492,4.3097,4.4674,4.6388,4.8044,4.9546,4.9546,5.0169,5.1141,5.058,5.0727,5.1379,5.1242,5.1325,5.1492,5.1678,5.1714,5.1714,0.0,0.0,0.0,0.0,0.0,0.0,0.0,0.0,0.0,0.0,0.0,0.567,0.0,0.0,0.0,0.4505,0.4505,0.5185,0.6808,0.8103,0.8791,0.8791,0.9956,1.0602,0.0,0.0,0.0,0.0,1.0602,1.0921,1.156,1.2064,1.2665,1.328,1.2599,1.3484,1.5405,1.4173,1.4907,1.6875,1.6875,1.6875,1.6937,0.0,0.0,0.0,0.0,1.7991,1.7991,1.7991,1.7991,1.7991,1.7991,0.0,0.0,0.0,1.7991,1.8379,2.0136,2.2383,2.4898,2.7617,2.8867,2.9687,3.0664,3.0898,3.0898,3.0898,3.1074,3.1367,3.1738,3.2148,3.2472,3.2472,3.2729,3.2936,3.2961,3.4227,3.6091,3.8505,4.1276,4.3014,4.3014,4.1884,4.1003,4.0676,4.0727,4.0576,4.0074,4.0049,3.9948,3.9697,3.9697,3.9697,3.9697,3.9697,3.9697,3.9723,4.1954,4.3336,4.4037,4.6247,4.7992,4.9277,4.9277,4.9614,5.0155,5.0575,5.0693,5.0697,5.1056,5.1206,5.1206,5.1206,5.1206,5.1206,0.0,0.0,0.0,0.0,0.0,0.0,0.0,0.0,0.0,0.0,0.0,0.0,0.0,0.0,0.0,0.0,0.4505,0.5418,0.757,0.7854,0.8327,0.9217,1.0117,1.0602,1.0602,0.0,0.0,1.0602,1.0602,1.1172,1.2305,1.2612,1.3387,1.4482,1.328,1.4343,1.6865,1.469,1.5385,1.7991,1.7991,1.7991,0.0,0.0,0.0,0.0,0.0,1.7991,1.7991,1.7991,1.7991,1.7991,1.7991,1.7991,0.0,0.0,0.0,1.8281,1.9589,2.1172,2.3181,2.623,2.7305,2.8066,2.9648,3.0117,3.0332,3.0644,3.0829,3.0995,3.1289,3.1719,3.2042,3.2042,3.23,3.2518,3.2503,3.4583,3.7488,4.1198,4.193,4.216,4.216,4.0678,3.9697,3.9697,4.0199,4.0275,3.9722,3.9697,3.9697,3.9697,3.9697,3.9697,3.9697,3.9697,3.9697,3.9723,4.1961,4.3194,4.3575,4.5801,4.7554,4.8798,4.8798,4.8887,4.912,5.0057,5.0319,5.0173,5.0651,5.1003,5.1206,5.1206,5.1206,5.1363,0.0,0.0,0.0,0.0,0.0,0.0,0.0,0.0,0.0,0.0,0.0,0.0,0.0,0.0,0.4505,0.4505,0.4505,0.456,0.4712,0.5255,0.7057,1.0351,1.0575,0.0,1.0602,0.0,1.0602,1.0602,1.0602,1.1172,1.2331,1.3467,1.4616,1.5661,1.4509,1.4114,1.4448,1.6754,1.782,1.7991,1.7991,1.7991,1.7991,1.7991,1.7991,1.7991,1.7991,1.7991,1.7991,1.7991,1.7991,1.7991,1.7991,1.7991,1.7991,0.0,0.0,0.0,1.8108,1.9413,2.1153,2.2927,2.4602,2.6147,2.7318,2.8027,2.8769,2.998,3.057,3.091,3.0918,3.1269,3.1562,3.1562,3.1925,3.2218,3.2218,3.3714,3.5573,3.7632,3.9038,3.9873,3.9873,3.9772,3.9697,3.9697,3.9722,3.9747,3.9697,3.9697,3.9697,3.9697,3.9697,3.9697,3.9697,3.9697,3.9697,3.9723,4.1044,4.2325,4.3551,4.4909,4.6195,4.7399,4.7399,4.7758,4.8349,4.8409,4.903,4.9901,4.9931,5.0478,5.1206,5.1206,5.1206,5.1789,0.0,0.0,0.0,0.0,0.0,0.0,0.0,0.0,0.0,0.0,0.0,0.0,0.0,0.4505,0.5254,0.709,0.556,0.4669,0.5044,0.7372,0.9288,1.0555,1.0602,1.0602,1.0602,1.0602,1.0602,1.0602,1.0602,1.1172,1.2331,1.3541,1.4309,1.4696,1.4269,1.4103,1.4349,1.8076,1.9023,1.7991,1.7991,1.7991,1.7991,1.7991,1.8691,1.9667,1.9667,1.9667,1.9667,1.9667,1.9667,1.9667,1.9667,1.9667,1.9452,1.834,1.7991,1.8242,1.9374,2.0117,2.0723,2.1348,2.2771,2.4426,2.5971,2.6777,2.7545,2.873,2.9329,2.9766,3.0246,3.0751,3.1113,3.1113,3.125,3.1377,3.1377,3.2711,3.4506,3.6757,3.8624,3.9697,3.9697,3.9697,3.9697,3.9697,3.9697,3.9371,3.8642,3.9295,3.9371,3.8642,3.932,3.9697,3.9697,3.9697,3.9697,3.9723,4.1813,4.305,4.3575,4.5666,4.6887,4.7309,4.7309,4.7429,4.7698,4.8117,4.8603,4.9179,5.0305,5.0943,5.1206,5.1206,5.3041,5.5734,0.0,0.0,0.0,0.0,0.0,0.0,0.0,0.0,0.0,0.0,0.0,0.0,0.0,0.0,0.6043,0.9138,0.7652,0.6716,0.7117,0.9304,1.0602,1.0602,1.0602,1.0602,1.0602,1.0602,1.0602,1.0602,1.0988,1.156,1.2318,1.312,1.3707,1.4103,1.4103,1.4103,1.4398,1.874,1.9921,1.8809,1.8242,1.8359,1.8867,1.8867,1.9589,2.0605,2.0605,2.0605,2.0605,2.0605,2.0605,2.0605,2.0605,2.0605,2.037,1.9217,1.8867,1.9139,2.0292,2.0605,2.0644,2.082,2.1797,2.3103,2.4703,2.558,2.6393,2.7624,2.8013,2.8442,2.9443,2.9948,3.0312,3.0605,3.0781,3.0898,3.0898,3.2178,3.3873,3.5977,3.8269,3.9697,3.9697,3.9697,3.9546,3.9145,3.9245,3.8944,3.8063,3.8718,3.8793,3.804,3.8743,3.912,3.912,3.932,3.9446,3.9472,4.1756,4.3098,4.3575,4.5711,4.6909,4.7309,4.7309,4.7309,4.7339,4.7788,4.8051,4.8268,4.9442,5.0423,5.1206,5.1206,5.4041,5.7904,0.0,0.0,0.0,0.0,0.0,0.0,0.0,0.0,0.0,0.0,0.0,0.0,0.0,0.0,0.0,1.0301,1.0507,1.0491,1.0586,1.0602,1.0602,1.0602,1.0602,1.0629,1.064,1.064,1.064,1.064,1.1761,1.2305,1.2305,1.2305,1.2919,1.4063,1.4063,1.4112,1.4511,1.8782,2.0605,2.0449,1.875,1.91,2.0605,2.0605,2.0644,2.0683,2.0683,2.0683,2.0683,2.0683,2.0683,2.0664,2.0644,2.0625,2.0605,2.0605,2.0605,2.0605,0.0,0.0,0.0,2.125,2.1621,2.2228,2.3457,2.4303,2.5224,2.6627,2.6716,2.6988,2.8513,2.882,2.9113,3.0,3.0547,3.0859,3.0859,3.2158,3.367,3.5123,3.7873,3.9646,3.9672,3.9672,3.922,3.8115,3.8366,3.8391,3.7982,3.7962,3.7965,3.8015,3.799,3.799,3.8015,3.8592,3.8869,3.8919,4.0758,4.2301,4.3551,4.4863,4.6144,4.7309,4.7309,4.7309,4.7309,4.7309,4.73,4.7318,4.7348,4.9028,5.1386,5.1263,5.4041,5.79,0.0,0.0,0.0,0.0,0.0,0.0,0.0,0.0,0.0,0.0,0.0,0.0,0.0,0.0,0.0,1.0523,0.8296,0.7908,1.0428,1.0602,1.0602,1.0602,1.0602,1.0988,1.1815,1.1841,1.1841,1.1841,1.2144,1.2305,1.2305,1.2305,1.2478,1.2799,1.2799,1.4332,1.7079,1.9545,2.0605,2.0566,2.0058,2.0156,2.0605,2.0605,2.1348,2.2401,2.2401,2.2401,2.2401,2.2401,2.2401,2.2264,2.1445,2.0918,2.0605,2.0605,2.0605,2.0605,2.0605,0.0,0.0,0.0,0.0,0.0,2.2266,2.2818,2.3479,2.4598,2.4912,2.5319,2.6384,2.7104,2.7806,2.8672,2.9707,3.0391,3.0391,3.1954,3.367,3.5123,3.6969,3.8383,3.9043,3.912,3.8944,3.8467,3.804,3.7512,3.688,3.6832,3.721,3.799,3.7613,3.7613,3.8015,3.8165,3.8492,3.8919,4.1266,4.2783,4.3575,4.5779,4.6975,4.7309,4.7309,4.7309,4.7309,4.7309,4.7304,4.7396,4.8373,5.1744,5.5627,5.2387,5.4055,5.79,0.0,0.0,0.0,0.0,0.0,0.0,0.0,0.0,0.0,0.0,0.0,0.0,0.0,0.0,0.0,0.0,0.9445,0.9135,1.1188,1.1306,1.1306,1.1306,1.1306,1.1627,1.2291,1.2305,1.2305,1.2305,1.2305,1.2305,1.2305,1.2305,1.2305,1.2305,1.2305,1.3538,1.584,1.9184,2.0605,2.0605,2.0605,2.0605,2.0683,2.1387,2.2245,2.3101,2.3101,2.3569,2.4075,2.3335,2.2967,2.2635,2.1835,2.1387,2.1094,2.0918,2.084,2.0801,2.0664,2.0605,2.0605,2.0605,0.0,0.0,2.1523,2.1776,2.2243,2.3185,2.3618,2.4108,2.501,2.5713,2.6484,2.7363,2.8262,2.9121,2.9844,3.1396,3.3016,3.4521,3.5942,3.7236,3.8417,3.8542,3.8366,3.804,3.7613,3.711,3.643,3.6405,3.6683,3.7287,3.7034,3.7009,3.7336,3.734,3.7616,3.8215,4.1271,4.2855,4.3262,4.6049,4.7309,4.7309,4.7309,4.7309,4.7309,4.7309,4.7309,4.748,4.9373,5.3278,5.7582,5.4951,5.5638,5.79,0.0,0.0,0.0,0.0,0.0,0.0,0.0,0.0,0.0,0.0,0.0,0.0,0.0,0.0,0.0,0.0,1.2305,1.2305,1.2305,1.2305,0.0,0.0,0.0,0.0,1.2305,1.2305,1.2305,1.2305,1.2305,1.2371,1.2505,1.2505,1.2505,1.2505,1.2505,1.2772,1.3555,1.8497,2.0605,2.0605,2.0605,2.0723,2.1035,2.2537,2.3101,2.312,2.3315,2.4368,2.544,2.3764,2.283,2.2324,2.2072,2.1954,2.1816,2.1405,2.1268,2.1151,2.084,2.0723,2.0703,2.0723,2.0723,0.0,2.1132,2.119,2.1425,2.2186,2.2654,2.3162,2.402,2.457,2.516,2.606,2.6562,2.7461,2.9149,3.0751,3.2234,3.3495,3.5021,3.6469,3.7691,3.7814,3.7613,3.716,3.711,3.6909,3.643,3.6405,3.6405,3.6405,3.6405,3.6405,3.6405,3.6396,3.667,3.7235,4.0787,4.2546,4.2805,4.5808,4.7249,4.7309,4.7309,4.7309,4.7309,4.7309,4.7309,4.7562,5.0093,5.3691,5.7511,5.7539,5.7698,5.79,0.0,0.0,0.0,0.0,0.0,0.0,0.0,0.0,0.0,0.0,0.0,0.0,0.0,0.0,0.0,0.0,0.0,1.2305,0.0,0.0,0.0,0.0,0.0,1.2305,1.2305,1.2305,1.2305,1.2305,1.2305,1.2799,1.3755,1.3755,1.3755,1.3755,1.3755,1.5689,1.9047,2.014,2.0605,2.0605,2.0605,2.1407,2.2654,2.2964,2.3101,2.3276,2.468,2.5401,2.5523,2.4254,2.3435,2.2888,2.2498,2.2168,2.1896,2.1777,2.1575,2.1414,2.16,2.146,2.1319,2.158,2.1641,0.0,2.1269,2.119,2.1249,2.1425,2.1523,2.1854,2.2713,2.3242,2.3831,2.4668,2.5445,2.644,2.7878,3.0842,3.2812,3.2616,3.5152,3.687,3.6734,3.6708,3.6658,3.6557,3.6557,3.6507,3.6405,3.6405,3.6405,3.6405,3.6405,3.6405,3.6405,3.6409,3.6685,3.7235,3.9907,4.1693,4.2777,4.5347,4.6779,4.7309,4.7309,4.7309,4.7309,4.7309,4.7309,4.7489,4.9427,5.2164,5.5106,5.5197,5.6373,5.79,0.0,0.0,0.0,0.0,0.0,0.0,0.0,0.0,0.0,0.0,0.0,0.0,0.0,0.0,0.0,0.0,0.0,0.0,0.0,0.0,0.0,0.0,0.0,1.2305,1.2305,1.2305,1.2599,1.3186,1.3186,1.3507,1.4103,1.4103,1.4103,1.4187,1.6375,1.8561,2.0605,2.0605,2.0605,2.0605,2.0605,2.1602,2.3101,2.3101,2.3627,2.4504,2.5382,2.5523,2.5171,2.4449,2.3887,2.3357,2.2947,2.2654,2.2461,2.2266,2.2084,2.1942,2.1913,2.1773,2.1691,2.1854,2.1915,0.0,0.0,2.1542,2.1484,2.1249,2.1386,2.1601,2.1815,2.2402,2.3069,2.3714,2.4336,2.5059,2.5918,2.9533,3.2178,3.2469,3.4556,3.5855,3.5579,3.5554,3.5554,3.5554,3.5554,3.5554,3.5554,3.5805,3.6076,3.6389,3.64,3.6405,3.6405,3.6405,3.6532,3.6832,3.9531,4.1118,4.1867,4.4908,4.648,4.6809,4.716,4.7309,4.7309,4.7309,4.7309,4.7489,4.9224,5.137,5.3601,5.4325,5.5999,5.79,0.9138,0.9928,0.0,0.0,0.0,0.0,0.0,0.0,0.0,0.0,0.0,0.0,0.0,0.0,0.0,0.0,0.0,0.0,0.0,1.3186,1.2639,1.2639,1.2639,1.2639,1.2639,1.2639,1.312,1.4103,1.4103,1.4103,1.4103,1.4103,1.4103,1.4292,1.8661,2.0605,2.0605,2.0605,2.0801,2.1075,2.1075,2.1894,2.3101,2.3101,2.4173,2.5693,2.5693,2.5425,2.498,2.4547,2.418,2.3828,2.3279,2.3101,2.3045,2.2713,2.2615,2.2537,2.2227,2.2129,2.2129,2.2129,2.2129,2.2109,0.0,0.0,0.0,2.1425,2.1641,2.1777,2.1405,2.1971,2.2617,2.301,2.3479,2.3996,2.4558,2.7738,3.0456,3.1645,3.3228,3.4226,3.4226,3.4327,3.4377,3.4377,3.4477,3.4552,3.4552,3.5054,3.5571,3.6049,3.6172,3.623,3.623,3.6331,3.6405,3.6428,3.9262,4.0703,4.093,4.4491,4.6181,4.633,4.6988,4.7309,4.7309,4.7309,4.7309,4.7459,4.9015,5.0706,5.238,5.3534,5.564,5.79,1.0401,1.0521,1.0602,0.0,0.0,0.0,0.0,0.0,0.0,0.0,0.0,0.0,1.4089,1.4103,1.4103,1.4103,1.4103,1.4103,1.4103,1.3961,0.0,1.3902,1.3902,1.3902,1.3902,1.3902,1.3948,1.4103,1.4103,1.4103,1.4103,1.4103,1.4103,1.4292,1.8661,2.0605,2.0605,2.0605,2.1466,2.283,2.283,2.2947,2.3101,2.3101,2.4173,2.5693,2.5693,2.5654,2.5484,2.4664,2.4352,2.4176,2.3354,2.3101,2.3081,2.3042,2.3023,2.3023,2.2986,2.2945,2.2945,2.2945,2.2945,2.2869,2.2498,0.0,2.2324,2.1894,0.0,2.1896,2.1816,0.0,0.0,2.2578,2.3262,2.4192,2.5322,2.6245,2.721,2.8319,3.0847,3.247,3.247,3.2968,3.3291,3.3291,3.3721,3.3997,3.3997,3.4502,3.4826,3.4896,3.533,3.5583,3.5583,3.613,3.6405,3.6428,3.8863,4.0294,4.0902,4.3993,4.5753,4.633,4.6988,4.7309,4.7309,4.7309,4.7309,4.7399,4.8385,4.965,5.1045,5.1445,5.4283,5.79,1.0602,1.0602,1.0801,0.0,0.0,0.0,0.0,0.0,0.0,0.0,0.0,1.4103,1.4103,1.4103,1.4362,1.5044,1.5097,1.4816,1.4135,1.4103,0.0,1.4103,1.4103,1.4103,1.4103,1.4103,1.4103,1.4103,1.4103,1.4103,1.4103,1.4103,1.5456,1.796,1.9766,2.0605,2.0664,2.1641,2.2459,2.3101,2.3101,2.3101,2.3198,2.4212,2.505,2.5693,2.5693,2.5693,2.5596,2.491,2.4563,2.4251,2.3387,2.3105,2.3101,2.3101,2.3101,2.3101,2.3101,2.3101,2.3101,2.3101,2.3101,2.3042,2.2888,2.2849,2.2732,2.2344,0.0,0.0,0.0,0.0,0.0,0.0,2.3006,2.3575,2.4082,2.488,2.6065,2.7807,2.9676,3.1048,3.1676,3.1938,3.211,3.211,3.2315,3.2591,3.2918,3.347,3.3922,3.4248,3.5079,3.5508,3.5508,3.6081,3.6405,3.6428,3.8787,4.0023,4.0382,4.3759,4.5454,4.5783,4.686,4.7309,4.7309,4.7309,4.7309,4.7339,4.7712,4.8214,4.8983,5.0601,5.4056,5.79,1.1069,1.1069,1.132,1.2158,1.2305,0.0,0.0,1.3534,1.4103,1.4103,1.4362,1.4563,1.4563,1.4563,1.491,1.5728,1.5808,1.5448,1.4616,1.4563,1.4416,1.4095,1.4103,1.4103,1.4103,1.4103,1.4103,1.4103,1.4103,1.4103,1.4103,1.4103,1.6437,2.0605,2.0605,2.086,2.1348,2.2576,2.3101,2.3101,2.3101,2.3393,2.3939,2.5206,2.5693,2.5693,2.5693,2.5693,2.564,2.5243,2.4961,2.4565,2.3442,2.31,2.3101,2.3101,2.3101,2.3142,2.3301,2.3242,2.312,2.3259,2.3201,2.3101,2.3101,2.3101,2.3003,2.2732,2.2654,0.0,0.0,0.0,2.2654,2.2654,0.0,2.3101,2.3101,2.3822,2.5039,2.6974,2.8451,2.9642,3.0424,3.0773,3.0959,3.0959,3.1085,3.1361,3.1742,3.2441,3.3018,3.342,3.4502,3.5132,3.5282,3.5855,3.623,3.6428,3.8787,3.9913,4.0027,4.3642,4.5304,4.5364,4.6711,4.7309,4.7309,4.7309,4.7309,4.7309,4.7309,4.7309,4.7755,5.1622,5.5089,5.79,1.2251,1.2251,1.2265,1.2291,1.2305,1.2692,1.3854,1.4089,1.4103,1.4103,1.507,1.5755,1.5755,1.5755,1.5768,1.5808,1.5808,1.5795,1.5755,1.5755,1.5248,1.4156,1.4103,1.4103,1.4103,1.4103,1.4103,1.4103,1.4103,1.4103,1.4103,1.4103,1.6437,2.0605,2.0605,2.1484,2.3023,2.3081,2.3101,2.3101,2.3101,2.4095,2.5615,2.5698,2.5693,2.5693,2.5693,2.5693,2.5688,2.5686,2.5668,2.5358,2.3644,2.3101,2.3101,2.3101,2.3101,2.3242,2.3803,2.3543,2.322,2.3672,2.3435,2.3101,2.3101,2.3101,2.3081,2.3081,2.3081,2.3081,2.3062,2.3062,2.3081,2.3081,2.3081,0.0,0.0,2.3144,2.3582,2.4765,2.6833,2.8151,2.8191,2.9194,2.9854,2.9854,3.0331,3.0638,3.0638,3.1642,3.224,3.2244,3.337,3.4198,3.4728,3.528,3.5807,3.6428,3.8787,3.9913,4.0027,4.3642,4.5304,4.5364,4.6711,4.7309,4.7309,4.7309,4.7309,4.7309,4.7309,4.7309,4.8144,5.5118,5.7796,5.79,1.2305,1.2933,1.324,1.2438,1.2959,1.3881,1.5057,1.4589,1.4362,1.5137,1.6259,1.6994,1.6994,1.6994,1.7301,1.8103,1.7448,1.6994,1.6994,1.6235,1.5635,1.5234,1.5221,1.5221,1.5221,1.4482,1.4103,1.4103,1.4103,1.4103,1.4103,1.4103,1.6437,2.0664,2.1758,2.2576,2.3101,2.3101,2.3101,2.3198,2.4371,2.5167,2.5693,2.5693,2.5693,2.5693,2.5693,2.5693,2.5698,2.5687,2.57,2.5617,2.5024,2.4017,2.3101,2.3101,2.3101,2.324,2.3831,2.4144,2.4277,2.4219,2.3887,2.3574,2.3574,2.3318,2.3101,2.3101,2.3101,2.3101,2.3101,2.3101,2.3101,2.3101,2.3101,2.3101,0.0,2.3101,2.3234,2.3627,2.4999,2.65,2.7964,2.8446,2.8988,2.974,2.9955,3.0231,3.0588,3.1286,3.1838,3.2194,3.3319,3.4173,3.4703,3.5232,3.5782,3.6428,3.8787,3.9913,4.0,4.3182,4.4885,4.5334,4.6241,4.6869,4.7309,4.7309,4.7309,4.7309,4.7309,4.7309,4.8149,5.528,5.7887,5.79,1.2852,1.3581,1.3841,1.3066,1.3921,1.5097,1.6248,1.5818,1.5605,1.6328,1.7488,1.8237,1.8237,1.8237,1.8719,1.991,1.8933,1.8237,1.8237,1.7114,1.6248,1.5821,1.5808,1.5808,1.5808,1.5074,1.4509,1.4103,1.4103,1.4103,1.4158,1.6296,1.8789,2.1523,2.2615,2.3101,2.3101,2.3101,2.3101,2.3198,2.4309,2.4801,2.4801,2.4801,2.4801,2.4859,2.5475,2.57,2.5696,2.5708,2.5693,2.5693,2.5693,2.4914,2.39,2.3276,2.3551,2.4103,2.4502,2.4888,2.513,2.4926,2.4519,2.4156,2.4046,2.3672,2.3357,2.3357,2.322,2.3101,2.3101,2.3101,2.3101,2.3101,2.3101,2.3101,0.0,2.3101,2.3101,2.3101,2.4467,2.5964,2.74,2.8247,2.9008,2.974,2.9804,2.9955,3.0306,3.0834,3.1361,3.1913,3.2817,3.3771,3.4703,3.5031,3.5606,3.6428,3.8787,3.9913,4.0,4.2956,4.4676,4.5334,4.6001,4.6659,4.7309,4.7309,4.7309,4.7309,4.7309,4.7572,4.8676,5.4283,5.6757,5.7408,1.3868,1.4103,1.4103,1.4103,1.503,1.6155,1.7355,1.7568,1.7582,1.7608,1.8705,1.9481,1.9481,1.9481,1.9936,2.1015,2.0124,1.9455,1.9401,1.8331,1.7141,1.5941,1.5888,1.5861,1.5808,1.5808,1.5261,1.4175,1.4175,1.4175,1.4316,2.0296,2.3101,2.3101,2.3101,2.3101,2.3101,2.3101,2.3101,2.3101,2.3101,2.3101,2.3101,2.3101,2.3101,2.3323,2.501,2.5644,2.5697,2.5702,2.5693,2.5693,2.5693,2.5693,2.5362,2.3705,2.4391,2.5693,2.5693,2.5712,2.569,2.5698,2.5318,2.4848,2.4519,2.4102,2.3789,2.3789,2.3415,2.3101,2.3101,2.3101,2.3101,2.3101,2.3101,2.3101,2.3101,2.3101,2.3101,2.3101,2.5105,2.6504,2.6504,2.8391,2.9682,2.9804,2.9804,2.9804,2.9804,3.0306,3.0859,3.1361,3.1964,3.3022,3.4678,3.4728,3.5303,3.6428,3.8787,3.9913,4.0,4.2927,4.4616,4.5274,4.5942,4.6629,4.7249,4.7309,4.7309,4.7309,4.7309,4.8147,4.9754,5.2587,5.4837,5.6544,1.4049,1.4103,1.4103,1.4103,1.4718,1.5601,1.6754,1.7048,1.7248,1.7568,1.9386,2.0668,2.0668,2.0668,2.0788,2.1082,2.0828,2.0294,1.9455,1.9107,1.8398,1.7181,1.7128,1.6727,1.5821,1.5808,1.5661,1.5354,1.5354,1.5354,1.5483,2.066,2.3101,2.3101,2.3101,2.3101,2.3101,2.3101,2.3101,2.3101,2.3101,2.3101,2.3101,2.3101,2.3101,2.322,2.4094,2.4984,2.5707,2.5703,2.5693,2.5693,2.5693,2.5693,2.5596,2.5148,2.5369,2.5705,2.5705,2.5696,2.5702,2.5703,2.561,2.538,2.5004,2.4339,2.3789,2.3789,2.3415,2.3101,2.3101,2.3101,2.3101,2.3101,2.3101,2.3101,2.3101,2.3101,2.3101,2.3101,2.5105,2.6504,2.6504,2.7017,2.8031,2.9663,2.9804,2.9804,2.9804,3.0306,3.0859,3.1361,3.2361,3.3445,3.4703,3.5104,3.568,3.6428,3.8787,3.9913,3.9978,4.2439,4.3938,4.4596,4.5274,4.5933,4.66,4.7078,4.7309,4.7309,4.7309,4.8748,5.1238,5.4485,5.6105,5.6799,1.4103,1.4496,1.4843,1.4843,1.5124,1.5565,1.6219,1.6619,1.7042,1.7555,1.9224,2.0539,2.1051,2.1109,2.1109,2.1109,2.1109,2.0828,2.0204,1.9682,1.9093,1.8424,1.7889,1.8406,2.0094,1.9369,1.7933,1.5808,1.7933,1.8977,1.9046,2.181,2.3101,2.3101,2.3101,2.3101,2.3101,2.3101,2.3101,2.3101,2.3101,2.3101,0.0,2.3101,2.3101,2.314,2.3493,2.4026,2.4667,2.5431,2.5693,2.5693,2.5693,2.5693,2.5693,2.5693,2.5693,2.5693,2.5693,2.5693,2.5693,2.5693,2.5693,2.564,2.541,2.4867,2.432,2.4102,2.3711,2.3337,2.314,2.3101,2.3101,2.3101,2.3101,2.3101,2.3101,2.3101,2.3101,2.3101,2.4231,2.5421,2.64,2.7363,2.845,2.9702,2.9804,2.9804,2.9804,3.008,3.0608,3.1381,3.224,3.3345,3.4678,3.5232,3.5782,3.6428,3.8787,3.9913,4.0,4.2263,4.3668,4.4326,4.5005,4.5693,4.636,4.7018,4.7309,4.7352,4.7785,4.92,5.1308,5.4299,5.5799,5.6461,1.4282,1.5114,1.5808,1.5808,1.5928,1.6088,1.6248,1.6573,1.7016,1.7516,1.8641,1.982,2.0966,2.1109,2.1109,2.1109,2.1109,2.1109,2.1109,2.0013,1.9401,1.9401,1.8398,2.0286,2.5596,2.3978,2.1011,1.6772,2.1011,2.3101,2.3101,2.3101,2.3101,2.3101,2.3101,2.3101,2.3101,2.3101,2.3101,2.3101,2.3101,2.3101,2.3101,2.3101,2.3101,2.3101,2.3101,2.3097,2.3335,2.4858,2.5353,2.5402,2.563,2.5693,2.5693,2.5693,2.5693,2.5693,2.5693,2.5693,2.5693,2.5693,2.5693,2.5693,2.5693,2.5391,2.4965,2.4512,2.4082,2.3652,2.3201,2.3101,2.3101,2.3101,2.3101,2.3147,2.3299,2.3321,2.3387,2.3539,2.356,0.0,2.6502,2.8311,2.9488,2.9785,2.9804,2.9804,2.9804,2.9804,3.0281,3.1381,3.2014,3.3072,3.4678,3.5305,3.5881,3.6428,3.8787,3.9913,4.0,4.2263,4.3668,4.4326,4.5005,4.5693,4.636,4.7018,4.7309,4.7366,4.8252,4.9399,5.0801,5.2911,5.4564,5.6003,1.5314,1.5661,1.5808,1.5808,1.6633,1.7609,1.8625,1.8022,1.749,1.7582,1.8648,1.9817,2.0989,2.1109,2.1109,2.1109,2.1109,2.1109,2.1109,2.0013,1.9401,1.9401,1.9201,2.1158,2.5591,2.3978,2.2687,2.181,2.2687,2.3101,2.3101,2.3101,2.3101,2.3101,2.3101,2.3101,2.3101,2.3101,2.3101,2.3101,2.3101,2.3101,2.3101,2.3101,2.3101,2.3101,2.3101,2.3097,2.3143,2.3438,2.356,2.3809,2.5257,2.5693,2.5693,2.5693,2.5693,2.5693,2.5693,2.5693,2.5693,2.5693,2.5693,2.5693,2.5693,2.5391,2.4965,2.4512,2.4082,2.3652,2.3201,2.3101,2.3101,2.3101,2.3101,2.343,2.4382,2.4489,2.4851,2.5798,2.5902,2.6399,2.7703,2.7383,2.783,2.9663,2.9804,2.9804,2.9804,2.9804,3.0281,3.1381,3.2411,3.3495,3.4703,3.573,3.6306,3.6428,3.8787,3.9913,4.0,4.2263,4.3668,4.4326,4.5005,4.5693,4.636,4.7018,4.7309,4.7331,4.7495,4.9078,5.13,5.1342,5.347,5.6409,1.5701,1.5808,1.5995,1.6633,1.7208,1.801,1.9214,1.9415,1.9199,1.8612,1.904,1.9843,2.0989,2.1109,2.1109,2.1109,2.1109,2.1109,2.1109,2.2934,2.4033,2.4033,2.4033,2.4534,2.5664,2.4875,2.3997,2.3101,2.3101,2.3101,2.3101,2.3101,2.3101,2.3101,2.3101,2.3101,2.3101,2.3101,2.3101,2.3101,2.3101,2.3101,2.3101,2.3101,2.3101,2.3159,2.363,2.3673,2.3525,2.3213,2.3097,2.3396,2.5149,2.5693,2.5693,2.5693,2.5693,2.5693,2.5693,2.5693,2.5693,2.5693,2.5693,2.5693,2.5693,2.5542,2.5293,2.4844,2.4613,2.4316,2.3864,2.3786,2.3786,2.3786,2.3591,2.3654,2.4208,2.4591,2.4999,2.5546,2.613,2.6912,2.7984,2.7622,2.8008,2.9682,2.9804,2.9804,2.9804,2.9804,3.0281,3.1381,3.2512,3.3617,3.4703,3.5828,3.6405,3.6428,3.8787,3.9913,4.0,4.2635,4.3997,4.4356,4.5373,4.6001,4.636,4.7018,4.7309,4.7309,4.7309,4.9026,5.144,5.097,5.3027,5.6236,1.6182,1.6182,1.6475,1.7422,1.7822,1.8384,1.9589,2.0521,2.0775,1.9883,1.9762,2.0094,2.1002,2.1109,2.1109,2.1109,2.1109,2.1695,2.3107,2.6739,2.8672,2.832,2.8301,2.7656,2.6284,2.5893,2.4859,2.3101,2.3101,2.3101,2.3101,2.3101,2.3101,2.3101,2.3101,2.3101,2.3101,2.3101,2.3101,2.3101,2.3101,2.3101,2.314,2.351,2.3647,2.3744,2.443,2.4538,2.4274,2.3594,2.3357,2.3569,2.5187,2.5693,2.5693,2.5693,2.5693,2.5693,2.5693,2.5693,2.5693,2.5693,2.5693,2.5693,2.5693,2.5693,2.5581,2.518,2.5024,2.4848,2.4449,2.4391,2.4391,2.4391,2.4141,2.4067,2.444,2.497,2.5422,2.5818,2.644,2.7258,2.8367,2.8247,2.8565,2.9702,2.9804,2.9804,2.9804,2.9804,3.0281,3.1381,3.2512,3.3617,3.4703,3.5828,3.6455,3.6605,3.8948,4.0161,4.0387,4.322,4.4596,4.4775,4.5852,4.639,4.654,4.7078,4.7309,4.7309,4.7459,4.9242,5.1684,5.1327,5.3288,5.6336,1.7422,1.7422,1.7474,1.7595,1.8505,1.9629,2.0762,2.1042,2.1069,2.0962,2.0949,2.0989,2.1096,2.1109,2.1109,2.1109,2.1109,2.3621,2.9608,3.0403,2.9941,2.8359,2.8301,2.8223,2.8047,2.6498,2.4859,2.3101,2.3101,2.3101,2.3101,2.3101,2.3101,2.3101,2.3101,2.3101,2.3101,2.3101,2.3101,2.3101,2.3101,2.3101,2.3276,2.4855,2.5464,2.546,2.5538,2.5567,2.5415,2.4568,2.4118,2.4118,2.5304,2.5693,2.5693,2.5693,2.5693,2.5693,2.5693,2.5693,2.5693,2.5693,2.5693,2.5693,2.5693,2.5693,2.5581,2.518,2.4746,2.4449,2.4391,2.4391,2.4391,2.4391,2.4352,2.4927,2.6562,2.6858,2.7476,2.914,2.851,2.8386,2.9546,2.8708,2.8565,2.9702,2.9804,2.9804,2.9804,2.9804,3.0281,3.1381,3.2512,3.3617,3.4703,3.5828,3.6632,3.7159,3.9562,4.0985,4.1633,4.4068,4.5544,4.6121,4.6241,4.6629,4.7219,4.7279,4.7309,4.7369,4.7967,4.9972,5.2493,5.2455,5.4652,5.7712,1.8679,1.8679,1.8679,1.8679,2.2905,2.6461,2.6914,2.697,2.5574,2.1632,2.1109,2.1109,2.1109,2.1109,2.2702,2.6638,2.697,2.8098,3.0733,3.0898,3.0586,2.9883,2.8848,2.8301,2.8301,2.6596,2.5343,2.466,2.3608,2.3101,2.3101,2.3101,2.3101,2.3101,2.3101,2.3101,2.3101,2.3101,2.3705,2.466,2.466,2.466,2.4742,2.5421,2.5693,2.5693,2.5693,2.5698,2.5641,2.5297,2.5113,2.5054,2.5273,2.5527,2.5693,2.5693,2.5693,2.5693,2.5693,2.5693,2.5693,2.5693,2.5693,2.5693,2.5693,2.5693,2.5659,2.5484,2.5308,2.5191,2.5191,2.5191,2.5191,2.5191,2.498,2.5076,2.5795,2.6584,2.7386,2.8096,2.8742,2.9307,2.974,2.9385,2.9307,2.976,2.9804,2.9804,2.9804,3.0105,3.0633,3.1381,3.2839,3.3947,3.4703,3.6132,3.6984,3.7235,3.9231,4.073,4.1776,4.3825,4.5518,4.6899,4.6899,4.707,4.7309,4.7309,4.7309,4.7369,4.8027,5.0065,5.2589,5.2583,5.4835,5.79,2.2027,2.2433,2.2796,2.2796,2.728,3.0898,3.0898,3.0898,2.9235,2.4594,2.3993,2.3993,2.3993,2.3993,2.5849,3.0499,3.0898,3.0898,3.0898,3.0898,3.0898,3.0898,2.9707,2.8809,2.8301,2.7084,2.6225,2.5693,2.3939,2.3101,2.3101,2.3101,2.3101,2.3101,2.3101,2.3101,2.312,2.3647,2.4563,2.5693,2.5693,2.5693,2.5693,2.5693,2.5693,2.5693,2.5693,2.5693,2.5693,2.5693,2.5693,2.5659,2.5371,2.5488,2.5693,2.5693,2.5693,2.5693,2.5693,2.5693,2.5693,2.5693,2.5693,2.5693,2.5693,2.5693,2.5693,2.5693,2.5693,2.5693,2.5693,2.5693,2.5693,2.5693,2.5469,2.5358,2.553,2.6388,2.7063,2.7253,2.8307,2.9134,2.947,2.9386,2.9443,2.976,2.9955,3.003,3.003,3.0387,3.1009,3.1884,3.3194,3.4324,3.518,3.6533,3.7386,3.7713,3.9332,4.0834,4.2279,4.4324,4.5998,4.7309,4.7309,4.7309,4.7309,4.7309,4.7309,4.7369,4.8027,4.9852,5.2197,5.2911,5.5194,5.79,2.8174,2.9584,3.0772,3.0772,3.085,3.0898,3.0898,3.0898,3.085,3.0791,3.0762,3.0762,3.0762,3.0762,3.0791,3.0898,3.0898,3.0898,3.0898,3.0898,3.0898,3.0898,3.0879,3.0059,2.832,2.8281,2.7441,2.5693,2.3939,2.3101,2.3101,2.3101,2.3101,2.3101,2.3101,2.3101,2.3218,2.4933,2.5674,2.5693,2.5693,2.5693,2.5693,2.5693,2.5693,2.5693,2.5693,2.5693,2.5693,2.5693,2.5693,2.5693,2.5674,2.5718,2.5693,2.5693,2.5693,2.5693,2.5693,2.5693,2.5693,2.5693,2.5693,2.5693,2.5693,2.5693,2.5693,2.5693,2.5693,2.5693,2.5693,2.5693,2.5693,2.5693,2.5718,2.5908,2.6579,2.6681,2.695,2.7612,2.7362,2.7578,2.8704,2.8393,2.8585,2.9721,3.0306,3.0588,3.0588,3.0588,3.1361,3.3014,3.3596,3.47,3.6359,3.691,3.7763,3.8894,4.0185,4.1737,4.3571,4.6114,4.7287,4.7309,4.7309,4.7309,4.7309,4.7309,4.7309,4.7369,4.8027,4.9365,5.1224,5.3674,5.5987,5.79,3.0059,3.0508,3.0898,3.0898,3.0898,3.0898,3.0898,3.0898,3.0898,3.0898,3.0898,3.0898,3.0898,3.0898,3.0898,3.0898,3.0898,3.0898,3.0898,3.0898,3.0898,3.0898,3.0898,3.0625,3.0078,2.8906,2.8027,2.748,2.5737,2.4251,2.3101,2.3101,2.3101,2.314,2.4329,2.4855,2.4894,2.546,2.5693,2.5693,2.5693,2.5693,2.5693,2.5693,2.5693,2.5693,2.5693,2.5693,2.5693,2.5693,2.5693,2.5693,2.5693,2.5693,2.5693,2.5693,2.5693,2.5693,2.5693,2.5693,2.5693,2.5693,2.5693,2.5693,2.5693,2.5693,2.5693,2.5693,2.5693,2.5693,2.5693,2.5693,2.5693,2.5693,2.5693,2.5781,2.5984,2.7167,2.8074,2.8299,2.9343,3.0187,3.0536,3.0429,3.0516,3.0864,3.1035,3.0984,3.0613,3.1687,3.2562,3.309,3.4723,3.5854,3.6406,3.7688,3.8542,3.8894,3.9677,4.126,4.3598,4.6144,4.7309,4.7309,4.7309,4.7309,4.7309,4.7309,4.7309,4.7369,4.8027,4.9335,5.0951,5.1937,5.4671,5.79,3.0898,3.0898,3.0898,3.0898,3.0898,3.0898,3.0898,3.0898,3.0898,3.0898,3.0898,3.0898,3.0898,3.0898,3.0898,3.0898,3.0898,3.0898,3.0898,3.0898,3.0898,3.0898,3.0898,3.0898,3.0898,2.9824,2.8945,2.8301,2.6557,2.5128,2.4075,2.4075,2.4075,2.4114,2.5206,2.5693,2.5693,2.5693,2.5693,2.5693,2.5693,2.5693,2.5693,2.5693,2.5693,2.5693,2.5693,2.5693,2.5693,2.5693,2.5693,2.5693,2.5693,2.5693,2.5693,2.5693,2.5693,2.5693,2.5693,2.5693,2.5693,2.5693,2.5835,2.5991,2.6147,2.6186,2.6147,2.5991,2.5952,2.5913,2.5713,2.5693,2.5693,2.5693,2.5693,2.5693,2.5693,2.676,2.7508,2.7508,2.8809,2.9875,3.0302,3.064,3.0976,3.1366,3.1587,3.1662,3.1537,3.2537,3.3291,3.3696,3.5452,3.6607,3.7009,3.8266,3.8994,3.922,4.0513,4.1961,4.3598,4.6144,4.7309,4.7309,4.7309,4.7309,4.7309,4.7309,4.7309,4.7339,4.7758,4.8758,4.9938,4.9798,5.2142,5.5618,3.0898,3.0898,3.0898,3.0898,3.0898,3.0898,3.0898,3.0898,3.0898,3.0898,3.0898,3.0898,3.0898,3.0898,3.0898,3.0898,3.0898,3.0898,3.0898,3.0898,3.0898,3.0898,3.0898,3.0898,3.0898,3.0898,3.0039,2.8301,2.6674,2.5893,2.5893,2.5776,2.5693,2.5693,2.5693,2.5693,2.5693,2.5693,2.5693,2.5693,2.5693,2.5693,2.5693,2.5693,2.5693,2.5718,2.5752,2.5796,2.5796,2.5796,2.5796,2.5796,2.5776,2.5757,2.5732,2.5693,2.5693,2.5718,2.5757,2.5757,2.5776,2.5771,2.6108,2.6543,2.6889,2.6986,2.6889,2.6523,2.6406,2.6269,2.5835,2.5737,2.5693,2.5693,2.5693,2.5693,2.5693,2.5791,2.5844,2.5941,2.6686,2.7661,2.8791,2.9585,3.0452,3.15,3.2039,3.2591,3.319,3.3291,3.3793,3.4778,3.5931,3.701,3.8065,3.8668,3.922,3.9723,4.2206,4.3409,4.3575,4.6054,4.7222,4.7309,4.7309,4.7309,4.7309,4.7309,4.7309,4.7309,4.7309,4.7796,4.8409,4.7609,4.8952,5.1835,3.0898,3.0898,3.0898,3.0898,3.0898,3.0898,3.0898,3.0898,3.0898,3.0898,3.0898,3.0898,3.0898,3.0898,3.0898,3.0898,3.0898,3.0898,3.0898,3.0898,3.0898,3.0898,3.0898,3.0898,3.0898,3.0898,3.0039,2.8301,2.7891,2.7695,2.7656,2.6323,2.5693,2.5693,2.5693,2.5693,2.5693,2.5693,2.5693,2.5693,2.5693,2.5693,2.5693,2.5693,2.5693,2.5796,2.6459,2.6693,2.6693,2.6693,2.6693,2.6635,2.6328,2.623,2.6172,2.5815,2.5693,2.5776,2.6152,2.623,2.6309,2.6615,2.6797,2.6869,2.6992,2.6986,2.6967,2.6894,2.6602,2.6367,2.625,2.5932,2.5693,2.5693,2.5693,2.5693,2.5693,2.6548,2.7484,2.8425,2.9511,3.0678,3.1913,3.2204,3.2585,3.3248,3.342,3.3746,3.4276,3.515,3.5751,3.5979,3.7036,3.7965,3.8693,3.922,3.9572,3.9723,4.1294,4.2544,4.3551,4.5138,4.6366,4.7309,4.7309,4.7309,4.7309,4.7309,4.7309,4.7309,4.7309,4.7434,4.7577,4.7384,4.8939,5.1835,3.0898,3.0898,3.1133,3.1914,3.2051,3.2051,3.2051,3.2051,3.2051,3.2051,3.2051,3.1758,3.0976,3.1582,3.1738,3.0957,3.0898,3.0898,3.0898,3.0898,3.0898,3.0898,3.0898,3.0898,3.0898,3.0898,3.0039,2.8301,2.8301,2.8301,2.8281,2.7344,2.6889,2.6889,2.6889,2.6889,2.6889,2.6889,2.6889,2.6889,2.6889,2.6889,2.6791,2.601,2.6206,2.6947,2.7441,2.7598,2.7539,2.7123,2.6986,2.6947,2.6738,2.668,2.6621,2.6362,2.6167,2.6133,2.6562,2.668,2.6777,2.7207,2.7305,2.7363,2.7559,2.7598,2.7539,2.7344,2.7154,2.6881,2.6465,2.6191,2.5952,2.5713,2.5693,2.5693,2.5693,2.6284,2.6959,2.7649,2.9505,3.1015,3.1715,3.303,3.3947,3.4226,3.4274,3.4625,3.5429,3.6055,3.6405,3.6405,3.7713,3.8567,3.8894,3.9446,3.9697,3.9723,4.0969,4.2252,4.3551,4.484,4.6099,4.7309,4.7309,4.7309,4.7309,4.7309,4.7309,4.7309,4.7309,4.7298,4.7302,4.7303,4.8953,5.1835,3.0898,3.1094,3.1719,3.3133,3.3386,3.3386,3.3386,3.3386,3.3386,3.3386,3.3386,3.2871,3.1426,3.2559,3.2832,3.1406,3.1269,3.1172,3.0918,3.0898,3.0898,3.0898,3.0898,3.0898,3.0898,3.0898,3.0176,2.8691,2.8418,2.8301,2.8301,2.8301,2.8301,2.8301,2.8301,2.8301,2.8301,2.8301,2.8301,2.8301,2.8301,2.8301,2.8144,2.6654,2.7006,2.8301,2.8301,2.8301,2.8184,2.7461,2.7207,2.7207,2.72,2.7154,2.7109,2.7109,2.6855,2.666,2.7012,2.7168,2.7305,2.7702,2.778,2.7878,2.8203,2.8301,2.8184,2.7858,2.7741,2.7448,2.6621,2.6426,2.625,2.5776,2.5693,2.5693,2.5693,2.5693,2.5883,2.6335,2.8642,3.0391,3.0833,3.3271,3.4853,3.4929,3.5029,3.5529,3.6582,3.6732,3.6782,3.6782,3.814,3.8944,3.9019,3.9471,3.9697,3.9723,4.0794,4.2084,4.3551,4.4604,4.5891,4.7309,4.7309,4.7309,4.7309,4.7309,4.7309,4.7309,4.7309,4.7309,4.7309,4.751,4.9007,5.1539,3.0898,3.2051,3.3074,3.3347,3.3386,3.3386,3.3386,3.3386,3.3386,3.3386,3.3386,3.3289,3.3035,3.323,3.3289,3.3016,3.2996,3.2422,3.0976,3.0898,3.0898,3.0898,3.0898,3.0898,3.0898,3.0898,3.0762,3.0488,2.9023,2.8301,2.8301,2.8301,2.8301,2.8301,2.8301,2.8301,2.8301,2.8301,2.8301,2.8301,2.8301,2.8301,2.8262,2.7988,2.8066,2.8301,2.8301,2.8301,2.8281,2.8144,2.8086,2.81,2.8088,2.7871,2.7585,2.7585,2.7545,2.7506,2.7565,2.7858,2.8105,2.8184,2.823,2.8203,2.8281,2.8301,2.8281,2.8203,2.7936,2.7545,2.7012,2.6621,2.625,2.5776,2.5693,2.5693,2.5693,2.5693,2.6665,2.9203,2.9902,3.1205,3.3754,3.4826,3.5581,3.6105,3.6557,3.7086,3.7713,3.824,3.8492,3.8492,3.8768,3.912,3.9572,3.9647,3.9697,3.9697,3.9904,4.1219,4.3504,4.3693,4.5092,4.7309,4.7309,4.7309,4.7309,4.7309,4.7309,4.7309,4.7309,4.7309,4.7451,4.8563,4.9239,5.0214,3.207,3.2859,3.3386,3.3386,3.3386,3.3386,3.3386,3.3386,3.3386,3.3386,3.3386,3.3386,3.3386,3.3386,3.3386,3.3386,3.3386,3.3055,3.2305,3.1406,3.0898,3.0898,3.0898,3.0898,3.0898,3.0898,3.0898,3.0898,3.0078,2.9219,2.8301,2.8301,2.8301,2.8301,2.8301,2.8301,2.8301,2.8301,2.8301,2.8301,2.8301,2.8301,2.8301,2.8301,2.8301,2.8301,2.8301,2.8301,2.8301,2.8301,2.8301,2.8288,2.8311,2.8179,2.8034,2.8034,2.8034,2.8034,2.8034,2.8171,2.8301,2.8301,2.8301,2.8301,2.8301,2.8301,2.8301,2.8301,2.8144,2.7897,2.7467,2.7233,2.6881,2.6191,2.6094,2.6094,2.6094,2.6094,2.6675,2.8292,3.0234,3.1997,3.3361,3.5547,3.6961,3.7236,3.7487,3.7864,3.8442,3.8743,3.9044,3.9321,3.9346,3.9446,3.9697,3.9697,3.9697,3.9697,3.9697,4.1019,4.3504,4.3504,4.4909,4.7309,4.7309,4.7309,4.7309,4.7309,4.7309,4.7309,4.7309,4.7608,4.8087,4.8685,4.9501,5.0728,3.3133,3.3386,3.3386,3.3386,3.3386,3.3386,3.3386,3.3386,3.3386,3.3386,3.3386,3.3386,3.3386,3.3386,3.3386,3.3386,3.3386,3.3386,3.3386,3.2207,3.1309,3.0918,3.0898,3.0898,3.0898,3.0898,3.0898,3.0898,3.0898,3.0215,2.8887,2.8476,2.8301,2.8301,2.8301,2.8301,2.8301,2.8301,2.8301,2.8301,2.8301,2.8301,2.8301,2.8301,2.8301,2.8301,2.8301,2.8301,2.8301,2.8301,2.8301,2.8301,2.8301,2.8301,2.8301,2.8301,2.8359,2.8418,2.832,2.8301,2.832,2.8418,2.8437,2.8457,2.8601,2.8594,2.8594,2.8594,2.8594,2.8464,2.7936,2.7839,2.7545,2.668,2.6543,2.6543,2.6543,2.6543,2.6971,2.8127,3.0759,3.2826,3.3702,3.6453,3.8216,3.8216,3.8316,3.8592,3.907,3.9095,3.9346,3.9873,3.9772,3.9747,3.9873,3.9898,3.9898,3.9898,3.9898,4.1149,4.3504,4.3504,4.4909,4.7309,4.7309,4.7309,4.7309,4.7309,4.7309,4.7309,4.7489,4.7938,4.8566,4.8843,4.98,5.1199,3.3367,3.3386,3.3386,3.3386,3.3386,3.3386,3.3386,3.3386,3.3386,3.3386,3.3386,3.3386,3.3386,3.3386,3.3386,3.3386,3.3386,3.3386,3.3386,3.3269,3.2539,3.0957,3.0898,3.0898,3.0898,3.0898,3.0898,3.0898,3.0898,3.082,3.0664,2.9043,2.8301,2.8301,2.8301,2.8301,2.8301,2.8301,2.8301,2.8301,2.8301,2.8301,2.8301,2.8301,2.8301,2.8301,2.8301,2.8301,2.8301,2.8301,2.8301,2.8301,2.8301,2.8301,2.8301,2.8301,2.8574,2.8762,2.8398,2.8301,2.8379,2.8742,2.884,2.8984,2.9403,2.95,2.95,2.95,2.95,2.9246,2.8398,2.8242,2.7969,2.7109,2.6973,2.6973,2.6973,2.6973,2.8223,3.1677,3.2336,3.3827,3.7271,3.8367,3.8843,3.8843,3.927,3.9597,3.9622,3.9647,3.9898,4.0424,3.9948,3.9948,4.045,4.0424,4.0424,4.0424,4.0424,4.1514,4.3504,4.3504,4.4909,4.7309,4.7309,4.7309,4.7309,4.7309,4.7309,4.7369,4.7967,4.8289,4.8446,4.965,5.0166,5.0552,3.3386,3.3386,3.3386,3.3386,3.3386,3.3386,3.3386,3.3386,3.3386,3.3386,3.3386,3.3386,3.3386,3.3386,3.3386,3.3386,3.3386,3.3386,3.3386,3.3386,3.2656,3.0957,3.0898,3.0898,3.0898,3.0898,3.0898,3.0898,3.0898,3.0898,3.0859,2.9101,2.8301,2.8301,2.8301,2.8301,2.8301,2.8301,2.8301,2.8301,2.8301,2.8301,2.8301,2.8301,2.8301,2.8301,2.8301,2.8301,2.8301,2.8301,2.8652,2.9109,2.9109,2.9109,2.9109,2.9109,2.9227,2.9297,2.9149,2.9109,2.9149,2.9305,2.9316,2.9375,2.9559,2.9598,2.9598,2.9598,2.9598,2.95,2.9168,2.9109,2.8887,2.8301,2.8176,2.8176,2.8176,2.8176,2.88,3.051,3.172,3.3356,3.566,3.7196,3.8419,3.9319,3.9572,3.9697,3.9697,4.0023,4.0424,4.0976,4.08,4.0775,4.1001,4.1001,4.1001,4.1001,4.065,4.1312,4.2814,4.3287,4.4442,4.6166,4.6975,4.7309,4.7309,4.7309,4.7549,4.7938,4.8199,4.8775,4.9531,5.0039,5.0458,5.0917,3.3386,3.3386,3.3386,3.3386,3.3386,3.3386,3.3386,3.3386,3.3386,3.3386,3.3386,3.3386,3.3386,3.3386,3.3386,3.3386,3.3386,3.3386,3.3386,3.3386,3.2656,3.0957,3.0898,3.0898,3.0898,3.0898,3.0898,3.0898,3.0898,3.0898,3.0859,2.9668,2.8809,2.8301,2.8301,2.8301,2.8301,2.8301,2.8301,2.8301,2.8301,2.8301,2.8301,2.8301,2.8633,2.9101,2.9101,2.875,2.8379,2.8926,2.9344,2.9618,2.9715,2.9676,2.9618,2.9755,2.9794,2.9833,2.997,3.0009,2.997,2.9833,2.9794,2.9833,2.997,3.0009,3.0009,3.0009,3.0009,2.997,2.9813,2.9794,2.9657,2.9199,2.9121,2.9121,2.9121,2.9121,2.9471,3.0358,3.203,3.3726,3.5344,3.7299,3.8853,3.987,4.0124,4.0199,4.0199,4.0549,4.1001,4.1553,4.1605,4.1654,4.1829,4.1654,4.1605,4.1605,4.1204,4.1616,4.27,4.3617,4.4775,4.6039,4.7111,4.766,4.7712,4.7402,4.7722,4.8431,4.8693,4.9359,5.0226,5.0458,5.0817,5.1206,3.3386,3.3386,3.3386,3.3386,3.3386,3.3386,3.3386,3.3386,3.3386,3.3386,3.3386,3.3386,3.3386,3.3386,3.3386,3.3386,3.3386,3.3386,3.3386,3.3386,3.2656,3.0957,3.0898,3.0898,3.0898,3.0898,3.0898,3.0898,3.0898,3.0898,3.0898,3.0898,2.9961,2.832,2.832,2.832,2.832,2.832,2.832,2.832,2.832,2.832,2.832,2.832,2.9375,3.0898,3.0898,2.9785,2.8574,3.0312,3.0341,2.9657,2.9922,2.9824,2.9696,3.0078,3.0195,3.0293,3.0762,3.0898,3.0781,3.0312,3.0195,3.0332,3.0781,3.0898,3.0898,3.0898,3.0898,3.0762,3.0293,3.0195,3.0059,2.9676,2.9618,2.9618,2.9618,2.9598,3.0322,3.2204,3.371,3.537,3.7323,3.9334,4.0499,4.0499,4.1001,4.1302,4.1327,4.1327,4.1605,4.2213,4.2213,4.2462,4.2989,4.2462,4.2213,4.2213,4.2213,4.2561,4.3229,4.4652,4.5985,4.7208,4.7969,4.8423,4.8557,4.7666,4.7799,4.8707,4.9552,5.0037,5.0285,5.0936,5.1206,5.1206,3.3386,3.3386,3.3386,3.3386,3.3386,3.3386,3.3386,3.3386,3.3386,3.3386,3.3386,3.3386,3.3386,3.3386,3.3386,3.3386,3.3386,3.3386,3.3386,3.3386,3.2656,3.0957,3.0898,3.0898,3.0898,3.0898,3.0898,3.0898,3.0898,3.0898,3.0898,3.0898,3.0605,3.0117,3.0117,3.0117,3.0117,3.0117,3.0117,3.0117,3.0117,3.0117,3.0117,3.0117,3.0449,3.0898,3.0898,3.0566,3.0195,3.0723,3.0752,3.0537,3.0605,3.0566,3.0556,3.0644,3.0684,3.0703,3.0859,3.0898,3.0859,3.0723,3.0684,3.0723,3.0859,3.0898,3.0898,3.0898,3.0898,3.0859,3.0703,3.0684,3.0644,3.0508,3.0517,3.0517,3.0517,3.1393,3.2395,3.3344,3.4743,3.6447,3.8417,3.9152,3.9951,4.0971,4.1227,4.1478,4.1909,4.1934,4.2185,4.2738,4.2763,4.2838,4.3014,4.2838,4.2763,4.2763,4.2389,4.2303,4.256,4.4438,4.5496,4.5985,4.7733,4.8716,4.906,4.8455,4.8805,4.9733,5.0016,5.0435,5.0936,5.1116,5.1206,5.1206,3.3386,3.3386,3.3386,3.3386,3.3386,3.3386,3.3386,3.3386,3.3386,3.3386,3.3386,3.3386,3.3386,3.3386,3.3386,3.3386,3.3386,3.3386,3.3386,3.3386,3.2969,3.1934,3.125,3.0898,3.0898,3.0898,3.0898,3.0898,3.0898,3.0898,3.0898,3.0898,3.0898,3.0898,3.0898,3.0898,3.0898,3.0898,3.0898,3.0898,3.0898,3.0898,3.0898,3.0898,3.0898,3.0898,3.0898,3.0898,3.0898,3.0898,3.0898,3.0898,3.0898,3.0898,3.0898,3.0898,3.0898,3.0898,3.0898,3.0898,3.0937,3.1094,3.1016,3.0898,3.0898,3.1016,3.1133,3.1133,3.1269,3.1387,3.1387,3.1387,3.1387,3.1387,3.1387,3.1624,3.2232,3.3095,3.4024,3.497,3.6381,3.7753,3.8999,3.9847,4.078,4.1875,4.1955,4.2133,4.2487,4.2512,4.2663,4.2989,4.3014,4.3014,4.3014,4.3014,4.3014,4.3014,4.2663,4.2512,4.2597,4.4564,4.5466,4.5588,4.8419,4.9794,4.9989,4.9208,4.9559,5.0596,5.0624,5.0847,5.1206,5.1206,5.1206,5.1206,3.3386,3.3386,3.3386,3.3386,3.3386,3.3386,3.3386,3.3386,3.3386,3.3386,3.3386,3.3386,3.3386,3.3386,3.3386,3.3386,3.3386,3.3386,3.3386,3.3386,3.3386,3.3386,3.1953,3.1113,3.1113,3.0976,3.0898,3.0898,3.0898,3.0898,3.0898,3.0898,3.0898,3.0898,3.0898,3.0898,3.0898,3.0898,3.0898,3.0898,3.0898,3.0898,3.0898,3.0898,3.0898,3.0898,3.0898,3.0898,3.0898,3.0898,3.0898,3.0898,3.0898,3.0898,3.0898,3.0898,3.0898,3.0898,3.0937,3.0937,3.1055,3.1465,3.1289,3.1016,3.1016,3.1309,3.1552,3.1552,3.1894,3.2198,3.2198,3.2198,3.2198,3.2198,3.2198,3.2674,3.4087,3.4412,3.5059,3.6566,3.8175,3.9173,3.9249,4.1087,4.2487,4.3039,4.309,4.309,4.314,4.314,4.314,4.309,4.309,4.3065,4.3014,4.3014,4.3014,4.3014,4.3014,4.3014,4.3073,4.4943,4.577,4.5926,4.9604,5.1196,5.1111,4.9963,5.0129,5.1225,5.1209,5.1206,5.1206,5.1206,5.1206,5.1206,3.3386,3.3386,3.3386,3.3386,3.3386,3.3386,3.3386,3.3386,3.3386,3.3386,3.3386,3.3386,3.3386,3.3386,3.3386,3.3386,3.3386,3.3386,3.3386,3.3386,3.3386,3.3386,3.3035,3.2871,3.2871,3.1562,3.0898,3.0898,3.0898,3.0898,3.0898,3.0898,3.0898,3.0898,3.0898,3.0898,3.0898,3.0898,3.0898,3.0898,3.0898,3.0898,3.0898,3.0898,3.0898,3.0898,3.0898,3.0898,3.0898,3.0898,3.0898,3.0898,3.0898,3.0898,3.0898,3.0898,3.0898,3.0957,3.1289,3.1387,3.1484,3.1914,3.1983,3.1925,3.1925,3.2003,3.2061,3.2061,3.214,3.2198,3.2198,3.2198,3.2198,3.2198,3.2198,3.232,3.2663,3.3683,3.4715,3.5491,3.797,3.9807,4.024,4.1819,4.3065,4.3589,4.3614,4.3815,4.4242,4.4238,4.4066,4.3639,4.3614,4.3413,4.3014,4.3014,4.3014,4.3014,4.3014,4.3014,4.3073,4.5633,4.6415,4.5895,4.9606,5.1203,5.118,5.0907,5.0936,5.1209,5.1199,5.1206,5.1206,5.1206,5.1206,5.1206,3.3386,3.3386,3.3386,3.3386,3.3386,3.3386,3.3386,3.3386,3.3386,3.3386,3.4108,3.4635,3.4635,3.3894,3.3386,3.3386,3.3386,3.3386,3.3386,3.3386,3.3386,3.3386,3.3386,3.3386,3.3386,3.2559,3.1699,3.0898,3.0898,3.0898,3.0898,3.0898,3.0898,3.0898,3.0898,3.0898,3.0898,3.0898,3.0898,3.0898,3.0898,3.0898,3.0898,3.0898,3.0898,3.0898,3.0898,3.0898,3.0898,3.0898,3.0898,3.0967,3.1397,3.1397,3.1309,3.1475,3.1534,3.1573,3.1777,3.1816,3.1934,3.2394,3.2492,3.2452,3.2237,3.2355,3.2492,3.2492,3.2617,3.2773,3.2773,3.2773,3.2773,3.2773,3.2773,3.3289,3.4863,3.5721,3.6971,3.9055,4.0741,4.1928,4.2465,4.3283,4.389,4.4166,4.4192,4.4288,4.4589,4.4589,4.4464,4.4192,4.4192,4.4066,4.3765,4.3765,4.3765,4.3765,4.3489,4.3363,4.3476,4.5502,4.6632,4.7192,4.999,5.1206,5.1206,5.1206,5.1206,5.1206,5.1206,5.1206,5.1206,5.1206,5.1206,5.1206,3.3386,3.3386,3.3386,3.3386,3.3386,3.3386,3.3386,3.3386,3.3503,3.3796,3.5084,3.5982,3.5982,3.444,3.3386,3.3386,3.3386,3.3386,3.3386,3.3386,3.3386,3.3386,3.3386,3.3386,3.3386,3.3386,3.2598,3.0898,3.0898,3.0898,3.0898,3.0898,3.0898,3.0898,3.0898,3.0898,3.0898,3.0898,3.0898,3.0898,3.0898,3.0898,3.0898,3.0898,3.0889,3.0898,3.0918,3.0898,3.0898,3.0898,3.1094,3.1436,3.2175,3.2202,3.2012,3.2159,3.2198,3.2218,3.2276,3.2316,3.2413,3.2793,3.291,3.2812,3.2492,3.2656,3.291,3.291,3.3184,3.3386,3.3386,3.3476,3.3535,3.3535,3.3737,3.4858,3.7547,3.8178,3.9475,4.263,4.3296,4.3829,4.451,4.4589,4.464,4.4769,4.474,4.479,4.489,4.489,4.484,4.4769,4.474,4.469,4.4589,4.4589,4.464,4.4769,4.4317,4.4041,4.4001,4.5419,4.6979,4.8601,5.0415,5.1206,5.1206,5.1206,5.1206,5.1206,5.1206,5.1206,5.1206,5.1206,5.1206,5.1206,3.3386,3.3386,3.3386,3.3386,3.3386,3.3386,3.3386,3.3386,3.3933,3.5435,3.5845,3.5982,3.5982,3.444,3.3386,3.3386,3.3386,3.3386,3.3386,3.3386,3.3386,3.3386,3.3386,3.3386,3.3386,3.3386,3.2598,3.0898,3.0898,3.0898,3.0898,3.0898,3.0898,3.0898,3.0898,3.0898,3.0898,3.0898,3.0898,3.0898,3.0898,3.0898,3.0898,3.0898,3.0898,3.0914,3.0908,3.0898,3.0898,3.0898,3.1875,3.3086,3.3215,3.3203,3.3047,3.2394,3.2198,3.2276,3.2617,3.2715,3.2812,3.3242,3.3308,3.3289,3.323,3.3269,3.3308,3.3308,3.3347,3.3386,3.3386,3.373,3.4016,3.4016,3.5156,3.6238,3.6654,3.799,3.9085,3.9575,4.1334,4.306,4.4473,4.4589,4.4844,4.5321,4.5372,4.5573,4.605,4.6075,4.5874,4.5372,4.5372,4.5121,4.4614,4.4589,4.4869,4.5372,4.5296,4.4995,4.458,4.6651,4.793,4.8599,5.0412,5.1206,5.1206,5.1206,5.1206,5.1206,5.1206,5.1206,5.1206,5.1206,5.1206,5.1206,3.3386,3.3386,3.3386,3.3386,3.3386,3.3386,3.3386,3.4225,3.5123,3.5884,3.5982,3.5982,3.5982,3.5299,3.446,3.3484,3.3386,3.3386,3.3386,3.3386,3.3386,3.3386,3.3386,3.3386,3.3386,3.3386,3.3047,3.2305,3.1348,3.0898,3.0898,3.0898,3.0898,3.0898,3.0898,3.0898,3.0898,3.0898,3.0898,3.0898,3.0898,3.0898,3.0898,3.0898,3.0889,3.0898,3.0908,3.1504,3.2305,3.2305,3.2793,3.3386,3.3386,3.3386,3.3308,3.2969,3.2871,3.2969,3.343,3.3547,3.3613,3.4023,3.4141,3.4141,3.4141,3.4141,3.4004,3.3484,3.3613,3.3789,3.3789,3.4141,3.4446,3.4446,3.501,3.5794,3.6697,3.8308,4.0213,4.2383,4.3776,4.4778,4.5484,4.5543,4.5673,4.5924,4.5949,4.605,4.6301,4.6301,4.62,4.5949,4.5949,4.5824,4.5543,4.5543,4.5668,4.5949,4.5949,4.5648,4.5183,4.7752,4.8635,4.8315,5.072,5.1535,5.1206,5.1206,5.1206,5.1206,5.1206,5.1206,5.1206,5.1206,5.1206,5.1206]}]]